<?xml version="1.0" encoding="UTF-8" standalone="no" ?>
<gpx xmlns="http://www.topografix.com/GPX/1/1" xmlns:xsi="http://www.w3.org/2001/XMLSchema-instance" xsi:schemaLocation="http://www.topografix.com/GPX/1/1 http://www.topografix.com/GPX/1/1/gpx.xsd" version="1.1" creator="VisuGPX - https://www.visugpx.com">
  <metadata>
    <name>Randonnée du 27/02 depuis le pont de mousse à Grandendfontaine</name>
  </metadata>
  <trk>
    <name><![CDATA[Parcours du 27/02/2025 17h13]]></name>
    <trkseg>
      <trkpt lat="48.49882" lon="7.17252">
        <ele>551.8619</ele>
        <time>2025-02-27T13:23:38Z</time>
      </trkpt>
      <trkpt lat="48.49882" lon="7.17253">
        <ele>551.48926</ele>
        <time>2025-02-27T13:23:39Z</time>
      </trkpt>
      <trkpt lat="48.49885" lon="7.17257">
        <ele>551.48926</ele>
        <time>2025-02-27T13:23:53Z</time>
      </trkpt>
      <trkpt lat="48.49887" lon="7.17264">
        <ele>551.48926</ele>
        <time>2025-02-27T13:23:58Z</time>
      </trkpt>
      <trkpt lat="48.4989" lon="7.17271">
        <ele>551.5638</ele>
        <time>2025-02-27T13:24:03Z</time>
      </trkpt>
      <trkpt lat="48.49896" lon="7.17272">
        <ele>551.48926</ele>
        <time>2025-02-27T13:24:07Z</time>
      </trkpt>
      <trkpt lat="48.49901" lon="7.17273">
        <ele>551.48926</ele>
        <time>2025-02-27T13:24:12Z</time>
      </trkpt>
      <trkpt lat="48.49906" lon="7.17273">
        <ele>551.48926</ele>
        <time>2025-02-27T13:24:15Z</time>
      </trkpt>
      <trkpt lat="48.4991" lon="7.17278">
        <ele>551.48926</ele>
        <time>2025-02-27T13:24:19Z</time>
      </trkpt>
      <trkpt lat="48.49915" lon="7.17277">
        <ele>551.48926</ele>
        <time>2025-02-27T13:24:22Z</time>
      </trkpt>
      <trkpt lat="48.49914" lon="7.17285">
        <ele>551.48926</ele>
        <time>2025-02-27T13:24:25Z</time>
      </trkpt>
      <trkpt lat="48.49914" lon="7.17293">
        <ele>551.48926</ele>
        <time>2025-02-27T13:24:29Z</time>
      </trkpt>
      <trkpt lat="48.49915" lon="7.17302">
        <ele>551.48926</ele>
        <time>2025-02-27T13:24:33Z</time>
      </trkpt>
      <trkpt lat="48.4992" lon="7.17308">
        <ele>551.48926</ele>
        <time>2025-02-27T13:24:36Z</time>
      </trkpt>
      <trkpt lat="48.49924" lon="7.17309">
        <ele>551.48926</ele>
        <time>2025-02-27T13:24:42Z</time>
      </trkpt>
      <trkpt lat="48.49929" lon="7.17312">
        <ele>551.48926</ele>
        <time>2025-02-27T13:24:46Z</time>
      </trkpt>
      <trkpt lat="48.49934" lon="7.17314">
        <ele>551.48926</ele>
        <time>2025-02-27T13:24:50Z</time>
      </trkpt>
      <trkpt lat="48.49938" lon="7.17318">
        <ele>551.48926</ele>
        <time>2025-02-27T13:24:55Z</time>
      </trkpt>
      <trkpt lat="48.4994" lon="7.17325">
        <ele>551.48926</ele>
        <time>2025-02-27T13:24:58Z</time>
      </trkpt>
      <trkpt lat="48.49946" lon="7.17327">
        <ele>551.48926</ele>
        <time>2025-02-27T13:25:04Z</time>
      </trkpt>
      <trkpt lat="48.4995" lon="7.17331">
        <ele>551.48926</ele>
        <time>2025-02-27T13:25:10Z</time>
      </trkpt>
      <trkpt lat="48.49952" lon="7.1734">
        <ele>551.48926</ele>
        <time>2025-02-27T13:25:14Z</time>
      </trkpt>
      <trkpt lat="48.49956" lon="7.17338">
        <ele>551.48926</ele>
        <time>2025-02-27T13:25:18Z</time>
      </trkpt>
      <trkpt lat="48.4996" lon="7.17342">
        <ele>551.48926</ele>
        <time>2025-02-27T13:25:23Z</time>
      </trkpt>
      <trkpt lat="48.49965" lon="7.17345">
        <ele>551.48926</ele>
        <time>2025-02-27T13:25:26Z</time>
      </trkpt>
      <trkpt lat="48.4997" lon="7.17348">
        <ele>551.48926</ele>
        <time>2025-02-27T13:25:32Z</time>
      </trkpt>
      <trkpt lat="48.49975" lon="7.17349">
        <ele>551.48926</ele>
        <time>2025-02-27T13:25:37Z</time>
      </trkpt>
      <trkpt lat="48.49978" lon="7.17355">
        <ele>551.48926</ele>
        <time>2025-02-27T13:25:42Z</time>
      </trkpt>
      <trkpt lat="48.49983" lon="7.17359">
        <ele>551.48926</ele>
        <time>2025-02-27T13:25:47Z</time>
      </trkpt>
      <trkpt lat="48.49987" lon="7.17362">
        <ele>553.55383</ele>
        <time>2025-02-27T13:25:52Z</time>
      </trkpt>
      <trkpt lat="48.49992" lon="7.17366">
        <ele>555.6184</ele>
        <time>2025-02-27T13:25:57Z</time>
      </trkpt>
      <trkpt lat="48.49996" lon="7.17371">
        <ele>557.683</ele>
        <time>2025-02-27T13:26:01Z</time>
      </trkpt>
      <trkpt lat="48.50001" lon="7.17373">
        <ele>559.74756</ele>
        <time>2025-02-27T13:26:05Z</time>
      </trkpt>
      <trkpt lat="48.50007" lon="7.17375">
        <ele>561.81213</ele>
        <time>2025-02-27T13:26:13Z</time>
      </trkpt>
      <trkpt lat="48.50012" lon="7.17377">
        <ele>561.81213</ele>
        <time>2025-02-27T13:26:19Z</time>
      </trkpt>
      <trkpt lat="48.50017" lon="7.1738">
        <ele>561.81213</ele>
        <time>2025-02-27T13:26:27Z</time>
      </trkpt>
      <trkpt lat="48.50021" lon="7.17381">
        <ele>561.81213</ele>
        <time>2025-02-27T13:26:31Z</time>
      </trkpt>
      <trkpt lat="48.50026" lon="7.17381">
        <ele>561.81213</ele>
        <time>2025-02-27T13:26:35Z</time>
      </trkpt>
      <trkpt lat="48.50031" lon="7.17388">
        <ele>561.81213</ele>
        <time>2025-02-27T13:26:40Z</time>
      </trkpt>
      <trkpt lat="48.50036" lon="7.17391">
        <ele>561.81213</ele>
        <time>2025-02-27T13:26:47Z</time>
      </trkpt>
      <trkpt lat="48.5004" lon="7.17395">
        <ele>561.81213</ele>
        <time>2025-02-27T13:26:52Z</time>
      </trkpt>
      <trkpt lat="48.50044" lon="7.174">
        <ele>561.81213</ele>
        <time>2025-02-27T13:26:57Z</time>
      </trkpt>
      <trkpt lat="48.50047" lon="7.17405">
        <ele>561.81213</ele>
        <time>2025-02-27T13:27:02Z</time>
      </trkpt>
      <trkpt lat="48.50046" lon="7.17416">
        <ele>561.81213</ele>
        <time>2025-02-27T13:27:04Z</time>
      </trkpt>
      <trkpt lat="48.5005" lon="7.17413">
        <ele>561.81213</ele>
        <time>2025-02-27T13:27:08Z</time>
      </trkpt>
      <trkpt lat="48.50055" lon="7.17414">
        <ele>561.81213</ele>
        <time>2025-02-27T13:27:14Z</time>
      </trkpt>
      <trkpt lat="48.5006" lon="7.17416">
        <ele>561.81213</ele>
        <time>2025-02-27T13:27:18Z</time>
      </trkpt>
      <trkpt lat="48.50064" lon="7.17423">
        <ele>561.81213</ele>
        <time>2025-02-27T13:27:23Z</time>
      </trkpt>
      <trkpt lat="48.50066" lon="7.17429">
        <ele>561.81213</ele>
        <time>2025-02-27T13:27:29Z</time>
      </trkpt>
      <trkpt lat="48.5007" lon="7.17437">
        <ele>561.81213</ele>
        <time>2025-02-27T13:27:34Z</time>
      </trkpt>
      <trkpt lat="48.50073" lon="7.17443">
        <ele>561.81213</ele>
        <time>2025-02-27T13:27:40Z</time>
      </trkpt>
      <trkpt lat="48.50079" lon="7.17442">
        <ele>561.81213</ele>
        <time>2025-02-27T13:27:45Z</time>
      </trkpt>
      <trkpt lat="48.50082" lon="7.17446">
        <ele>561.81213</ele>
        <time>2025-02-27T13:27:51Z</time>
      </trkpt>
      <trkpt lat="48.50089" lon="7.17452">
        <ele>561.81213</ele>
        <time>2025-02-27T13:27:55Z</time>
      </trkpt>
      <trkpt lat="48.50094" lon="7.17449">
        <ele>563.81757</ele>
        <time>2025-02-27T13:28:01Z</time>
      </trkpt>
      <trkpt lat="48.50099" lon="7.1745">
        <ele>565.823</ele>
        <time>2025-02-27T13:28:07Z</time>
      </trkpt>
      <trkpt lat="48.50103" lon="7.17454">
        <ele>567.8284</ele>
        <time>2025-02-27T13:28:14Z</time>
      </trkpt>
      <trkpt lat="48.50108" lon="7.17452">
        <ele>569.83386</ele>
        <time>2025-02-27T13:28:19Z</time>
      </trkpt>
      <trkpt lat="48.50111" lon="7.17458">
        <ele>571.8393</ele>
        <time>2025-02-27T13:28:23Z</time>
      </trkpt>
      <trkpt lat="48.50117" lon="7.17458">
        <ele>571.8393</ele>
        <time>2025-02-27T13:28:26Z</time>
      </trkpt>
      <trkpt lat="48.50122" lon="7.1746">
        <ele>571.8393</ele>
        <time>2025-02-27T13:28:30Z</time>
      </trkpt>
      <trkpt lat="48.50129" lon="7.17457">
        <ele>571.8393</ele>
        <time>2025-02-27T13:28:36Z</time>
      </trkpt>
      <trkpt lat="48.50136" lon="7.17459">
        <ele>571.8393</ele>
        <time>2025-02-27T13:28:39Z</time>
      </trkpt>
      <trkpt lat="48.50144" lon="7.17458">
        <ele>571.8393</ele>
        <time>2025-02-27T13:28:49Z</time>
      </trkpt>
      <trkpt lat="48.50146" lon="7.17465">
        <ele>571.8393</ele>
        <time>2025-02-27T13:28:56Z</time>
      </trkpt>
      <trkpt lat="48.5015" lon="7.1747">
        <ele>571.8393</ele>
        <time>2025-02-27T13:29:02Z</time>
      </trkpt>
      <trkpt lat="48.50153" lon="7.17462">
        <ele>571.8393</ele>
        <time>2025-02-27T13:29:04Z</time>
      </trkpt>
      <trkpt lat="48.50158" lon="7.17465">
        <ele>571.8393</ele>
        <time>2025-02-27T13:29:08Z</time>
      </trkpt>
      <trkpt lat="48.50161" lon="7.17469">
        <ele>571.8393</ele>
        <time>2025-02-27T13:29:12Z</time>
      </trkpt>
      <trkpt lat="48.50168" lon="7.17469">
        <ele>571.8393</ele>
        <time>2025-02-27T13:29:15Z</time>
      </trkpt>
      <trkpt lat="48.50172" lon="7.1747">
        <ele>571.8393</ele>
        <time>2025-02-27T13:29:22Z</time>
      </trkpt>
      <trkpt lat="48.50176" lon="7.17475">
        <ele>571.8393</ele>
        <time>2025-02-27T13:29:27Z</time>
      </trkpt>
      <trkpt lat="48.5018" lon="7.1748">
        <ele>571.8393</ele>
        <time>2025-02-27T13:29:32Z</time>
      </trkpt>
      <trkpt lat="48.50184" lon="7.17486">
        <ele>571.8393</ele>
        <time>2025-02-27T13:29:38Z</time>
      </trkpt>
      <trkpt lat="48.50185" lon="7.17494">
        <ele>571.8393</ele>
        <time>2025-02-27T13:29:42Z</time>
      </trkpt>
      <trkpt lat="48.50188" lon="7.17499">
        <ele>571.8393</ele>
        <time>2025-02-27T13:29:47Z</time>
      </trkpt>
      <trkpt lat="48.50193" lon="7.17494">
        <ele>571.8393</ele>
        <time>2025-02-27T13:29:49Z</time>
      </trkpt>
      <trkpt lat="48.50198" lon="7.17494">
        <ele>571.8393</ele>
        <time>2025-02-27T13:29:52Z</time>
      </trkpt>
      <trkpt lat="48.50202" lon="7.17501">
        <ele>571.8393</ele>
        <time>2025-02-27T13:29:57Z</time>
      </trkpt>
      <trkpt lat="48.50204" lon="7.17507">
        <ele>571.8393</ele>
        <time>2025-02-27T13:30:03Z</time>
      </trkpt>
      <trkpt lat="48.50207" lon="7.17512">
        <ele>571.8393</ele>
        <time>2025-02-27T13:30:08Z</time>
      </trkpt>
      <trkpt lat="48.50211" lon="7.17517">
        <ele>571.8393</ele>
        <time>2025-02-27T13:30:12Z</time>
      </trkpt>
      <trkpt lat="48.50214" lon="7.17523">
        <ele>571.8393</ele>
        <time>2025-02-27T13:30:16Z</time>
      </trkpt>
      <trkpt lat="48.5022" lon="7.17519">
        <ele>571.8393</ele>
        <time>2025-02-27T13:30:23Z</time>
      </trkpt>
      <trkpt lat="48.50223" lon="7.17525">
        <ele>571.8393</ele>
        <time>2025-02-27T13:30:27Z</time>
      </trkpt>
      <trkpt lat="48.50226" lon="7.17531">
        <ele>571.8393</ele>
        <time>2025-02-27T13:30:31Z</time>
      </trkpt>
      <trkpt lat="48.50229" lon="7.17537">
        <ele>571.8393</ele>
        <time>2025-02-27T13:30:36Z</time>
      </trkpt>
      <trkpt lat="48.50232" lon="7.17543">
        <ele>571.8393</ele>
        <time>2025-02-27T13:30:39Z</time>
      </trkpt>
      <trkpt lat="48.50235" lon="7.17549">
        <ele>571.8393</ele>
        <time>2025-02-27T13:30:45Z</time>
      </trkpt>
      <trkpt lat="48.50239" lon="7.17553">
        <ele>574.19165</ele>
        <time>2025-02-27T13:30:49Z</time>
      </trkpt>
      <trkpt lat="48.50244" lon="7.17558">
        <ele>576.544</ele>
        <time>2025-02-27T13:30:53Z</time>
      </trkpt>
      <trkpt lat="48.50248" lon="7.17563">
        <ele>578.8964</ele>
        <time>2025-02-27T13:30:57Z</time>
      </trkpt>
      <trkpt lat="48.50252" lon="7.17566">
        <ele>581.2488</ele>
        <time>2025-02-27T13:31:00Z</time>
      </trkpt>
      <trkpt lat="48.50256" lon="7.17569">
        <ele>583.60114</ele>
        <time>2025-02-27T13:31:04Z</time>
      </trkpt>
      <trkpt lat="48.50261" lon="7.17573">
        <ele>583.60114</ele>
        <time>2025-02-27T13:31:11Z</time>
      </trkpt>
      <trkpt lat="48.50266" lon="7.17575">
        <ele>583.60114</ele>
        <time>2025-02-27T13:31:16Z</time>
      </trkpt>
      <trkpt lat="48.50271" lon="7.17577">
        <ele>583.60114</ele>
        <time>2025-02-27T13:31:21Z</time>
      </trkpt>
      <trkpt lat="48.50275" lon="7.17577">
        <ele>583.60114</ele>
        <time>2025-02-27T13:31:25Z</time>
      </trkpt>
      <trkpt lat="48.50283" lon="7.17577">
        <ele>583.60114</ele>
        <time>2025-02-27T13:31:34Z</time>
      </trkpt>
      <trkpt lat="48.50288" lon="7.17575">
        <ele>583.60114</ele>
        <time>2025-02-27T13:31:38Z</time>
      </trkpt>
      <trkpt lat="48.50292" lon="7.17573">
        <ele>583.60114</ele>
        <time>2025-02-27T13:31:41Z</time>
      </trkpt>
      <trkpt lat="48.50297" lon="7.17571">
        <ele>583.60114</ele>
        <time>2025-02-27T13:31:53Z</time>
      </trkpt>
      <trkpt lat="48.50301" lon="7.17568">
        <ele>583.60114</ele>
        <time>2025-02-27T13:32:14Z</time>
      </trkpt>
      <trkpt lat="48.50307" lon="7.17565">
        <ele>583.60114</ele>
        <time>2025-02-27T13:32:21Z</time>
      </trkpt>
      <trkpt lat="48.50311" lon="7.17563">
        <ele>585.803</ele>
        <time>2025-02-27T13:32:27Z</time>
      </trkpt>
      <trkpt lat="48.50317" lon="7.17562">
        <ele>588.0049</ele>
        <time>2025-02-27T13:32:39Z</time>
      </trkpt>
      <trkpt lat="48.50322" lon="7.17559">
        <ele>590.2067</ele>
        <time>2025-02-27T13:32:42Z</time>
      </trkpt>
      <trkpt lat="48.50328" lon="7.1756">
        <ele>592.4086</ele>
        <time>2025-02-27T13:32:45Z</time>
      </trkpt>
      <trkpt lat="48.50333" lon="7.17559">
        <ele>594.6105</ele>
        <time>2025-02-27T13:32:51Z</time>
      </trkpt>
      <trkpt lat="48.50339" lon="7.17559">
        <ele>594.6105</ele>
        <time>2025-02-27T13:32:56Z</time>
      </trkpt>
      <trkpt lat="48.50344" lon="7.1756">
        <ele>594.6105</ele>
        <time>2025-02-27T13:33:00Z</time>
      </trkpt>
      <trkpt lat="48.50349" lon="7.17562">
        <ele>594.6105</ele>
        <time>2025-02-27T13:33:10Z</time>
      </trkpt>
      <trkpt lat="48.50355" lon="7.17563">
        <ele>594.6105</ele>
        <time>2025-02-27T13:33:14Z</time>
      </trkpt>
      <trkpt lat="48.50361" lon="7.17563">
        <ele>594.6105</ele>
        <time>2025-02-27T13:33:19Z</time>
      </trkpt>
      <trkpt lat="48.50369" lon="7.17565">
        <ele>594.6105</ele>
        <time>2025-02-27T13:33:22Z</time>
      </trkpt>
      <trkpt lat="48.50373" lon="7.17566">
        <ele>594.6105</ele>
        <time>2025-02-27T13:33:32Z</time>
      </trkpt>
      <trkpt lat="48.50378" lon="7.17567">
        <ele>594.6105</ele>
        <time>2025-02-27T13:33:36Z</time>
      </trkpt>
      <trkpt lat="48.50384" lon="7.17568">
        <ele>594.6105</ele>
        <time>2025-02-27T13:33:45Z</time>
      </trkpt>
      <trkpt lat="48.50388" lon="7.17569">
        <ele>594.6105</ele>
        <time>2025-02-27T13:33:50Z</time>
      </trkpt>
      <trkpt lat="48.50393" lon="7.17571">
        <ele>594.6105</ele>
        <time>2025-02-27T13:33:53Z</time>
      </trkpt>
      <trkpt lat="48.50399" lon="7.17572">
        <ele>594.6105</ele>
        <time>2025-02-27T13:33:58Z</time>
      </trkpt>
      <trkpt lat="48.50404" lon="7.17573">
        <ele>594.6105</ele>
        <time>2025-02-27T13:34:04Z</time>
      </trkpt>
      <trkpt lat="48.5041" lon="7.17573">
        <ele>594.6105</ele>
        <time>2025-02-27T13:34:12Z</time>
      </trkpt>
      <trkpt lat="48.50416" lon="7.17573">
        <ele>594.6105</ele>
        <time>2025-02-27T13:34:18Z</time>
      </trkpt>
      <trkpt lat="48.50423" lon="7.17574">
        <ele>594.6105</ele>
        <time>2025-02-27T13:34:21Z</time>
      </trkpt>
      <trkpt lat="48.50428" lon="7.17574">
        <ele>594.6105</ele>
        <time>2025-02-27T13:34:30Z</time>
      </trkpt>
      <trkpt lat="48.50434" lon="7.17575">
        <ele>594.6105</ele>
        <time>2025-02-27T13:34:35Z</time>
      </trkpt>
      <trkpt lat="48.50439" lon="7.17575">
        <ele>594.6105</ele>
        <time>2025-02-27T13:34:44Z</time>
      </trkpt>
      <trkpt lat="48.50444" lon="7.17575">
        <ele>594.6105</ele>
        <time>2025-02-27T13:34:49Z</time>
      </trkpt>
      <trkpt lat="48.50451" lon="7.17576">
        <ele>594.6105</ele>
        <time>2025-02-27T13:34:54Z</time>
      </trkpt>
      <trkpt lat="48.50455" lon="7.17576">
        <ele>594.6105</ele>
        <time>2025-02-27T13:34:59Z</time>
      </trkpt>
      <trkpt lat="48.5046" lon="7.17576">
        <ele>594.6105</ele>
        <time>2025-02-27T13:35:04Z</time>
      </trkpt>
      <trkpt lat="48.50466" lon="7.17577">
        <ele>594.6105</ele>
        <time>2025-02-27T13:35:10Z</time>
      </trkpt>
      <trkpt lat="48.50471" lon="7.17577">
        <ele>596.7292</ele>
        <time>2025-02-27T13:35:15Z</time>
      </trkpt>
      <trkpt lat="48.50476" lon="7.17579">
        <ele>598.8479</ele>
        <time>2025-02-27T13:35:22Z</time>
      </trkpt>
      <trkpt lat="48.50481" lon="7.17579">
        <ele>600.9666</ele>
        <time>2025-02-27T13:35:30Z</time>
      </trkpt>
      <trkpt lat="48.50487" lon="7.17579">
        <ele>603.0853</ele>
        <time>2025-02-27T13:35:36Z</time>
      </trkpt>
      <trkpt lat="48.50491" lon="7.17579">
        <ele>605.20404</ele>
        <time>2025-02-27T13:35:40Z</time>
      </trkpt>
      <trkpt lat="48.50497" lon="7.17579">
        <ele>605.20404</ele>
        <time>2025-02-27T13:35:45Z</time>
      </trkpt>
      <trkpt lat="48.50502" lon="7.17579">
        <ele>605.20404</ele>
        <time>2025-02-27T13:35:48Z</time>
      </trkpt>
      <trkpt lat="48.50508" lon="7.17581">
        <ele>605.20404</ele>
        <time>2025-02-27T13:35:56Z</time>
      </trkpt>
      <trkpt lat="48.50513" lon="7.17581">
        <ele>605.20404</ele>
        <time>2025-02-27T13:36:03Z</time>
      </trkpt>
      <trkpt lat="48.5051" lon="7.17587">
        <ele>605.20404</ele>
        <time>2025-02-27T13:36:13Z</time>
      </trkpt>
      <trkpt lat="48.50509" lon="7.17594">
        <ele>605.20404</ele>
        <time>2025-02-27T13:36:15Z</time>
      </trkpt>
      <trkpt lat="48.50505" lon="7.17601">
        <ele>605.20404</ele>
        <time>2025-02-27T13:36:17Z</time>
      </trkpt>
      <trkpt lat="48.50506" lon="7.17611">
        <ele>605.20404</ele>
        <time>2025-02-27T13:36:20Z</time>
      </trkpt>
      <trkpt lat="48.50505" lon="7.1762">
        <ele>607.22626</ele>
        <time>2025-02-27T13:36:24Z</time>
      </trkpt>
      <trkpt lat="48.50505" lon="7.17629">
        <ele>609.2485</ele>
        <time>2025-02-27T13:36:40Z</time>
      </trkpt>
      <trkpt lat="48.50503" lon="7.17637">
        <ele>611.2706</ele>
        <time>2025-02-27T13:36:45Z</time>
      </trkpt>
      <trkpt lat="48.50501" lon="7.17647">
        <ele>613.29285</ele>
        <time>2025-02-27T13:36:49Z</time>
      </trkpt>
      <trkpt lat="48.50499" lon="7.17654">
        <ele>615.31506</ele>
        <time>2025-02-27T13:36:55Z</time>
      </trkpt>
      <trkpt lat="48.50497" lon="7.1766">
        <ele>615.31506</ele>
        <time>2025-02-27T13:37:00Z</time>
      </trkpt>
      <trkpt lat="48.50496" lon="7.17668">
        <ele>615.31506</ele>
        <time>2025-02-27T13:37:05Z</time>
      </trkpt>
      <trkpt lat="48.50494" lon="7.17677">
        <ele>615.31506</ele>
        <time>2025-02-27T13:37:09Z</time>
      </trkpt>
      <trkpt lat="48.50493" lon="7.17684">
        <ele>615.31506</ele>
        <time>2025-02-27T13:37:16Z</time>
      </trkpt>
      <trkpt lat="48.50492" lon="7.17693">
        <ele>615.31506</ele>
        <time>2025-02-27T13:37:24Z</time>
      </trkpt>
      <trkpt lat="48.50491" lon="7.177">
        <ele>617.3597</ele>
        <time>2025-02-27T13:37:32Z</time>
      </trkpt>
      <trkpt lat="48.5049" lon="7.17708">
        <ele>619.4043</ele>
        <time>2025-02-27T13:37:38Z</time>
      </trkpt>
      <trkpt lat="48.50489" lon="7.17715">
        <ele>621.449</ele>
        <time>2025-02-27T13:37:43Z</time>
      </trkpt>
      <trkpt lat="48.50488" lon="7.17722">
        <ele>623.4936</ele>
        <time>2025-02-27T13:37:49Z</time>
      </trkpt>
      <trkpt lat="48.50487" lon="7.17729">
        <ele>625.5382</ele>
        <time>2025-02-27T13:37:54Z</time>
      </trkpt>
      <trkpt lat="48.50486" lon="7.17736">
        <ele>625.5382</ele>
        <time>2025-02-27T13:38:00Z</time>
      </trkpt>
      <trkpt lat="48.50486" lon="7.17743">
        <ele>625.5382</ele>
        <time>2025-02-27T13:38:07Z</time>
      </trkpt>
      <trkpt lat="48.50484" lon="7.17751">
        <ele>625.5382</ele>
        <time>2025-02-27T13:38:51Z</time>
      </trkpt>
      <trkpt lat="48.50485" lon="7.17758">
        <ele>625.5382</ele>
        <time>2025-02-27T13:39:03Z</time>
      </trkpt>
      <trkpt lat="48.50487" lon="7.17765">
        <ele>625.5382</ele>
        <time>2025-02-27T13:39:09Z</time>
      </trkpt>
      <trkpt lat="48.50484" lon="7.1777">
        <ele>625.5382</ele>
        <time>2025-02-27T13:39:54Z</time>
      </trkpt>
      <trkpt lat="48.50481" lon="7.17776">
        <ele>625.5382</ele>
        <time>2025-02-27T13:40:34Z</time>
      </trkpt>
      <trkpt lat="48.50483" lon="7.17782">
        <ele>625.5382</ele>
        <time>2025-02-27T13:40:38Z</time>
      </trkpt>
      <trkpt lat="48.50481" lon="7.17791">
        <ele>625.5382</ele>
        <time>2025-02-27T13:40:43Z</time>
      </trkpt>
      <trkpt lat="48.50476" lon="7.17795">
        <ele>625.5382</ele>
        <time>2025-02-27T13:40:48Z</time>
      </trkpt>
      <trkpt lat="48.50475" lon="7.17801">
        <ele>625.5382</ele>
        <time>2025-02-27T13:40:55Z</time>
      </trkpt>
      <trkpt lat="48.50472" lon="7.17808">
        <ele>625.5382</ele>
        <time>2025-02-27T13:41:13Z</time>
      </trkpt>
      <trkpt lat="48.50468" lon="7.17813">
        <ele>625.5382</ele>
        <time>2025-02-27T13:41:18Z</time>
      </trkpt>
      <trkpt lat="48.50464" lon="7.1782">
        <ele>625.5382</ele>
        <time>2025-02-27T13:41:23Z</time>
      </trkpt>
      <trkpt lat="48.5046" lon="7.17824">
        <ele>625.5382</ele>
        <time>2025-02-27T13:41:29Z</time>
      </trkpt>
      <trkpt lat="48.50456" lon="7.17829">
        <ele>625.5382</ele>
        <time>2025-02-27T13:41:35Z</time>
      </trkpt>
      <trkpt lat="48.50452" lon="7.17834">
        <ele>625.5382</ele>
        <time>2025-02-27T13:41:39Z</time>
      </trkpt>
      <trkpt lat="48.50449" lon="7.1784">
        <ele>625.5382</ele>
        <time>2025-02-27T13:41:43Z</time>
      </trkpt>
      <trkpt lat="48.50446" lon="7.17847">
        <ele>625.5382</ele>
        <time>2025-02-27T13:41:48Z</time>
      </trkpt>
      <trkpt lat="48.50444" lon="7.17853">
        <ele>625.5382</ele>
        <time>2025-02-27T13:41:55Z</time>
      </trkpt>
      <trkpt lat="48.50441" lon="7.17859">
        <ele>625.5382</ele>
        <time>2025-02-27T13:42:01Z</time>
      </trkpt>
      <trkpt lat="48.50439" lon="7.17867">
        <ele>625.5382</ele>
        <time>2025-02-27T13:42:08Z</time>
      </trkpt>
      <trkpt lat="48.50437" lon="7.17874">
        <ele>625.5382</ele>
        <time>2025-02-27T13:42:13Z</time>
      </trkpt>
      <trkpt lat="48.50435" lon="7.17881">
        <ele>625.5382</ele>
        <time>2025-02-27T13:42:18Z</time>
      </trkpt>
      <trkpt lat="48.50433" lon="7.17888">
        <ele>625.5382</ele>
        <time>2025-02-27T13:42:23Z</time>
      </trkpt>
      <trkpt lat="48.5043" lon="7.17894">
        <ele>625.5382</ele>
        <time>2025-02-27T13:42:28Z</time>
      </trkpt>
      <trkpt lat="48.50427" lon="7.179">
        <ele>625.5382</ele>
        <time>2025-02-27T13:42:34Z</time>
      </trkpt>
      <trkpt lat="48.50425" lon="7.17906">
        <ele>625.5382</ele>
        <time>2025-02-27T13:42:39Z</time>
      </trkpt>
      <trkpt lat="48.50421" lon="7.17916">
        <ele>625.5382</ele>
        <time>2025-02-27T13:42:45Z</time>
      </trkpt>
      <trkpt lat="48.5042" lon="7.17924">
        <ele>625.5382</ele>
        <time>2025-02-27T13:42:51Z</time>
      </trkpt>
      <trkpt lat="48.5042" lon="7.17934">
        <ele>625.5382</ele>
        <time>2025-02-27T13:42:56Z</time>
      </trkpt>
      <trkpt lat="48.5042" lon="7.17942">
        <ele>625.5382</ele>
        <time>2025-02-27T13:43:03Z</time>
      </trkpt>
      <trkpt lat="48.5042" lon="7.17952">
        <ele>625.5382</ele>
        <time>2025-02-27T13:43:09Z</time>
      </trkpt>
      <trkpt lat="48.5042" lon="7.1796">
        <ele>625.5382</ele>
        <time>2025-02-27T13:43:17Z</time>
      </trkpt>
      <trkpt lat="48.50422" lon="7.17969">
        <ele>625.5382</ele>
        <time>2025-02-27T13:43:20Z</time>
      </trkpt>
      <trkpt lat="48.50422" lon="7.17976">
        <ele>625.5382</ele>
        <time>2025-02-27T13:43:26Z</time>
      </trkpt>
      <trkpt lat="48.50422" lon="7.17983">
        <ele>625.5382</ele>
        <time>2025-02-27T13:43:35Z</time>
      </trkpt>
      <trkpt lat="48.50422" lon="7.1799">
        <ele>625.5382</ele>
        <time>2025-02-27T13:43:43Z</time>
      </trkpt>
      <trkpt lat="48.50423" lon="7.17997">
        <ele>625.5382</ele>
        <time>2025-02-27T13:43:50Z</time>
      </trkpt>
      <trkpt lat="48.50423" lon="7.18004">
        <ele>625.5382</ele>
        <time>2025-02-27T13:43:54Z</time>
      </trkpt>
      <trkpt lat="48.50424" lon="7.18013">
        <ele>625.5382</ele>
        <time>2025-02-27T13:43:59Z</time>
      </trkpt>
      <trkpt lat="48.50424" lon="7.18021">
        <ele>627.7322</ele>
        <time>2025-02-27T13:44:05Z</time>
      </trkpt>
      <trkpt lat="48.50425" lon="7.18029">
        <ele>629.9261</ele>
        <time>2025-02-27T13:44:09Z</time>
      </trkpt>
      <trkpt lat="48.50425" lon="7.18036">
        <ele>632.12006</ele>
        <time>2025-02-27T13:44:22Z</time>
      </trkpt>
      <trkpt lat="48.5043" lon="7.18037">
        <ele>634.31396</ele>
        <time>2025-02-27T13:45:23Z</time>
      </trkpt>
      <trkpt lat="48.5043" lon="7.18043">
        <ele>636.50793</ele>
        <time>2025-02-27T13:46:37Z</time>
      </trkpt>
      <trkpt lat="48.50433" lon="7.18049">
        <ele>636.50793</ele>
        <time>2025-02-27T13:46:43Z</time>
      </trkpt>
      <trkpt lat="48.50434" lon="7.18057">
        <ele>636.50793</ele>
        <time>2025-02-27T13:46:48Z</time>
      </trkpt>
      <trkpt lat="48.50438" lon="7.18062">
        <ele>636.50793</ele>
        <time>2025-02-27T13:46:54Z</time>
      </trkpt>
      <trkpt lat="48.50436" lon="7.1807">
        <ele>636.50793</ele>
        <time>2025-02-27T13:47:01Z</time>
      </trkpt>
      <trkpt lat="48.50433" lon="7.18077">
        <ele>636.50793</ele>
        <time>2025-02-27T13:47:13Z</time>
      </trkpt>
      <trkpt lat="48.5043" lon="7.18083">
        <ele>636.50793</ele>
        <time>2025-02-27T13:47:18Z</time>
      </trkpt>
      <trkpt lat="48.50429" lon="7.1809">
        <ele>636.50793</ele>
        <time>2025-02-27T13:47:24Z</time>
      </trkpt>
      <trkpt lat="48.5043" lon="7.18098">
        <ele>636.50793</ele>
        <time>2025-02-27T13:47:28Z</time>
      </trkpt>
      <trkpt lat="48.50431" lon="7.18106">
        <ele>636.50793</ele>
        <time>2025-02-27T13:47:34Z</time>
      </trkpt>
      <trkpt lat="48.50431" lon="7.18115">
        <ele>636.50793</ele>
        <time>2025-02-27T13:47:39Z</time>
      </trkpt>
      <trkpt lat="48.50431" lon="7.18122">
        <ele>636.50793</ele>
        <time>2025-02-27T13:47:45Z</time>
      </trkpt>
      <trkpt lat="48.50432" lon="7.18129">
        <ele>636.50793</ele>
        <time>2025-02-27T13:47:50Z</time>
      </trkpt>
      <trkpt lat="48.50433" lon="7.18137">
        <ele>636.50793</ele>
        <time>2025-02-27T13:47:56Z</time>
      </trkpt>
      <trkpt lat="48.50433" lon="7.18145">
        <ele>636.50793</ele>
        <time>2025-02-27T13:48:00Z</time>
      </trkpt>
      <trkpt lat="48.50434" lon="7.18153">
        <ele>636.50793</ele>
        <time>2025-02-27T13:48:05Z</time>
      </trkpt>
      <trkpt lat="48.50434" lon="7.1816">
        <ele>636.50793</ele>
        <time>2025-02-27T13:48:09Z</time>
      </trkpt>
      <trkpt lat="48.50435" lon="7.18168">
        <ele>638.7857</ele>
        <time>2025-02-27T13:48:13Z</time>
      </trkpt>
      <trkpt lat="48.50436" lon="7.18177">
        <ele>641.0635</ele>
        <time>2025-02-27T13:48:18Z</time>
      </trkpt>
      <trkpt lat="48.50436" lon="7.18184">
        <ele>643.34125</ele>
        <time>2025-02-27T13:48:23Z</time>
      </trkpt>
      <trkpt lat="48.50438" lon="7.18193">
        <ele>645.619</ele>
        <time>2025-02-27T13:48:28Z</time>
      </trkpt>
      <trkpt lat="48.50439" lon="7.182">
        <ele>647.8968</ele>
        <time>2025-02-27T13:48:33Z</time>
      </trkpt>
      <trkpt lat="48.5044" lon="7.18208">
        <ele>647.8968</ele>
        <time>2025-02-27T13:48:39Z</time>
      </trkpt>
      <trkpt lat="48.50441" lon="7.18215">
        <ele>647.8968</ele>
        <time>2025-02-27T13:48:44Z</time>
      </trkpt>
      <trkpt lat="48.50442" lon="7.18223">
        <ele>647.8968</ele>
        <time>2025-02-27T13:48:50Z</time>
      </trkpt>
      <trkpt lat="48.50443" lon="7.18229">
        <ele>647.8968</ele>
        <time>2025-02-27T13:48:55Z</time>
      </trkpt>
      <trkpt lat="48.50444" lon="7.18238">
        <ele>647.8968</ele>
        <time>2025-02-27T13:49:01Z</time>
      </trkpt>
      <trkpt lat="48.50445" lon="7.18245">
        <ele>647.8968</ele>
        <time>2025-02-27T13:49:07Z</time>
      </trkpt>
      <trkpt lat="48.50445" lon="7.18252">
        <ele>647.8968</ele>
        <time>2025-02-27T13:49:14Z</time>
      </trkpt>
      <trkpt lat="48.50445" lon="7.18259">
        <ele>647.8968</ele>
        <time>2025-02-27T13:49:20Z</time>
      </trkpt>
      <trkpt lat="48.50444" lon="7.18266">
        <ele>650.03766</ele>
        <time>2025-02-27T13:49:26Z</time>
      </trkpt>
      <trkpt lat="48.50443" lon="7.18274">
        <ele>652.1785</ele>
        <time>2025-02-27T13:49:32Z</time>
      </trkpt>
      <trkpt lat="48.50442" lon="7.18281">
        <ele>654.31934</ele>
        <time>2025-02-27T13:49:38Z</time>
      </trkpt>
      <trkpt lat="48.50441" lon="7.18289">
        <ele>656.4602</ele>
        <time>2025-02-27T13:49:43Z</time>
      </trkpt>
      <trkpt lat="48.5044" lon="7.18296">
        <ele>658.6011</ele>
        <time>2025-02-27T13:49:47Z</time>
      </trkpt>
      <trkpt lat="48.50438" lon="7.18303">
        <ele>658.6011</ele>
        <time>2025-02-27T13:49:51Z</time>
      </trkpt>
      <trkpt lat="48.50437" lon="7.1831">
        <ele>658.6011</ele>
        <time>2025-02-27T13:49:56Z</time>
      </trkpt>
      <trkpt lat="48.50436" lon="7.18318">
        <ele>658.6011</ele>
        <time>2025-02-27T13:50:01Z</time>
      </trkpt>
      <trkpt lat="48.50436" lon="7.18325">
        <ele>658.6011</ele>
        <time>2025-02-27T13:50:06Z</time>
      </trkpt>
      <trkpt lat="48.50436" lon="7.18333">
        <ele>658.6011</ele>
        <time>2025-02-27T13:50:11Z</time>
      </trkpt>
      <trkpt lat="48.50438" lon="7.18341">
        <ele>658.6011</ele>
        <time>2025-02-27T13:50:16Z</time>
      </trkpt>
      <trkpt lat="48.5044" lon="7.18347">
        <ele>658.6011</ele>
        <time>2025-02-27T13:50:21Z</time>
      </trkpt>
      <trkpt lat="48.50442" lon="7.18355">
        <ele>658.6011</ele>
        <time>2025-02-27T13:50:27Z</time>
      </trkpt>
      <trkpt lat="48.50444" lon="7.18361">
        <ele>658.6011</ele>
        <time>2025-02-27T13:50:33Z</time>
      </trkpt>
      <trkpt lat="48.50447" lon="7.18368">
        <ele>658.6011</ele>
        <time>2025-02-27T13:50:38Z</time>
      </trkpt>
      <trkpt lat="48.50449" lon="7.18373">
        <ele>658.6011</ele>
        <time>2025-02-27T13:50:43Z</time>
      </trkpt>
      <trkpt lat="48.50452" lon="7.1838">
        <ele>658.6011</ele>
        <time>2025-02-27T13:50:47Z</time>
      </trkpt>
      <trkpt lat="48.50455" lon="7.18386">
        <ele>658.6011</ele>
        <time>2025-02-27T13:50:52Z</time>
      </trkpt>
      <trkpt lat="48.50458" lon="7.18392">
        <ele>658.6011</ele>
        <time>2025-02-27T13:50:57Z</time>
      </trkpt>
      <trkpt lat="48.5046" lon="7.18398">
        <ele>658.6011</ele>
        <time>2025-02-27T13:51:02Z</time>
      </trkpt>
      <trkpt lat="48.50464" lon="7.18404">
        <ele>658.6011</ele>
        <time>2025-02-27T13:51:07Z</time>
      </trkpt>
      <trkpt lat="48.50467" lon="7.1841">
        <ele>658.6011</ele>
        <time>2025-02-27T13:51:12Z</time>
      </trkpt>
      <trkpt lat="48.5047" lon="7.18415">
        <ele>658.6011</ele>
        <time>2025-02-27T13:51:17Z</time>
      </trkpt>
      <trkpt lat="48.50473" lon="7.18421">
        <ele>658.6011</ele>
        <time>2025-02-27T13:51:23Z</time>
      </trkpt>
      <trkpt lat="48.50477" lon="7.18426">
        <ele>658.6011</ele>
        <time>2025-02-27T13:51:28Z</time>
      </trkpt>
      <trkpt lat="48.5048" lon="7.18432">
        <ele>658.6011</ele>
        <time>2025-02-27T13:51:33Z</time>
      </trkpt>
      <trkpt lat="48.50483" lon="7.18437">
        <ele>658.6011</ele>
        <time>2025-02-27T13:51:38Z</time>
      </trkpt>
      <trkpt lat="48.50485" lon="7.18444">
        <ele>658.6011</ele>
        <time>2025-02-27T13:51:43Z</time>
      </trkpt>
      <trkpt lat="48.50487" lon="7.1845">
        <ele>658.6011</ele>
        <time>2025-02-27T13:51:47Z</time>
      </trkpt>
      <trkpt lat="48.50489" lon="7.18457">
        <ele>658.6011</ele>
        <time>2025-02-27T13:51:52Z</time>
      </trkpt>
      <trkpt lat="48.50491" lon="7.18465">
        <ele>658.6011</ele>
        <time>2025-02-27T13:51:58Z</time>
      </trkpt>
      <trkpt lat="48.50492" lon="7.18471">
        <ele>658.6011</ele>
        <time>2025-02-27T13:52:04Z</time>
      </trkpt>
      <trkpt lat="48.50493" lon="7.18478">
        <ele>658.6011</ele>
        <time>2025-02-27T13:52:10Z</time>
      </trkpt>
      <trkpt lat="48.50494" lon="7.18484">
        <ele>658.6011</ele>
        <time>2025-02-27T13:52:15Z</time>
      </trkpt>
      <trkpt lat="48.50494" lon="7.18494">
        <ele>658.6011</ele>
        <time>2025-02-27T13:52:22Z</time>
      </trkpt>
      <trkpt lat="48.50494" lon="7.18502">
        <ele>658.6011</ele>
        <time>2025-02-27T13:52:28Z</time>
      </trkpt>
      <trkpt lat="48.50493" lon="7.18509">
        <ele>658.6011</ele>
        <time>2025-02-27T13:52:43Z</time>
      </trkpt>
      <trkpt lat="48.50493" lon="7.18516">
        <ele>658.6011</ele>
        <time>2025-02-27T13:53:03Z</time>
      </trkpt>
      <trkpt lat="48.50493" lon="7.18523">
        <ele>658.6011</ele>
        <time>2025-02-27T13:53:08Z</time>
      </trkpt>
      <trkpt lat="48.50493" lon="7.1853">
        <ele>658.6011</ele>
        <time>2025-02-27T13:53:12Z</time>
      </trkpt>
      <trkpt lat="48.50494" lon="7.18537">
        <ele>658.6011</ele>
        <time>2025-02-27T13:53:16Z</time>
      </trkpt>
      <trkpt lat="48.50495" lon="7.18544">
        <ele>658.6011</ele>
        <time>2025-02-27T13:53:22Z</time>
      </trkpt>
      <trkpt lat="48.50495" lon="7.18552">
        <ele>658.6011</ele>
        <time>2025-02-27T13:53:28Z</time>
      </trkpt>
      <trkpt lat="48.50493" lon="7.18561">
        <ele>658.6011</ele>
        <time>2025-02-27T13:53:35Z</time>
      </trkpt>
      <trkpt lat="48.5049" lon="7.18567">
        <ele>661.1605</ele>
        <time>2025-02-27T13:53:51Z</time>
      </trkpt>
      <trkpt lat="48.50494" lon="7.18562">
        <ele>663.72</ele>
        <time>2025-02-27T13:54:22Z</time>
      </trkpt>
      <trkpt lat="48.50493" lon="7.1857">
        <ele>666.2794</ele>
        <time>2025-02-27T13:54:58Z</time>
      </trkpt>
      <trkpt lat="48.50491" lon="7.18576">
        <ele>668.83887</ele>
        <time>2025-02-27T13:55:02Z</time>
      </trkpt>
      <trkpt lat="48.50489" lon="7.18583">
        <ele>671.3983</ele>
        <time>2025-02-27T13:55:06Z</time>
      </trkpt>
      <trkpt lat="48.50483" lon="7.1859">
        <ele>671.3983</ele>
        <time>2025-02-27T13:55:11Z</time>
      </trkpt>
      <trkpt lat="48.50478" lon="7.18592">
        <ele>671.3983</ele>
        <time>2025-02-27T13:55:13Z</time>
      </trkpt>
      <trkpt lat="48.50474" lon="7.18596">
        <ele>671.3983</ele>
        <time>2025-02-27T13:55:19Z</time>
      </trkpt>
      <trkpt lat="48.5047" lon="7.18602">
        <ele>671.3983</ele>
        <time>2025-02-27T13:55:25Z</time>
      </trkpt>
      <trkpt lat="48.50467" lon="7.18608">
        <ele>671.3983</ele>
        <time>2025-02-27T13:55:30Z</time>
      </trkpt>
      <trkpt lat="48.50462" lon="7.18612">
        <ele>671.3983</ele>
        <time>2025-02-27T13:55:35Z</time>
      </trkpt>
      <trkpt lat="48.5046" lon="7.18618">
        <ele>671.3983</ele>
        <time>2025-02-27T13:55:39Z</time>
      </trkpt>
      <trkpt lat="48.50457" lon="7.18623">
        <ele>671.3983</ele>
        <time>2025-02-27T13:55:44Z</time>
      </trkpt>
      <trkpt lat="48.50452" lon="7.18629">
        <ele>671.3983</ele>
        <time>2025-02-27T13:55:49Z</time>
      </trkpt>
      <trkpt lat="48.50449" lon="7.18635">
        <ele>671.3983</ele>
        <time>2025-02-27T13:55:55Z</time>
      </trkpt>
      <trkpt lat="48.50445" lon="7.1864">
        <ele>671.3983</ele>
        <time>2025-02-27T13:56:00Z</time>
      </trkpt>
      <trkpt lat="48.50442" lon="7.18645">
        <ele>671.3983</ele>
        <time>2025-02-27T13:56:05Z</time>
      </trkpt>
      <trkpt lat="48.50438" lon="7.1865">
        <ele>671.3983</ele>
        <time>2025-02-27T13:56:10Z</time>
      </trkpt>
      <trkpt lat="48.50434" lon="7.18656">
        <ele>671.3983</ele>
        <time>2025-02-27T13:56:18Z</time>
      </trkpt>
      <trkpt lat="48.5043" lon="7.18661">
        <ele>671.3983</ele>
        <time>2025-02-27T13:56:22Z</time>
      </trkpt>
      <trkpt lat="48.50426" lon="7.18666">
        <ele>671.3983</ele>
        <time>2025-02-27T13:56:27Z</time>
      </trkpt>
      <trkpt lat="48.50422" lon="7.18671">
        <ele>671.3983</ele>
        <time>2025-02-27T13:56:32Z</time>
      </trkpt>
      <trkpt lat="48.50419" lon="7.18675">
        <ele>671.3983</ele>
        <time>2025-02-27T13:56:38Z</time>
      </trkpt>
      <trkpt lat="48.50415" lon="7.18679">
        <ele>671.3983</ele>
        <time>2025-02-27T13:56:43Z</time>
      </trkpt>
      <trkpt lat="48.5041" lon="7.18684">
        <ele>671.3983</ele>
        <time>2025-02-27T13:56:51Z</time>
      </trkpt>
      <trkpt lat="48.50406" lon="7.18688">
        <ele>671.3983</ele>
        <time>2025-02-27T13:56:56Z</time>
      </trkpt>
      <trkpt lat="48.50402" lon="7.18694">
        <ele>671.3983</ele>
        <time>2025-02-27T13:57:02Z</time>
      </trkpt>
      <trkpt lat="48.50398" lon="7.18697">
        <ele>671.3983</ele>
        <time>2025-02-27T13:57:08Z</time>
      </trkpt>
      <trkpt lat="48.50393" lon="7.18702">
        <ele>671.3983</ele>
        <time>2025-02-27T13:57:13Z</time>
      </trkpt>
      <trkpt lat="48.50389" lon="7.18706">
        <ele>671.3983</ele>
        <time>2025-02-27T13:57:20Z</time>
      </trkpt>
      <trkpt lat="48.50385" lon="7.1871">
        <ele>671.3983</ele>
        <time>2025-02-27T13:57:24Z</time>
      </trkpt>
      <trkpt lat="48.50381" lon="7.18716">
        <ele>671.3983</ele>
        <time>2025-02-27T13:57:30Z</time>
      </trkpt>
      <trkpt lat="48.50377" lon="7.1872">
        <ele>671.3983</ele>
        <time>2025-02-27T13:57:35Z</time>
      </trkpt>
      <trkpt lat="48.50373" lon="7.18724">
        <ele>671.3983</ele>
        <time>2025-02-27T13:57:40Z</time>
      </trkpt>
      <trkpt lat="48.50368" lon="7.18729">
        <ele>671.3983</ele>
        <time>2025-02-27T13:57:45Z</time>
      </trkpt>
      <trkpt lat="48.50364" lon="7.18733">
        <ele>671.3983</ele>
        <time>2025-02-27T13:57:50Z</time>
      </trkpt>
      <trkpt lat="48.5036" lon="7.18737">
        <ele>671.3983</ele>
        <time>2025-02-27T13:57:55Z</time>
      </trkpt>
      <trkpt lat="48.50356" lon="7.18742">
        <ele>671.3983</ele>
        <time>2025-02-27T13:58:00Z</time>
      </trkpt>
      <trkpt lat="48.50352" lon="7.18746">
        <ele>671.3983</ele>
        <time>2025-02-27T13:58:04Z</time>
      </trkpt>
      <trkpt lat="48.50348" lon="7.18751">
        <ele>671.3983</ele>
        <time>2025-02-27T13:58:10Z</time>
      </trkpt>
      <trkpt lat="48.50344" lon="7.18755">
        <ele>671.3983</ele>
        <time>2025-02-27T13:58:16Z</time>
      </trkpt>
      <trkpt lat="48.5034" lon="7.18759">
        <ele>671.3983</ele>
        <time>2025-02-27T13:58:20Z</time>
      </trkpt>
      <trkpt lat="48.50336" lon="7.18764">
        <ele>671.3983</ele>
        <time>2025-02-27T13:58:26Z</time>
      </trkpt>
      <trkpt lat="48.50332" lon="7.18768">
        <ele>671.3983</ele>
        <time>2025-02-27T13:58:30Z</time>
      </trkpt>
      <trkpt lat="48.50327" lon="7.18773">
        <ele>671.3983</ele>
        <time>2025-02-27T13:58:35Z</time>
      </trkpt>
      <trkpt lat="48.50323" lon="7.18778">
        <ele>671.3983</ele>
        <time>2025-02-27T13:58:40Z</time>
      </trkpt>
      <trkpt lat="48.50319" lon="7.18783">
        <ele>671.3983</ele>
        <time>2025-02-27T13:58:45Z</time>
      </trkpt>
      <trkpt lat="48.50315" lon="7.18787">
        <ele>671.3983</ele>
        <time>2025-02-27T13:58:51Z</time>
      </trkpt>
      <trkpt lat="48.50311" lon="7.18791">
        <ele>671.3983</ele>
        <time>2025-02-27T13:58:56Z</time>
      </trkpt>
      <trkpt lat="48.50307" lon="7.18795">
        <ele>671.3983</ele>
        <time>2025-02-27T13:59:01Z</time>
      </trkpt>
      <trkpt lat="48.50302" lon="7.18797">
        <ele>671.3983</ele>
        <time>2025-02-27T13:59:05Z</time>
      </trkpt>
      <trkpt lat="48.50296" lon="7.188">
        <ele>671.3983</ele>
        <time>2025-02-27T13:59:13Z</time>
      </trkpt>
      <trkpt lat="48.50291" lon="7.18802">
        <ele>671.3983</ele>
        <time>2025-02-27T13:59:20Z</time>
      </trkpt>
      <trkpt lat="48.50287" lon="7.18803">
        <ele>671.3983</ele>
        <time>2025-02-27T13:59:24Z</time>
      </trkpt>
      <trkpt lat="48.50282" lon="7.18806">
        <ele>671.3983</ele>
        <time>2025-02-27T13:59:28Z</time>
      </trkpt>
      <trkpt lat="48.50278" lon="7.18809">
        <ele>671.3983</ele>
        <time>2025-02-27T13:59:32Z</time>
      </trkpt>
      <trkpt lat="48.50274" lon="7.18813">
        <ele>671.3983</ele>
        <time>2025-02-27T13:59:35Z</time>
      </trkpt>
      <trkpt lat="48.5027" lon="7.18817">
        <ele>671.3983</ele>
        <time>2025-02-27T13:59:40Z</time>
      </trkpt>
      <trkpt lat="48.50266" lon="7.18823">
        <ele>671.3983</ele>
        <time>2025-02-27T13:59:48Z</time>
      </trkpt>
      <trkpt lat="48.50262" lon="7.1883">
        <ele>671.3983</ele>
        <time>2025-02-27T13:59:54Z</time>
      </trkpt>
      <trkpt lat="48.50259" lon="7.18835">
        <ele>671.3983</ele>
        <time>2025-02-27T13:59:59Z</time>
      </trkpt>
      <trkpt lat="48.50257" lon="7.18841">
        <ele>671.3983</ele>
        <time>2025-02-27T14:00:04Z</time>
      </trkpt>
      <trkpt lat="48.50254" lon="7.18848">
        <ele>671.3983</ele>
        <time>2025-02-27T14:00:09Z</time>
      </trkpt>
      <trkpt lat="48.50252" lon="7.18855">
        <ele>671.3983</ele>
        <time>2025-02-27T14:00:19Z</time>
      </trkpt>
      <trkpt lat="48.50251" lon="7.18865">
        <ele>671.3983</ele>
        <time>2025-02-27T14:00:23Z</time>
      </trkpt>
      <trkpt lat="48.5025" lon="7.18871">
        <ele>671.3983</ele>
        <time>2025-02-27T14:00:28Z</time>
      </trkpt>
      <trkpt lat="48.5025" lon="7.18878">
        <ele>671.3983</ele>
        <time>2025-02-27T14:00:33Z</time>
      </trkpt>
      <trkpt lat="48.5025" lon="7.18887">
        <ele>671.3983</ele>
        <time>2025-02-27T14:00:38Z</time>
      </trkpt>
      <trkpt lat="48.50251" lon="7.18894">
        <ele>671.3983</ele>
        <time>2025-02-27T14:00:42Z</time>
      </trkpt>
      <trkpt lat="48.50252" lon="7.18901">
        <ele>671.3983</ele>
        <time>2025-02-27T14:00:46Z</time>
      </trkpt>
      <trkpt lat="48.50253" lon="7.18909">
        <ele>671.3983</ele>
        <time>2025-02-27T14:00:51Z</time>
      </trkpt>
      <trkpt lat="48.50256" lon="7.18916">
        <ele>671.3983</ele>
        <time>2025-02-27T14:00:55Z</time>
      </trkpt>
      <trkpt lat="48.50258" lon="7.18922">
        <ele>671.3983</ele>
        <time>2025-02-27T14:00:59Z</time>
      </trkpt>
      <trkpt lat="48.5026" lon="7.18928">
        <ele>671.3983</ele>
        <time>2025-02-27T14:01:04Z</time>
      </trkpt>
      <trkpt lat="48.50263" lon="7.18935">
        <ele>671.3983</ele>
        <time>2025-02-27T14:01:08Z</time>
      </trkpt>
      <trkpt lat="48.50264" lon="7.18942">
        <ele>671.3983</ele>
        <time>2025-02-27T14:01:13Z</time>
      </trkpt>
      <trkpt lat="48.50267" lon="7.1895">
        <ele>671.3983</ele>
        <time>2025-02-27T14:01:18Z</time>
      </trkpt>
      <trkpt lat="48.50269" lon="7.18957">
        <ele>671.3983</ele>
        <time>2025-02-27T14:01:22Z</time>
      </trkpt>
      <trkpt lat="48.50269" lon="7.18966">
        <ele>671.3983</ele>
        <time>2025-02-27T14:01:27Z</time>
      </trkpt>
      <trkpt lat="48.5027" lon="7.18974">
        <ele>671.3983</ele>
        <time>2025-02-27T14:01:33Z</time>
      </trkpt>
      <trkpt lat="48.5027" lon="7.18981">
        <ele>671.3983</ele>
        <time>2025-02-27T14:01:37Z</time>
      </trkpt>
      <trkpt lat="48.50271" lon="7.18989">
        <ele>671.3983</ele>
        <time>2025-02-27T14:01:43Z</time>
      </trkpt>
      <trkpt lat="48.50271" lon="7.18997">
        <ele>671.3983</ele>
        <time>2025-02-27T14:01:48Z</time>
      </trkpt>
      <trkpt lat="48.5027" lon="7.19006">
        <ele>671.3983</ele>
        <time>2025-02-27T14:01:53Z</time>
      </trkpt>
      <trkpt lat="48.5027" lon="7.19013">
        <ele>671.3983</ele>
        <time>2025-02-27T14:01:58Z</time>
      </trkpt>
      <trkpt lat="48.5027" lon="7.1902">
        <ele>671.3983</ele>
        <time>2025-02-27T14:02:05Z</time>
      </trkpt>
      <trkpt lat="48.5027" lon="7.19027">
        <ele>671.3983</ele>
        <time>2025-02-27T14:02:09Z</time>
      </trkpt>
      <trkpt lat="48.50269" lon="7.19035">
        <ele>671.3983</ele>
        <time>2025-02-27T14:02:16Z</time>
      </trkpt>
      <trkpt lat="48.50269" lon="7.19042">
        <ele>671.3983</ele>
        <time>2025-02-27T14:02:20Z</time>
      </trkpt>
      <trkpt lat="48.50269" lon="7.19049">
        <ele>671.3983</ele>
        <time>2025-02-27T14:02:23Z</time>
      </trkpt>
      <trkpt lat="48.50268" lon="7.19057">
        <ele>671.3983</ele>
        <time>2025-02-27T14:02:27Z</time>
      </trkpt>
      <trkpt lat="48.50267" lon="7.19064">
        <ele>671.3983</ele>
        <time>2025-02-27T14:02:33Z</time>
      </trkpt>
      <trkpt lat="48.50267" lon="7.19071">
        <ele>671.3983</ele>
        <time>2025-02-27T14:02:37Z</time>
      </trkpt>
      <trkpt lat="48.50266" lon="7.19078">
        <ele>671.3983</ele>
        <time>2025-02-27T14:02:42Z</time>
      </trkpt>
      <trkpt lat="48.50265" lon="7.19086">
        <ele>671.3983</ele>
        <time>2025-02-27T14:02:47Z</time>
      </trkpt>
      <trkpt lat="48.50264" lon="7.19093">
        <ele>671.3983</ele>
        <time>2025-02-27T14:02:54Z</time>
      </trkpt>
      <trkpt lat="48.50263" lon="7.19101">
        <ele>671.3983</ele>
        <time>2025-02-27T14:02:58Z</time>
      </trkpt>
      <trkpt lat="48.50262" lon="7.19108">
        <ele>671.3983</ele>
        <time>2025-02-27T14:03:02Z</time>
      </trkpt>
      <trkpt lat="48.50261" lon="7.19116">
        <ele>671.3983</ele>
        <time>2025-02-27T14:03:07Z</time>
      </trkpt>
      <trkpt lat="48.50259" lon="7.19124">
        <ele>671.3983</ele>
        <time>2025-02-27T14:03:12Z</time>
      </trkpt>
      <trkpt lat="48.50258" lon="7.19132">
        <ele>671.3983</ele>
        <time>2025-02-27T14:03:17Z</time>
      </trkpt>
      <trkpt lat="48.50257" lon="7.19138">
        <ele>671.3983</ele>
        <time>2025-02-27T14:03:22Z</time>
      </trkpt>
      <trkpt lat="48.50256" lon="7.19146">
        <ele>671.3983</ele>
        <time>2025-02-27T14:03:27Z</time>
      </trkpt>
      <trkpt lat="48.50255" lon="7.19153">
        <ele>671.3983</ele>
        <time>2025-02-27T14:03:30Z</time>
      </trkpt>
      <trkpt lat="48.50254" lon="7.1916">
        <ele>671.3983</ele>
        <time>2025-02-27T14:03:34Z</time>
      </trkpt>
      <trkpt lat="48.50252" lon="7.19167">
        <ele>671.3983</ele>
        <time>2025-02-27T14:03:37Z</time>
      </trkpt>
      <trkpt lat="48.50251" lon="7.19175">
        <ele>671.3983</ele>
        <time>2025-02-27T14:03:44Z</time>
      </trkpt>
      <trkpt lat="48.5025" lon="7.19183">
        <ele>671.3983</ele>
        <time>2025-02-27T14:03:49Z</time>
      </trkpt>
      <trkpt lat="48.50249" lon="7.19191">
        <ele>671.3983</ele>
        <time>2025-02-27T14:03:55Z</time>
      </trkpt>
      <trkpt lat="48.50248" lon="7.19199">
        <ele>671.3983</ele>
        <time>2025-02-27T14:04:00Z</time>
      </trkpt>
      <trkpt lat="48.50246" lon="7.19206">
        <ele>671.3983</ele>
        <time>2025-02-27T14:04:04Z</time>
      </trkpt>
      <trkpt lat="48.50245" lon="7.19213">
        <ele>671.3983</ele>
        <time>2025-02-27T14:04:09Z</time>
      </trkpt>
      <trkpt lat="48.50244" lon="7.1922">
        <ele>671.3983</ele>
        <time>2025-02-27T14:04:13Z</time>
      </trkpt>
      <trkpt lat="48.50243" lon="7.19228">
        <ele>671.3983</ele>
        <time>2025-02-27T14:04:18Z</time>
      </trkpt>
      <trkpt lat="48.50242" lon="7.19236">
        <ele>671.3983</ele>
        <time>2025-02-27T14:04:23Z</time>
      </trkpt>
      <trkpt lat="48.50242" lon="7.19244">
        <ele>671.3983</ele>
        <time>2025-02-27T14:04:28Z</time>
      </trkpt>
      <trkpt lat="48.50241" lon="7.19252">
        <ele>671.3983</ele>
        <time>2025-02-27T14:04:32Z</time>
      </trkpt>
      <trkpt lat="48.5024" lon="7.1926">
        <ele>671.3983</ele>
        <time>2025-02-27T14:04:38Z</time>
      </trkpt>
      <trkpt lat="48.50239" lon="7.19267">
        <ele>671.3983</ele>
        <time>2025-02-27T14:04:43Z</time>
      </trkpt>
      <trkpt lat="48.50239" lon="7.19276">
        <ele>671.3983</ele>
        <time>2025-02-27T14:04:47Z</time>
      </trkpt>
      <trkpt lat="48.50238" lon="7.19284">
        <ele>671.3983</ele>
        <time>2025-02-27T14:04:52Z</time>
      </trkpt>
      <trkpt lat="48.50238" lon="7.19292">
        <ele>671.3983</ele>
        <time>2025-02-27T14:04:56Z</time>
      </trkpt>
      <trkpt lat="48.50239" lon="7.19299">
        <ele>671.3983</ele>
        <time>2025-02-27T14:05:01Z</time>
      </trkpt>
      <trkpt lat="48.5024" lon="7.19309">
        <ele>671.3983</ele>
        <time>2025-02-27T14:05:06Z</time>
      </trkpt>
      <trkpt lat="48.50243" lon="7.19318">
        <ele>671.3983</ele>
        <time>2025-02-27T14:05:12Z</time>
      </trkpt>
      <trkpt lat="48.50246" lon="7.19325">
        <ele>671.3983</ele>
        <time>2025-02-27T14:05:18Z</time>
      </trkpt>
      <trkpt lat="48.50248" lon="7.19332">
        <ele>671.3983</ele>
        <time>2025-02-27T14:05:23Z</time>
      </trkpt>
      <trkpt lat="48.50252" lon="7.19339">
        <ele>671.3983</ele>
        <time>2025-02-27T14:05:29Z</time>
      </trkpt>
      <trkpt lat="48.50254" lon="7.19345">
        <ele>671.3983</ele>
        <time>2025-02-27T14:05:33Z</time>
      </trkpt>
      <trkpt lat="48.50257" lon="7.1935">
        <ele>671.3983</ele>
        <time>2025-02-27T14:05:40Z</time>
      </trkpt>
      <trkpt lat="48.5026" lon="7.19357">
        <ele>671.3983</ele>
        <time>2025-02-27T14:05:45Z</time>
      </trkpt>
      <trkpt lat="48.50263" lon="7.19364">
        <ele>673.40094</ele>
        <time>2025-02-27T14:05:51Z</time>
      </trkpt>
      <trkpt lat="48.50266" lon="7.1937">
        <ele>675.4036</ele>
        <time>2025-02-27T14:05:56Z</time>
      </trkpt>
      <trkpt lat="48.50268" lon="7.19377">
        <ele>677.40625</ele>
        <time>2025-02-27T14:06:01Z</time>
      </trkpt>
      <trkpt lat="48.5027" lon="7.19384">
        <ele>679.40894</ele>
        <time>2025-02-27T14:06:07Z</time>
      </trkpt>
      <trkpt lat="48.50272" lon="7.19391">
        <ele>681.41156</ele>
        <time>2025-02-27T14:06:11Z</time>
      </trkpt>
      <trkpt lat="48.50275" lon="7.194">
        <ele>681.41156</ele>
        <time>2025-02-27T14:06:18Z</time>
      </trkpt>
      <trkpt lat="48.50277" lon="7.19408">
        <ele>681.41156</ele>
        <time>2025-02-27T14:06:24Z</time>
      </trkpt>
      <trkpt lat="48.50279" lon="7.19414">
        <ele>681.41156</ele>
        <time>2025-02-27T14:06:28Z</time>
      </trkpt>
      <trkpt lat="48.50281" lon="7.19421">
        <ele>681.41156</ele>
        <time>2025-02-27T14:06:34Z</time>
      </trkpt>
      <trkpt lat="48.50283" lon="7.19428">
        <ele>681.41156</ele>
        <time>2025-02-27T14:06:39Z</time>
      </trkpt>
      <trkpt lat="48.50285" lon="7.19436">
        <ele>681.41156</ele>
        <time>2025-02-27T14:06:44Z</time>
      </trkpt>
      <trkpt lat="48.50288" lon="7.19444">
        <ele>681.41156</ele>
        <time>2025-02-27T14:06:51Z</time>
      </trkpt>
      <trkpt lat="48.5029" lon="7.19451">
        <ele>681.41156</ele>
        <time>2025-02-27T14:06:57Z</time>
      </trkpt>
      <trkpt lat="48.50292" lon="7.19457">
        <ele>681.41156</ele>
        <time>2025-02-27T14:07:01Z</time>
      </trkpt>
      <trkpt lat="48.50295" lon="7.19464">
        <ele>681.41156</ele>
        <time>2025-02-27T14:07:06Z</time>
      </trkpt>
      <trkpt lat="48.50297" lon="7.1947">
        <ele>681.41156</ele>
        <time>2025-02-27T14:07:11Z</time>
      </trkpt>
      <trkpt lat="48.503" lon="7.19477">
        <ele>681.41156</ele>
        <time>2025-02-27T14:07:15Z</time>
      </trkpt>
      <trkpt lat="48.50303" lon="7.19484">
        <ele>681.41156</ele>
        <time>2025-02-27T14:07:21Z</time>
      </trkpt>
      <trkpt lat="48.50305" lon="7.19489">
        <ele>681.41156</ele>
        <time>2025-02-27T14:07:25Z</time>
      </trkpt>
      <trkpt lat="48.50308" lon="7.19496">
        <ele>681.41156</ele>
        <time>2025-02-27T14:07:30Z</time>
      </trkpt>
      <trkpt lat="48.5031" lon="7.19502">
        <ele>681.41156</ele>
        <time>2025-02-27T14:07:35Z</time>
      </trkpt>
      <trkpt lat="48.50312" lon="7.19509">
        <ele>681.41156</ele>
        <time>2025-02-27T14:07:41Z</time>
      </trkpt>
      <trkpt lat="48.50315" lon="7.19517">
        <ele>681.41156</ele>
        <time>2025-02-27T14:07:46Z</time>
      </trkpt>
      <trkpt lat="48.50317" lon="7.19524">
        <ele>681.41156</ele>
        <time>2025-02-27T14:07:50Z</time>
      </trkpt>
      <trkpt lat="48.50319" lon="7.1953">
        <ele>681.41156</ele>
        <time>2025-02-27T14:07:55Z</time>
      </trkpt>
      <trkpt lat="48.50322" lon="7.19535">
        <ele>681.41156</ele>
        <time>2025-02-27T14:08:06Z</time>
      </trkpt>
      <trkpt lat="48.50322" lon="7.19542">
        <ele>681.41156</ele>
        <time>2025-02-27T14:08:13Z</time>
      </trkpt>
      <trkpt lat="48.50322" lon="7.1955">
        <ele>681.41156</ele>
        <time>2025-02-27T14:08:18Z</time>
      </trkpt>
      <trkpt lat="48.50321" lon="7.19558">
        <ele>681.41156</ele>
        <time>2025-02-27T14:08:23Z</time>
      </trkpt>
      <trkpt lat="48.5032" lon="7.19565">
        <ele>681.41156</ele>
        <time>2025-02-27T14:08:28Z</time>
      </trkpt>
      <trkpt lat="48.5032" lon="7.19573">
        <ele>681.41156</ele>
        <time>2025-02-27T14:08:33Z</time>
      </trkpt>
      <trkpt lat="48.50319" lon="7.19581">
        <ele>681.41156</ele>
        <time>2025-02-27T14:08:38Z</time>
      </trkpt>
      <trkpt lat="48.50319" lon="7.19588">
        <ele>681.41156</ele>
        <time>2025-02-27T14:08:44Z</time>
      </trkpt>
      <trkpt lat="48.50318" lon="7.19596">
        <ele>681.41156</ele>
        <time>2025-02-27T14:08:48Z</time>
      </trkpt>
      <trkpt lat="48.50318" lon="7.19604">
        <ele>681.41156</ele>
        <time>2025-02-27T14:08:53Z</time>
      </trkpt>
      <trkpt lat="48.50317" lon="7.19612">
        <ele>681.41156</ele>
        <time>2025-02-27T14:09:02Z</time>
      </trkpt>
      <trkpt lat="48.50316" lon="7.19619">
        <ele>681.41156</ele>
        <time>2025-02-27T14:09:06Z</time>
      </trkpt>
      <trkpt lat="48.50315" lon="7.19627">
        <ele>681.41156</ele>
        <time>2025-02-27T14:09:11Z</time>
      </trkpt>
      <trkpt lat="48.50315" lon="7.19633">
        <ele>681.41156</ele>
        <time>2025-02-27T14:09:15Z</time>
      </trkpt>
      <trkpt lat="48.50315" lon="7.1964">
        <ele>681.41156</ele>
        <time>2025-02-27T14:09:21Z</time>
      </trkpt>
      <trkpt lat="48.50314" lon="7.19648">
        <ele>681.41156</ele>
        <time>2025-02-27T14:09:26Z</time>
      </trkpt>
      <trkpt lat="48.50313" lon="7.19655">
        <ele>681.41156</ele>
        <time>2025-02-27T14:09:31Z</time>
      </trkpt>
      <trkpt lat="48.50313" lon="7.19662">
        <ele>681.41156</ele>
        <time>2025-02-27T14:09:36Z</time>
      </trkpt>
      <trkpt lat="48.50314" lon="7.19669">
        <ele>681.41156</ele>
        <time>2025-02-27T14:09:40Z</time>
      </trkpt>
      <trkpt lat="48.50314" lon="7.19677">
        <ele>681.41156</ele>
        <time>2025-02-27T14:09:44Z</time>
      </trkpt>
      <trkpt lat="48.50314" lon="7.19686">
        <ele>681.41156</ele>
        <time>2025-02-27T14:09:49Z</time>
      </trkpt>
      <trkpt lat="48.50315" lon="7.19692">
        <ele>681.41156</ele>
        <time>2025-02-27T14:09:54Z</time>
      </trkpt>
      <trkpt lat="48.50312" lon="7.19697">
        <ele>681.41156</ele>
        <time>2025-02-27T14:10:10Z</time>
      </trkpt>
      <trkpt lat="48.50316" lon="7.197">
        <ele>681.41156</ele>
        <time>2025-02-27T14:11:29Z</time>
      </trkpt>
      <trkpt lat="48.50314" lon="7.19708">
        <ele>681.41156</ele>
        <time>2025-02-27T14:11:35Z</time>
      </trkpt>
      <trkpt lat="48.50311" lon="7.19713">
        <ele>681.41156</ele>
        <time>2025-02-27T14:11:40Z</time>
      </trkpt>
      <trkpt lat="48.50309" lon="7.19721">
        <ele>681.41156</ele>
        <time>2025-02-27T14:11:46Z</time>
      </trkpt>
      <trkpt lat="48.5031" lon="7.19728">
        <ele>678.9303</ele>
        <time>2025-02-27T14:11:51Z</time>
      </trkpt>
      <trkpt lat="48.50309" lon="7.19736">
        <ele>676.44904</ele>
        <time>2025-02-27T14:11:58Z</time>
      </trkpt>
      <trkpt lat="48.50309" lon="7.19743">
        <ele>673.9678</ele>
        <time>2025-02-27T14:12:03Z</time>
      </trkpt>
      <trkpt lat="48.50309" lon="7.19751">
        <ele>671.4865</ele>
        <time>2025-02-27T14:12:08Z</time>
      </trkpt>
      <trkpt lat="48.50306" lon="7.19757">
        <ele>669.00525</ele>
        <time>2025-02-27T14:12:11Z</time>
      </trkpt>
      <trkpt lat="48.503" lon="7.1976">
        <ele>669.00525</ele>
        <time>2025-02-27T14:12:14Z</time>
      </trkpt>
      <trkpt lat="48.50298" lon="7.19768">
        <ele>669.00525</ele>
        <time>2025-02-27T14:12:18Z</time>
      </trkpt>
      <trkpt lat="48.50295" lon="7.19775">
        <ele>669.00525</ele>
        <time>2025-02-27T14:12:22Z</time>
      </trkpt>
      <trkpt lat="48.50292" lon="7.19783">
        <ele>669.00525</ele>
        <time>2025-02-27T14:12:27Z</time>
      </trkpt>
      <trkpt lat="48.50287" lon="7.19788">
        <ele>669.00525</ele>
        <time>2025-02-27T14:12:34Z</time>
      </trkpt>
      <trkpt lat="48.50284" lon="7.19795">
        <ele>669.00525</ele>
        <time>2025-02-27T14:12:38Z</time>
      </trkpt>
      <trkpt lat="48.5028" lon="7.198">
        <ele>669.00525</ele>
        <time>2025-02-27T14:12:44Z</time>
      </trkpt>
      <trkpt lat="48.50276" lon="7.19804">
        <ele>669.00525</ele>
        <time>2025-02-27T14:12:50Z</time>
      </trkpt>
      <trkpt lat="48.50274" lon="7.1981">
        <ele>669.00525</ele>
        <time>2025-02-27T14:12:55Z</time>
      </trkpt>
      <trkpt lat="48.50271" lon="7.19817">
        <ele>669.00525</ele>
        <time>2025-02-27T14:12:58Z</time>
      </trkpt>
      <trkpt lat="48.50268" lon="7.19823">
        <ele>669.00525</ele>
        <time>2025-02-27T14:13:04Z</time>
      </trkpt>
      <trkpt lat="48.50264" lon="7.1983">
        <ele>669.00525</ele>
        <time>2025-02-27T14:13:09Z</time>
      </trkpt>
      <trkpt lat="48.5026" lon="7.19834">
        <ele>669.00525</ele>
        <time>2025-02-27T14:13:15Z</time>
      </trkpt>
      <trkpt lat="48.50259" lon="7.19841">
        <ele>669.00525</ele>
        <time>2025-02-27T14:13:18Z</time>
      </trkpt>
      <trkpt lat="48.50256" lon="7.19846">
        <ele>669.00525</ele>
        <time>2025-02-27T14:13:24Z</time>
      </trkpt>
      <trkpt lat="48.50252" lon="7.19853">
        <ele>669.00525</ele>
        <time>2025-02-27T14:13:29Z</time>
      </trkpt>
      <trkpt lat="48.50245" lon="7.19859">
        <ele>669.00525</ele>
        <time>2025-02-27T14:13:38Z</time>
      </trkpt>
      <trkpt lat="48.50242" lon="7.19865">
        <ele>669.00525</ele>
        <time>2025-02-27T14:13:41Z</time>
      </trkpt>
      <trkpt lat="48.50236" lon="7.19865">
        <ele>669.00525</ele>
        <time>2025-02-27T14:13:46Z</time>
      </trkpt>
      <trkpt lat="48.50232" lon="7.19869">
        <ele>669.00525</ele>
        <time>2025-02-27T14:13:56Z</time>
      </trkpt>
      <trkpt lat="48.50226" lon="7.19875">
        <ele>669.00525</ele>
        <time>2025-02-27T14:14:02Z</time>
      </trkpt>
      <trkpt lat="48.50221" lon="7.19879">
        <ele>669.00525</ele>
        <time>2025-02-27T14:14:12Z</time>
      </trkpt>
      <trkpt lat="48.50216" lon="7.19881">
        <ele>669.00525</ele>
        <time>2025-02-27T14:14:20Z</time>
      </trkpt>
      <trkpt lat="48.50212" lon="7.19885">
        <ele>669.00525</ele>
        <time>2025-02-27T14:14:25Z</time>
      </trkpt>
      <trkpt lat="48.50207" lon="7.19893">
        <ele>669.00525</ele>
        <time>2025-02-27T14:14:33Z</time>
      </trkpt>
      <trkpt lat="48.50202" lon="7.19894">
        <ele>669.00525</ele>
        <time>2025-02-27T14:14:37Z</time>
      </trkpt>
      <trkpt lat="48.502" lon="7.19901">
        <ele>669.00525</ele>
        <time>2025-02-27T14:14:43Z</time>
      </trkpt>
      <trkpt lat="48.50195" lon="7.19899">
        <ele>666.95544</ele>
        <time>2025-02-27T14:14:47Z</time>
      </trkpt>
      <trkpt lat="48.50191" lon="7.19904">
        <ele>664.9056</ele>
        <time>2025-02-27T14:14:50Z</time>
      </trkpt>
      <trkpt lat="48.50188" lon="7.1991">
        <ele>662.8558</ele>
        <time>2025-02-27T14:14:55Z</time>
      </trkpt>
      <trkpt lat="48.50185" lon="7.19915">
        <ele>660.8059</ele>
        <time>2025-02-27T14:15:07Z</time>
      </trkpt>
      <trkpt lat="48.50186" lon="7.19921">
        <ele>658.7561</ele>
        <time>2025-02-27T14:15:14Z</time>
      </trkpt>
      <trkpt lat="48.50185" lon="7.19928">
        <ele>658.7561</ele>
        <time>2025-02-27T14:15:17Z</time>
      </trkpt>
      <trkpt lat="48.50182" lon="7.19931">
        <ele>658.7561</ele>
        <time>2025-02-27T14:15:22Z</time>
      </trkpt>
      <trkpt lat="48.50179" lon="7.19937">
        <ele>658.7561</ele>
        <time>2025-02-27T14:15:25Z</time>
      </trkpt>
      <trkpt lat="48.50175" lon="7.19942">
        <ele>658.7561</ele>
        <time>2025-02-27T14:15:30Z</time>
      </trkpt>
      <trkpt lat="48.50172" lon="7.19947">
        <ele>658.7561</ele>
        <time>2025-02-27T14:15:35Z</time>
      </trkpt>
      <trkpt lat="48.50167" lon="7.1995">
        <ele>658.7561</ele>
        <time>2025-02-27T14:15:42Z</time>
      </trkpt>
      <trkpt lat="48.50162" lon="7.19952">
        <ele>656.2563</ele>
        <time>2025-02-27T14:15:55Z</time>
      </trkpt>
      <trkpt lat="48.50157" lon="7.19956">
        <ele>653.75653</ele>
        <time>2025-02-27T14:16:00Z</time>
      </trkpt>
      <trkpt lat="48.50153" lon="7.19962">
        <ele>651.2567</ele>
        <time>2025-02-27T14:16:05Z</time>
      </trkpt>
      <trkpt lat="48.50151" lon="7.19968">
        <ele>648.75696</ele>
        <time>2025-02-27T14:16:11Z</time>
      </trkpt>
      <trkpt lat="48.50155" lon="7.19973">
        <ele>646.25714</ele>
        <time>2025-02-27T14:16:17Z</time>
      </trkpt>
      <trkpt lat="48.50152" lon="7.19979">
        <ele>646.25714</ele>
        <time>2025-02-27T14:16:28Z</time>
      </trkpt>
      <trkpt lat="48.50153" lon="7.19988">
        <ele>646.25714</ele>
        <time>2025-02-27T14:16:53Z</time>
      </trkpt>
      <trkpt lat="48.50153" lon="7.19999">
        <ele>646.25714</ele>
        <time>2025-02-27T14:17:21Z</time>
      </trkpt>
      <trkpt lat="48.50159" lon="7.2">
        <ele>646.25714</ele>
        <time>2025-02-27T14:17:26Z</time>
      </trkpt>
      <trkpt lat="48.5016" lon="7.20007">
        <ele>646.25714</ele>
        <time>2025-02-27T14:17:31Z</time>
      </trkpt>
      <trkpt lat="48.5016" lon="7.20015">
        <ele>646.25714</ele>
        <time>2025-02-27T14:17:38Z</time>
      </trkpt>
      <trkpt lat="48.50158" lon="7.20023">
        <ele>644.25</ele>
        <time>2025-02-27T14:17:45Z</time>
      </trkpt>
      <trkpt lat="48.50154" lon="7.2003">
        <ele>642.2429</ele>
        <time>2025-02-27T14:17:48Z</time>
      </trkpt>
      <trkpt lat="48.50155" lon="7.20037">
        <ele>640.2358</ele>
        <time>2025-02-27T14:17:56Z</time>
      </trkpt>
      <trkpt lat="48.50156" lon="7.20044">
        <ele>638.2287</ele>
        <time>2025-02-27T14:18:12Z</time>
      </trkpt>
      <trkpt lat="48.50157" lon="7.20051">
        <ele>636.22156</ele>
        <time>2025-02-27T14:18:14Z</time>
      </trkpt>
      <trkpt lat="48.50158" lon="7.20058">
        <ele>636.22156</ele>
        <time>2025-02-27T14:18:19Z</time>
      </trkpt>
      <trkpt lat="48.50158" lon="7.20066">
        <ele>636.22156</ele>
        <time>2025-02-27T14:18:30Z</time>
      </trkpt>
      <trkpt lat="48.50157" lon="7.20072">
        <ele>636.22156</ele>
        <time>2025-02-27T14:18:34Z</time>
      </trkpt>
      <trkpt lat="48.50155" lon="7.20079">
        <ele>636.22156</ele>
        <time>2025-02-27T14:18:42Z</time>
      </trkpt>
      <trkpt lat="48.50151" lon="7.20085">
        <ele>636.22156</ele>
        <time>2025-02-27T14:18:46Z</time>
      </trkpt>
      <trkpt lat="48.50147" lon="7.20091">
        <ele>633.99274</ele>
        <time>2025-02-27T14:18:53Z</time>
      </trkpt>
      <trkpt lat="48.50143" lon="7.20096">
        <ele>631.76385</ele>
        <time>2025-02-27T14:19:00Z</time>
      </trkpt>
      <trkpt lat="48.5014" lon="7.20102">
        <ele>629.53503</ele>
        <time>2025-02-27T14:19:04Z</time>
      </trkpt>
      <trkpt lat="48.50137" lon="7.20108">
        <ele>627.30615</ele>
        <time>2025-02-27T14:19:14Z</time>
      </trkpt>
      <trkpt lat="48.50132" lon="7.20112">
        <ele>625.07733</ele>
        <time>2025-02-27T14:19:22Z</time>
      </trkpt>
      <trkpt lat="48.50128" lon="7.20118">
        <ele>625.07733</ele>
        <time>2025-02-27T14:19:32Z</time>
      </trkpt>
      <trkpt lat="48.50122" lon="7.20123">
        <ele>625.07733</ele>
        <time>2025-02-27T14:19:41Z</time>
      </trkpt>
      <trkpt lat="48.50118" lon="7.20124">
        <ele>625.07733</ele>
        <time>2025-02-27T14:19:47Z</time>
      </trkpt>
      <trkpt lat="48.5011" lon="7.20128">
        <ele>625.07733</ele>
        <time>2025-02-27T14:19:54Z</time>
      </trkpt>
      <trkpt lat="48.50106" lon="7.2013">
        <ele>625.07733</ele>
        <time>2025-02-27T14:19:59Z</time>
      </trkpt>
      <trkpt lat="48.50101" lon="7.20132">
        <ele>625.07733</ele>
        <time>2025-02-27T14:20:06Z</time>
      </trkpt>
      <trkpt lat="48.50095" lon="7.20134">
        <ele>625.07733</ele>
        <time>2025-02-27T14:20:10Z</time>
      </trkpt>
      <trkpt lat="48.5009" lon="7.20136">
        <ele>625.07733</ele>
        <time>2025-02-27T14:20:14Z</time>
      </trkpt>
      <trkpt lat="48.50086" lon="7.20137">
        <ele>625.07733</ele>
        <time>2025-02-27T14:20:19Z</time>
      </trkpt>
      <trkpt lat="48.50081" lon="7.20136">
        <ele>625.07733</ele>
        <time>2025-02-27T14:20:25Z</time>
      </trkpt>
      <trkpt lat="48.50076" lon="7.20137">
        <ele>625.07733</ele>
        <time>2025-02-27T14:20:32Z</time>
      </trkpt>
      <trkpt lat="48.50071" lon="7.20139">
        <ele>625.07733</ele>
        <time>2025-02-27T14:20:35Z</time>
      </trkpt>
      <trkpt lat="48.50066" lon="7.20139">
        <ele>622.80304</ele>
        <time>2025-02-27T14:20:42Z</time>
      </trkpt>
      <trkpt lat="48.50061" lon="7.20138">
        <ele>620.52875</ele>
        <time>2025-02-27T14:20:46Z</time>
      </trkpt>
      <trkpt lat="48.50056" lon="7.20138">
        <ele>618.2545</ele>
        <time>2025-02-27T14:20:50Z</time>
      </trkpt>
      <trkpt lat="48.50051" lon="7.20139">
        <ele>615.9802</ele>
        <time>2025-02-27T14:20:56Z</time>
      </trkpt>
      <trkpt lat="48.50046" lon="7.2014">
        <ele>613.70593</ele>
        <time>2025-02-27T14:21:01Z</time>
      </trkpt>
      <trkpt lat="48.50041" lon="7.20142">
        <ele>613.70593</ele>
        <time>2025-02-27T14:21:06Z</time>
      </trkpt>
      <trkpt lat="48.50037" lon="7.20143">
        <ele>613.70593</ele>
        <time>2025-02-27T14:21:10Z</time>
      </trkpt>
      <trkpt lat="48.50032" lon="7.20145">
        <ele>613.70593</ele>
        <time>2025-02-27T14:21:14Z</time>
      </trkpt>
      <trkpt lat="48.50027" lon="7.20145">
        <ele>613.70593</ele>
        <time>2025-02-27T14:21:19Z</time>
      </trkpt>
      <trkpt lat="48.50023" lon="7.20147">
        <ele>613.70593</ele>
        <time>2025-02-27T14:21:23Z</time>
      </trkpt>
      <trkpt lat="48.50017" lon="7.20148">
        <ele>613.70593</ele>
        <time>2025-02-27T14:21:31Z</time>
      </trkpt>
      <trkpt lat="48.50013" lon="7.20148">
        <ele>613.70593</ele>
        <time>2025-02-27T14:21:37Z</time>
      </trkpt>
      <trkpt lat="48.50007" lon="7.20149">
        <ele>613.70593</ele>
        <time>2025-02-27T14:21:43Z</time>
      </trkpt>
      <trkpt lat="48.50002" lon="7.20149">
        <ele>613.70593</ele>
        <time>2025-02-27T14:21:49Z</time>
      </trkpt>
      <trkpt lat="48.49997" lon="7.2015">
        <ele>613.70593</ele>
        <time>2025-02-27T14:21:54Z</time>
      </trkpt>
      <trkpt lat="48.49992" lon="7.20151">
        <ele>613.70593</ele>
        <time>2025-02-27T14:21:59Z</time>
      </trkpt>
      <trkpt lat="48.49987" lon="7.20151">
        <ele>613.70593</ele>
        <time>2025-02-27T14:22:04Z</time>
      </trkpt>
      <trkpt lat="48.49983" lon="7.20153">
        <ele>613.70593</ele>
        <time>2025-02-27T14:22:10Z</time>
      </trkpt>
      <trkpt lat="48.49978" lon="7.20155">
        <ele>611.6606</ele>
        <time>2025-02-27T14:22:15Z</time>
      </trkpt>
      <trkpt lat="48.49975" lon="7.20161">
        <ele>609.61523</ele>
        <time>2025-02-27T14:22:19Z</time>
      </trkpt>
      <trkpt lat="48.49973" lon="7.20168">
        <ele>607.56995</ele>
        <time>2025-02-27T14:22:26Z</time>
      </trkpt>
      <trkpt lat="48.49971" lon="7.20175">
        <ele>605.5246</ele>
        <time>2025-02-27T14:22:55Z</time>
      </trkpt>
      <trkpt lat="48.4997" lon="7.20182">
        <ele>603.47925</ele>
        <time>2025-02-27T14:22:59Z</time>
      </trkpt>
      <trkpt lat="48.4997" lon="7.20176">
        <ele>603.47925</ele>
        <time>2025-02-27T14:23:07Z</time>
      </trkpt>
      <trkpt lat="48.49973" lon="7.20172">
        <ele>603.47925</ele>
        <time>2025-02-27T14:23:35Z</time>
      </trkpt>
      <trkpt lat="48.49977" lon="7.20177">
        <ele>603.47925</ele>
        <time>2025-02-27T14:24:42Z</time>
      </trkpt>
      <trkpt lat="48.49974" lon="7.20185">
        <ele>603.47925</ele>
        <time>2025-02-27T14:24:46Z</time>
      </trkpt>
      <trkpt lat="48.49972" lon="7.20193">
        <ele>603.47925</ele>
        <time>2025-02-27T14:24:51Z</time>
      </trkpt>
      <trkpt lat="48.49971" lon="7.20199">
        <ele>603.47925</ele>
        <time>2025-02-27T14:24:55Z</time>
      </trkpt>
      <trkpt lat="48.4997" lon="7.20207">
        <ele>603.47925</ele>
        <time>2025-02-27T14:25:01Z</time>
      </trkpt>
      <trkpt lat="48.49968" lon="7.20214">
        <ele>603.47925</ele>
        <time>2025-02-27T14:25:06Z</time>
      </trkpt>
      <trkpt lat="48.49966" lon="7.2022">
        <ele>603.47925</ele>
        <time>2025-02-27T14:25:14Z</time>
      </trkpt>
      <trkpt lat="48.49967" lon="7.20227">
        <ele>603.47925</ele>
        <time>2025-02-27T14:25:26Z</time>
      </trkpt>
      <trkpt lat="48.4997" lon="7.20233">
        <ele>603.47925</ele>
        <time>2025-02-27T14:25:31Z</time>
      </trkpt>
      <trkpt lat="48.49974" lon="7.20236">
        <ele>603.47925</ele>
        <time>2025-02-27T14:25:40Z</time>
      </trkpt>
      <trkpt lat="48.49969" lon="7.20234">
        <ele>603.47925</ele>
        <time>2025-02-27T14:25:48Z</time>
      </trkpt>
      <trkpt lat="48.49974" lon="7.20237">
        <ele>603.47925</ele>
        <time>2025-02-27T14:26:28Z</time>
      </trkpt>
      <trkpt lat="48.49972" lon="7.20229">
        <ele>603.47925</ele>
        <time>2025-02-27T14:26:54Z</time>
      </trkpt>
      <trkpt lat="48.49974" lon="7.20236">
        <ele>603.47925</ele>
        <time>2025-02-27T14:26:58Z</time>
      </trkpt>
      <trkpt lat="48.49971" lon="7.20243">
        <ele>603.47925</ele>
        <time>2025-02-27T14:27:18Z</time>
      </trkpt>
      <trkpt lat="48.49977" lon="7.20239">
        <ele>603.47925</ele>
        <time>2025-02-27T14:27:38Z</time>
      </trkpt>
      <trkpt lat="48.49974" lon="7.20233">
        <ele>603.47925</ele>
        <time>2025-02-27T14:27:53Z</time>
      </trkpt>
      <trkpt lat="48.49969" lon="7.20234">
        <ele>603.47925</ele>
        <time>2025-02-27T14:28:23Z</time>
      </trkpt>
      <trkpt lat="48.49971" lon="7.20241">
        <ele>603.47925</ele>
        <time>2025-02-27T14:28:25Z</time>
      </trkpt>
      <trkpt lat="48.49971" lon="7.20232">
        <ele>603.47925</ele>
        <time>2025-02-27T14:28:27Z</time>
      </trkpt>
      <trkpt lat="48.49969" lon="7.20248">
        <ele>603.47925</ele>
        <time>2025-02-27T14:28:59Z</time>
      </trkpt>
      <trkpt lat="48.49969" lon="7.2024">
        <ele>603.47925</ele>
        <time>2025-02-27T14:29:07Z</time>
      </trkpt>
      <trkpt lat="48.49973" lon="7.20236">
        <ele>603.47925</ele>
        <time>2025-02-27T14:29:45Z</time>
      </trkpt>
      <trkpt lat="48.4997" lon="7.20241">
        <ele>603.47925</ele>
        <time>2025-02-27T14:29:47Z</time>
      </trkpt>
      <trkpt lat="48.49969" lon="7.20249">
        <ele>603.47925</ele>
        <time>2025-02-27T14:30:12Z</time>
      </trkpt>
      <trkpt lat="48.49971" lon="7.2024">
        <ele>603.47925</ele>
        <time>2025-02-27T14:30:16Z</time>
      </trkpt>
      <trkpt lat="48.49974" lon="7.20232">
        <ele>603.47925</ele>
        <time>2025-02-27T14:30:21Z</time>
      </trkpt>
      <trkpt lat="48.49971" lon="7.20228">
        <ele>603.47925</ele>
        <time>2025-02-27T14:30:55Z</time>
      </trkpt>
      <trkpt lat="48.49973" lon="7.20235">
        <ele>603.47925</ele>
        <time>2025-02-27T14:31:02Z</time>
      </trkpt>
      <trkpt lat="48.49979" lon="7.20237">
        <ele>603.47925</ele>
        <time>2025-02-27T14:31:14Z</time>
      </trkpt>
      <trkpt lat="48.49974" lon="7.20231">
        <ele>603.47925</ele>
        <time>2025-02-27T14:31:31Z</time>
      </trkpt>
      <trkpt lat="48.49969" lon="7.20228">
        <ele>603.47925</ele>
        <time>2025-02-27T14:32:12Z</time>
      </trkpt>
      <trkpt lat="48.49975" lon="7.20231">
        <ele>603.47925</ele>
        <time>2025-02-27T14:32:23Z</time>
      </trkpt>
      <trkpt lat="48.49979" lon="7.20241">
        <ele>603.47925</ele>
        <time>2025-02-27T14:32:26Z</time>
      </trkpt>
      <trkpt lat="48.49973" lon="7.20237">
        <ele>603.47925</ele>
        <time>2025-02-27T14:32:41Z</time>
      </trkpt>
      <trkpt lat="48.49969" lon="7.20242">
        <ele>603.47925</ele>
        <time>2025-02-27T14:38:00Z</time>
      </trkpt>
      <trkpt lat="48.49973" lon="7.20244">
        <ele>603.47925</ele>
        <time>2025-02-27T14:40:21Z</time>
      </trkpt>
      <trkpt lat="48.49972" lon="7.20235">
        <ele>603.47925</ele>
        <time>2025-02-27T14:40:27Z</time>
      </trkpt>
      <trkpt lat="48.49966" lon="7.20231">
        <ele>603.47925</ele>
        <time>2025-02-27T14:40:31Z</time>
      </trkpt>
      <trkpt lat="48.49963" lon="7.20226">
        <ele>603.47925</ele>
        <time>2025-02-27T14:40:36Z</time>
      </trkpt>
      <trkpt lat="48.49958" lon="7.20226">
        <ele>603.47925</ele>
        <time>2025-02-27T14:41:00Z</time>
      </trkpt>
      <trkpt lat="48.49957" lon="7.20232">
        <ele>603.47925</ele>
        <time>2025-02-27T14:41:16Z</time>
      </trkpt>
      <trkpt lat="48.49954" lon="7.20239">
        <ele>603.47925</ele>
        <time>2025-02-27T14:41:21Z</time>
      </trkpt>
      <trkpt lat="48.49952" lon="7.20247">
        <ele>603.47925</ele>
        <time>2025-02-27T14:41:26Z</time>
      </trkpt>
      <trkpt lat="48.4995" lon="7.20254">
        <ele>603.47925</ele>
        <time>2025-02-27T14:41:31Z</time>
      </trkpt>
      <trkpt lat="48.49948" lon="7.20261">
        <ele>603.47925</ele>
        <time>2025-02-27T14:41:38Z</time>
      </trkpt>
      <trkpt lat="48.49946" lon="7.20268">
        <ele>603.47925</ele>
        <time>2025-02-27T14:41:43Z</time>
      </trkpt>
      <trkpt lat="48.49945" lon="7.20275">
        <ele>603.47925</ele>
        <time>2025-02-27T14:41:48Z</time>
      </trkpt>
      <trkpt lat="48.49944" lon="7.20282">
        <ele>603.47925</ele>
        <time>2025-02-27T14:41:53Z</time>
      </trkpt>
      <trkpt lat="48.49942" lon="7.20288">
        <ele>603.47925</ele>
        <time>2025-02-27T14:41:59Z</time>
      </trkpt>
      <trkpt lat="48.49939" lon="7.20295">
        <ele>603.47925</ele>
        <time>2025-02-27T14:42:06Z</time>
      </trkpt>
      <trkpt lat="48.49936" lon="7.20301">
        <ele>603.47925</ele>
        <time>2025-02-27T14:42:11Z</time>
      </trkpt>
      <trkpt lat="48.49932" lon="7.20305">
        <ele>603.47925</ele>
        <time>2025-02-27T14:42:16Z</time>
      </trkpt>
      <trkpt lat="48.49927" lon="7.20309">
        <ele>603.47925</ele>
        <time>2025-02-27T14:42:22Z</time>
      </trkpt>
      <trkpt lat="48.49922" lon="7.20312">
        <ele>603.47925</ele>
        <time>2025-02-27T14:42:30Z</time>
      </trkpt>
      <trkpt lat="48.4992" lon="7.20304">
        <ele>603.47925</ele>
        <time>2025-02-27T14:42:38Z</time>
      </trkpt>
      <trkpt lat="48.49915" lon="7.20297">
        <ele>601.44824</ele>
        <time>2025-02-27T14:42:41Z</time>
      </trkpt>
      <trkpt lat="48.49912" lon="7.20292">
        <ele>599.4172</ele>
        <time>2025-02-27T14:42:43Z</time>
      </trkpt>
      <trkpt lat="48.49906" lon="7.20288">
        <ele>597.38617</ele>
        <time>2025-02-27T14:42:48Z</time>
      </trkpt>
      <trkpt lat="48.49902" lon="7.20284">
        <ele>595.3551</ele>
        <time>2025-02-27T14:42:53Z</time>
      </trkpt>
      <trkpt lat="48.49899" lon="7.20278">
        <ele>593.3241</ele>
        <time>2025-02-27T14:43:00Z</time>
      </trkpt>
      <trkpt lat="48.49897" lon="7.20273">
        <ele>593.3241</ele>
        <time>2025-02-27T14:43:05Z</time>
      </trkpt>
      <trkpt lat="48.49894" lon="7.20267">
        <ele>593.3241</ele>
        <time>2025-02-27T14:43:42Z</time>
      </trkpt>
      <trkpt lat="48.49891" lon="7.2026">
        <ele>593.3241</ele>
        <time>2025-02-27T14:43:57Z</time>
      </trkpt>
      <trkpt lat="48.49888" lon="7.20254">
        <ele>593.3241</ele>
        <time>2025-02-27T14:44:03Z</time>
      </trkpt>
      <trkpt lat="48.49885" lon="7.20248">
        <ele>593.3241</ele>
        <time>2025-02-27T14:44:10Z</time>
      </trkpt>
      <trkpt lat="48.49884" lon="7.20241">
        <ele>593.3241</ele>
        <time>2025-02-27T14:44:43Z</time>
      </trkpt>
      <trkpt lat="48.49883" lon="7.20235">
        <ele>593.3241</ele>
        <time>2025-02-27T14:44:50Z</time>
      </trkpt>
      <trkpt lat="48.4988" lon="7.20228">
        <ele>593.3241</ele>
        <time>2025-02-27T14:44:55Z</time>
      </trkpt>
      <trkpt lat="48.49878" lon="7.20222">
        <ele>593.3241</ele>
        <time>2025-02-27T14:45:00Z</time>
      </trkpt>
      <trkpt lat="48.49875" lon="7.20215">
        <ele>593.3241</ele>
        <time>2025-02-27T14:45:09Z</time>
      </trkpt>
      <trkpt lat="48.49871" lon="7.20209">
        <ele>593.3241</ele>
        <time>2025-02-27T14:45:14Z</time>
      </trkpt>
      <trkpt lat="48.49869" lon="7.20203">
        <ele>593.3241</ele>
        <time>2025-02-27T14:45:20Z</time>
      </trkpt>
      <trkpt lat="48.49866" lon="7.20198">
        <ele>593.3241</ele>
        <time>2025-02-27T14:45:26Z</time>
      </trkpt>
      <trkpt lat="48.49863" lon="7.20193">
        <ele>593.3241</ele>
        <time>2025-02-27T14:45:31Z</time>
      </trkpt>
      <trkpt lat="48.49859" lon="7.20189">
        <ele>593.3241</ele>
        <time>2025-02-27T14:45:38Z</time>
      </trkpt>
      <trkpt lat="48.49854" lon="7.20188">
        <ele>593.3241</ele>
        <time>2025-02-27T14:45:44Z</time>
      </trkpt>
      <trkpt lat="48.49851" lon="7.20183">
        <ele>593.3241</ele>
        <time>2025-02-27T14:45:59Z</time>
      </trkpt>
      <trkpt lat="48.49847" lon="7.20177">
        <ele>593.3241</ele>
        <time>2025-02-27T14:46:05Z</time>
      </trkpt>
      <trkpt lat="48.49844" lon="7.20172">
        <ele>593.3241</ele>
        <time>2025-02-27T14:46:12Z</time>
      </trkpt>
      <trkpt lat="48.49841" lon="7.20166">
        <ele>593.3241</ele>
        <time>2025-02-27T14:46:19Z</time>
      </trkpt>
      <trkpt lat="48.49837" lon="7.2016">
        <ele>591.14496</ele>
        <time>2025-02-27T14:46:26Z</time>
      </trkpt>
      <trkpt lat="48.49833" lon="7.20155">
        <ele>588.96576</ele>
        <time>2025-02-27T14:46:34Z</time>
      </trkpt>
      <trkpt lat="48.4983" lon="7.2015">
        <ele>586.7866</ele>
        <time>2025-02-27T14:46:39Z</time>
      </trkpt>
      <trkpt lat="48.49826" lon="7.20145">
        <ele>584.6074</ele>
        <time>2025-02-27T14:46:43Z</time>
      </trkpt>
      <trkpt lat="48.49823" lon="7.20141">
        <ele>582.4283</ele>
        <time>2025-02-27T14:46:48Z</time>
      </trkpt>
      <trkpt lat="48.49819" lon="7.20136">
        <ele>582.4283</ele>
        <time>2025-02-27T14:46:53Z</time>
      </trkpt>
      <trkpt lat="48.49815" lon="7.2013">
        <ele>582.4283</ele>
        <time>2025-02-27T14:46:58Z</time>
      </trkpt>
      <trkpt lat="48.49812" lon="7.20125">
        <ele>582.4283</ele>
        <time>2025-02-27T14:47:05Z</time>
      </trkpt>
      <trkpt lat="48.49809" lon="7.2012">
        <ele>582.4283</ele>
        <time>2025-02-27T14:47:10Z</time>
      </trkpt>
      <trkpt lat="48.49805" lon="7.20115">
        <ele>582.4283</ele>
        <time>2025-02-27T14:47:15Z</time>
      </trkpt>
      <trkpt lat="48.49801" lon="7.20109">
        <ele>582.4283</ele>
        <time>2025-02-27T14:47:20Z</time>
      </trkpt>
      <trkpt lat="48.49798" lon="7.20103">
        <ele>582.4283</ele>
        <time>2025-02-27T14:47:25Z</time>
      </trkpt>
      <trkpt lat="48.49794" lon="7.20098">
        <ele>582.4283</ele>
        <time>2025-02-27T14:47:30Z</time>
      </trkpt>
      <trkpt lat="48.49791" lon="7.20092">
        <ele>582.4283</ele>
        <time>2025-02-27T14:47:35Z</time>
      </trkpt>
      <trkpt lat="48.49788" lon="7.20087">
        <ele>582.4283</ele>
        <time>2025-02-27T14:47:42Z</time>
      </trkpt>
      <trkpt lat="48.49784" lon="7.20081">
        <ele>582.4283</ele>
        <time>2025-02-27T14:47:47Z</time>
      </trkpt>
      <trkpt lat="48.4978" lon="7.20075">
        <ele>582.4283</ele>
        <time>2025-02-27T14:47:52Z</time>
      </trkpt>
      <trkpt lat="48.49777" lon="7.20068">
        <ele>582.4283</ele>
        <time>2025-02-27T14:47:57Z</time>
      </trkpt>
      <trkpt lat="48.49773" lon="7.20063">
        <ele>582.4283</ele>
        <time>2025-02-27T14:48:03Z</time>
      </trkpt>
      <trkpt lat="48.49771" lon="7.20057">
        <ele>582.4283</ele>
        <time>2025-02-27T14:48:08Z</time>
      </trkpt>
      <trkpt lat="48.49768" lon="7.20051">
        <ele>582.4283</ele>
        <time>2025-02-27T14:48:14Z</time>
      </trkpt>
      <trkpt lat="48.49765" lon="7.20045">
        <ele>580.40375</ele>
        <time>2025-02-27T14:48:19Z</time>
      </trkpt>
      <trkpt lat="48.49762" lon="7.20039">
        <ele>578.3792</ele>
        <time>2025-02-27T14:48:23Z</time>
      </trkpt>
      <trkpt lat="48.4976" lon="7.20032">
        <ele>576.3546</ele>
        <time>2025-02-27T14:48:27Z</time>
      </trkpt>
      <trkpt lat="48.49757" lon="7.20025">
        <ele>574.3301</ele>
        <time>2025-02-27T14:48:32Z</time>
      </trkpt>
      <trkpt lat="48.49755" lon="7.20019">
        <ele>572.30554</ele>
        <time>2025-02-27T14:48:37Z</time>
      </trkpt>
      <trkpt lat="48.49753" lon="7.20012">
        <ele>572.30554</ele>
        <time>2025-02-27T14:48:42Z</time>
      </trkpt>
      <trkpt lat="48.49752" lon="7.20004">
        <ele>569.9351</ele>
        <time>2025-02-27T14:48:48Z</time>
      </trkpt>
      <trkpt lat="48.49751" lon="7.19996">
        <ele>567.5647</ele>
        <time>2025-02-27T14:49:02Z</time>
      </trkpt>
      <trkpt lat="48.49749" lon="7.19989">
        <ele>565.1942</ele>
        <time>2025-02-27T14:49:07Z</time>
      </trkpt>
      <trkpt lat="48.49748" lon="7.19982">
        <ele>562.8238</ele>
        <time>2025-02-27T14:49:14Z</time>
      </trkpt>
      <trkpt lat="48.49747" lon="7.19975">
        <ele>560.45337</ele>
        <time>2025-02-27T14:49:20Z</time>
      </trkpt>
      <trkpt lat="48.49746" lon="7.19968">
        <ele>560.45337</ele>
        <time>2025-02-27T14:49:25Z</time>
      </trkpt>
      <trkpt lat="48.49751" lon="7.19964">
        <ele>560.45337</ele>
        <time>2025-02-27T14:49:27Z</time>
      </trkpt>
      <trkpt lat="48.49749" lon="7.19957">
        <ele>560.45337</ele>
        <time>2025-02-27T14:49:33Z</time>
      </trkpt>
      <trkpt lat="48.49748" lon="7.1995">
        <ele>560.45337</ele>
        <time>2025-02-27T14:49:39Z</time>
      </trkpt>
      <trkpt lat="48.49746" lon="7.19943">
        <ele>560.45337</ele>
        <time>2025-02-27T14:49:45Z</time>
      </trkpt>
      <trkpt lat="48.49743" lon="7.19937">
        <ele>560.45337</ele>
        <time>2025-02-27T14:49:51Z</time>
      </trkpt>
      <trkpt lat="48.4974" lon="7.1993">
        <ele>560.45337</ele>
        <time>2025-02-27T14:49:56Z</time>
      </trkpt>
      <trkpt lat="48.49737" lon="7.19925">
        <ele>560.45337</ele>
        <time>2025-02-27T14:50:02Z</time>
      </trkpt>
      <trkpt lat="48.49735" lon="7.19919">
        <ele>560.45337</ele>
        <time>2025-02-27T14:50:10Z</time>
      </trkpt>
      <trkpt lat="48.49735" lon="7.19911">
        <ele>560.45337</ele>
        <time>2025-02-27T14:50:16Z</time>
      </trkpt>
      <trkpt lat="48.49733" lon="7.19903">
        <ele>560.45337</ele>
        <time>2025-02-27T14:50:22Z</time>
      </trkpt>
      <trkpt lat="48.49736" lon="7.19897">
        <ele>560.45337</ele>
        <time>2025-02-27T14:51:37Z</time>
      </trkpt>
      <trkpt lat="48.4974" lon="7.19892">
        <ele>560.45337</ele>
        <time>2025-02-27T14:51:42Z</time>
      </trkpt>
      <trkpt lat="48.49744" lon="7.19889">
        <ele>560.45337</ele>
        <time>2025-02-27T14:51:46Z</time>
      </trkpt>
      <trkpt lat="48.49749" lon="7.19887">
        <ele>560.45337</ele>
        <time>2025-02-27T14:51:51Z</time>
      </trkpt>
      <trkpt lat="48.49754" lon="7.19889">
        <ele>560.45337</ele>
        <time>2025-02-27T14:51:56Z</time>
      </trkpt>
      <trkpt lat="48.49759" lon="7.1989">
        <ele>560.45337</ele>
        <time>2025-02-27T14:52:00Z</time>
      </trkpt>
      <trkpt lat="48.49764" lon="7.1989">
        <ele>560.45337</ele>
        <time>2025-02-27T14:52:04Z</time>
      </trkpt>
      <trkpt lat="48.49769" lon="7.1989">
        <ele>560.45337</ele>
        <time>2025-02-27T14:52:09Z</time>
      </trkpt>
      <trkpt lat="48.49774" lon="7.19889">
        <ele>560.45337</ele>
        <time>2025-02-27T14:52:14Z</time>
      </trkpt>
      <trkpt lat="48.49779" lon="7.19889">
        <ele>560.45337</ele>
        <time>2025-02-27T14:52:19Z</time>
      </trkpt>
      <trkpt lat="48.49784" lon="7.19888">
        <ele>560.45337</ele>
        <time>2025-02-27T14:52:25Z</time>
      </trkpt>
      <trkpt lat="48.49789" lon="7.19887">
        <ele>560.45337</ele>
        <time>2025-02-27T14:52:30Z</time>
      </trkpt>
      <trkpt lat="48.49794" lon="7.19886">
        <ele>560.45337</ele>
        <time>2025-02-27T14:52:35Z</time>
      </trkpt>
      <trkpt lat="48.49799" lon="7.19883">
        <ele>560.45337</ele>
        <time>2025-02-27T14:52:40Z</time>
      </trkpt>
      <trkpt lat="48.49804" lon="7.19881">
        <ele>560.45337</ele>
        <time>2025-02-27T14:52:45Z</time>
      </trkpt>
      <trkpt lat="48.49808" lon="7.19877">
        <ele>560.45337</ele>
        <time>2025-02-27T14:52:50Z</time>
      </trkpt>
      <trkpt lat="48.49812" lon="7.19874">
        <ele>560.45337</ele>
        <time>2025-02-27T14:52:55Z</time>
      </trkpt>
      <trkpt lat="48.49816" lon="7.19869">
        <ele>560.45337</ele>
        <time>2025-02-27T14:53:00Z</time>
      </trkpt>
      <trkpt lat="48.49819" lon="7.19864">
        <ele>560.45337</ele>
        <time>2025-02-27T14:53:05Z</time>
      </trkpt>
      <trkpt lat="48.49822" lon="7.19858">
        <ele>560.45337</ele>
        <time>2025-02-27T14:53:11Z</time>
      </trkpt>
      <trkpt lat="48.49825" lon="7.19853">
        <ele>560.45337</ele>
        <time>2025-02-27T14:53:16Z</time>
      </trkpt>
      <trkpt lat="48.49828" lon="7.19847">
        <ele>560.45337</ele>
        <time>2025-02-27T14:53:21Z</time>
      </trkpt>
      <trkpt lat="48.49832" lon="7.1984">
        <ele>560.45337</ele>
        <time>2025-02-27T14:53:26Z</time>
      </trkpt>
      <trkpt lat="48.49835" lon="7.19835">
        <ele>560.45337</ele>
        <time>2025-02-27T14:53:30Z</time>
      </trkpt>
      <trkpt lat="48.49838" lon="7.19829">
        <ele>560.45337</ele>
        <time>2025-02-27T14:53:36Z</time>
      </trkpt>
      <trkpt lat="48.49842" lon="7.19822">
        <ele>560.45337</ele>
        <time>2025-02-27T14:53:40Z</time>
      </trkpt>
      <trkpt lat="48.49846" lon="7.19816">
        <ele>560.45337</ele>
        <time>2025-02-27T14:53:46Z</time>
      </trkpt>
      <trkpt lat="48.49849" lon="7.1981">
        <ele>560.45337</ele>
        <time>2025-02-27T14:53:50Z</time>
      </trkpt>
      <trkpt lat="48.49852" lon="7.19803">
        <ele>560.45337</ele>
        <time>2025-02-27T14:53:55Z</time>
      </trkpt>
      <trkpt lat="48.49855" lon="7.19797">
        <ele>560.45337</ele>
        <time>2025-02-27T14:54:00Z</time>
      </trkpt>
      <trkpt lat="48.49859" lon="7.19792">
        <ele>560.45337</ele>
        <time>2025-02-27T14:54:05Z</time>
      </trkpt>
      <trkpt lat="48.49862" lon="7.19786">
        <ele>560.45337</ele>
        <time>2025-02-27T14:54:09Z</time>
      </trkpt>
      <trkpt lat="48.49865" lon="7.1978">
        <ele>560.45337</ele>
        <time>2025-02-27T14:54:15Z</time>
      </trkpt>
      <trkpt lat="48.49868" lon="7.19774">
        <ele>560.45337</ele>
        <time>2025-02-27T14:54:19Z</time>
      </trkpt>
      <trkpt lat="48.49871" lon="7.19769">
        <ele>560.45337</ele>
        <time>2025-02-27T14:54:23Z</time>
      </trkpt>
      <trkpt lat="48.49875" lon="7.19764">
        <ele>560.45337</ele>
        <time>2025-02-27T14:54:28Z</time>
      </trkpt>
      <trkpt lat="48.49879" lon="7.19757">
        <ele>560.45337</ele>
        <time>2025-02-27T14:54:33Z</time>
      </trkpt>
      <trkpt lat="48.49882" lon="7.19752">
        <ele>560.45337</ele>
        <time>2025-02-27T14:54:38Z</time>
      </trkpt>
      <trkpt lat="48.49886" lon="7.19745">
        <ele>560.45337</ele>
        <time>2025-02-27T14:54:43Z</time>
      </trkpt>
      <trkpt lat="48.49889" lon="7.1974">
        <ele>560.45337</ele>
        <time>2025-02-27T14:54:48Z</time>
      </trkpt>
      <trkpt lat="48.49893" lon="7.19734">
        <ele>560.45337</ele>
        <time>2025-02-27T14:54:52Z</time>
      </trkpt>
      <trkpt lat="48.49896" lon="7.19729">
        <ele>560.45337</ele>
        <time>2025-02-27T14:54:56Z</time>
      </trkpt>
      <trkpt lat="48.49899" lon="7.19723">
        <ele>560.45337</ele>
        <time>2025-02-27T14:55:02Z</time>
      </trkpt>
      <trkpt lat="48.49902" lon="7.19717">
        <ele>560.45337</ele>
        <time>2025-02-27T14:55:07Z</time>
      </trkpt>
      <trkpt lat="48.49906" lon="7.19711">
        <ele>560.45337</ele>
        <time>2025-02-27T14:55:12Z</time>
      </trkpt>
      <trkpt lat="48.49909" lon="7.19705">
        <ele>560.45337</ele>
        <time>2025-02-27T14:55:16Z</time>
      </trkpt>
      <trkpt lat="48.49912" lon="7.19698">
        <ele>560.45337</ele>
        <time>2025-02-27T14:55:20Z</time>
      </trkpt>
      <trkpt lat="48.49915" lon="7.19693">
        <ele>560.45337</ele>
        <time>2025-02-27T14:55:24Z</time>
      </trkpt>
      <trkpt lat="48.49918" lon="7.19687">
        <ele>560.45337</ele>
        <time>2025-02-27T14:55:30Z</time>
      </trkpt>
      <trkpt lat="48.49921" lon="7.19681">
        <ele>560.45337</ele>
        <time>2025-02-27T14:55:34Z</time>
      </trkpt>
      <trkpt lat="48.49924" lon="7.19675">
        <ele>560.45337</ele>
        <time>2025-02-27T14:55:39Z</time>
      </trkpt>
      <trkpt lat="48.49926" lon="7.1967">
        <ele>560.45337</ele>
        <time>2025-02-27T14:55:43Z</time>
      </trkpt>
      <trkpt lat="48.49929" lon="7.19664">
        <ele>560.45337</ele>
        <time>2025-02-27T14:55:46Z</time>
      </trkpt>
      <trkpt lat="48.49933" lon="7.19658">
        <ele>562.48364</ele>
        <time>2025-02-27T14:55:52Z</time>
      </trkpt>
      <trkpt lat="48.49936" lon="7.19651">
        <ele>564.51385</ele>
        <time>2025-02-27T14:55:56Z</time>
      </trkpt>
      <trkpt lat="48.4994" lon="7.19646">
        <ele>566.5441</ele>
        <time>2025-02-27T14:56:01Z</time>
      </trkpt>
      <trkpt lat="48.49944" lon="7.19639">
        <ele>568.57434</ele>
        <time>2025-02-27T14:56:06Z</time>
      </trkpt>
      <trkpt lat="48.49947" lon="7.19634">
        <ele>570.6046</ele>
        <time>2025-02-27T14:56:11Z</time>
      </trkpt>
      <trkpt lat="48.49951" lon="7.19629">
        <ele>570.6046</ele>
        <time>2025-02-27T14:56:16Z</time>
      </trkpt>
      <trkpt lat="48.49954" lon="7.19624">
        <ele>570.6046</ele>
        <time>2025-02-27T14:56:19Z</time>
      </trkpt>
      <trkpt lat="48.49958" lon="7.1962">
        <ele>570.6046</ele>
        <time>2025-02-27T14:56:23Z</time>
      </trkpt>
      <trkpt lat="48.49962" lon="7.19616">
        <ele>570.6046</ele>
        <time>2025-02-27T14:56:28Z</time>
      </trkpt>
      <trkpt lat="48.49968" lon="7.19612">
        <ele>570.6046</ele>
        <time>2025-02-27T14:56:33Z</time>
      </trkpt>
      <trkpt lat="48.49972" lon="7.19608">
        <ele>570.6046</ele>
        <time>2025-02-27T14:56:39Z</time>
      </trkpt>
      <trkpt lat="48.49976" lon="7.19602">
        <ele>570.6046</ele>
        <time>2025-02-27T14:56:44Z</time>
      </trkpt>
      <trkpt lat="48.4998" lon="7.19596">
        <ele>570.6046</ele>
        <time>2025-02-27T14:56:50Z</time>
      </trkpt>
      <trkpt lat="48.49986" lon="7.19592">
        <ele>570.6046</ele>
        <time>2025-02-27T14:56:56Z</time>
      </trkpt>
      <trkpt lat="48.49991" lon="7.19589">
        <ele>570.6046</ele>
        <time>2025-02-27T14:57:02Z</time>
      </trkpt>
      <trkpt lat="48.49995" lon="7.19586">
        <ele>570.6046</ele>
        <time>2025-02-27T14:57:06Z</time>
      </trkpt>
      <trkpt lat="48.5" lon="7.19583">
        <ele>570.6046</ele>
        <time>2025-02-27T14:57:10Z</time>
      </trkpt>
      <trkpt lat="48.50005" lon="7.1958">
        <ele>570.6046</ele>
        <time>2025-02-27T14:57:15Z</time>
      </trkpt>
      <trkpt lat="48.5001" lon="7.19575">
        <ele>570.6046</ele>
        <time>2025-02-27T14:57:19Z</time>
      </trkpt>
      <trkpt lat="48.50015" lon="7.19572">
        <ele>570.6046</ele>
        <time>2025-02-27T14:57:24Z</time>
      </trkpt>
      <trkpt lat="48.50018" lon="7.19568">
        <ele>570.6046</ele>
        <time>2025-02-27T14:57:28Z</time>
      </trkpt>
      <trkpt lat="48.50022" lon="7.19562">
        <ele>570.6046</ele>
        <time>2025-02-27T14:57:32Z</time>
      </trkpt>
      <trkpt lat="48.50026" lon="7.19559">
        <ele>570.6046</ele>
        <time>2025-02-27T14:57:37Z</time>
      </trkpt>
      <trkpt lat="48.50031" lon="7.19555">
        <ele>570.6046</ele>
        <time>2025-02-27T14:57:41Z</time>
      </trkpt>
      <trkpt lat="48.50035" lon="7.19551">
        <ele>570.6046</ele>
        <time>2025-02-27T14:57:45Z</time>
      </trkpt>
      <trkpt lat="48.50037" lon="7.19545">
        <ele>570.6046</ele>
        <time>2025-02-27T14:57:49Z</time>
      </trkpt>
      <trkpt lat="48.5004" lon="7.19538">
        <ele>570.6046</ele>
        <time>2025-02-27T14:57:54Z</time>
      </trkpt>
      <trkpt lat="48.50042" lon="7.19532">
        <ele>570.6046</ele>
        <time>2025-02-27T14:57:59Z</time>
      </trkpt>
      <trkpt lat="48.50044" lon="7.19525">
        <ele>570.6046</ele>
        <time>2025-02-27T14:59:02Z</time>
      </trkpt>
      <trkpt lat="48.5004" lon="7.19518">
        <ele>572.6956</ele>
        <time>2025-02-27T14:59:06Z</time>
      </trkpt>
      <trkpt lat="48.50036" lon="7.19513">
        <ele>574.7866</ele>
        <time>2025-02-27T14:59:09Z</time>
      </trkpt>
      <trkpt lat="48.50033" lon="7.19507">
        <ele>576.8777</ele>
        <time>2025-02-27T14:59:12Z</time>
      </trkpt>
      <trkpt lat="48.5003" lon="7.19501">
        <ele>578.9687</ele>
        <time>2025-02-27T14:59:18Z</time>
      </trkpt>
      <trkpt lat="48.50025" lon="7.19496">
        <ele>581.0597</ele>
        <time>2025-02-27T14:59:22Z</time>
      </trkpt>
      <trkpt lat="48.5002" lon="7.19494">
        <ele>581.0597</ele>
        <time>2025-02-27T14:59:27Z</time>
      </trkpt>
      <trkpt lat="48.50016" lon="7.19493">
        <ele>581.0597</ele>
        <time>2025-02-27T14:59:31Z</time>
      </trkpt>
      <trkpt lat="48.50011" lon="7.19487">
        <ele>581.0597</ele>
        <time>2025-02-27T14:59:37Z</time>
      </trkpt>
      <trkpt lat="48.50007" lon="7.19485">
        <ele>581.0597</ele>
        <time>2025-02-27T14:59:41Z</time>
      </trkpt>
      <trkpt lat="48.50003" lon="7.19483">
        <ele>581.0597</ele>
        <time>2025-02-27T14:59:43Z</time>
      </trkpt>
      <trkpt lat="48.49997" lon="7.19481">
        <ele>581.0597</ele>
        <time>2025-02-27T14:59:48Z</time>
      </trkpt>
      <trkpt lat="48.49992" lon="7.1948">
        <ele>581.0597</ele>
        <time>2025-02-27T14:59:52Z</time>
      </trkpt>
      <trkpt lat="48.49987" lon="7.19479">
        <ele>581.0597</ele>
        <time>2025-02-27T14:59:57Z</time>
      </trkpt>
      <trkpt lat="48.49982" lon="7.19479">
        <ele>581.0597</ele>
        <time>2025-02-27T15:00:00Z</time>
      </trkpt>
      <trkpt lat="48.49978" lon="7.19479">
        <ele>581.0597</ele>
        <time>2025-02-27T15:00:05Z</time>
      </trkpt>
      <trkpt lat="48.49973" lon="7.19479">
        <ele>581.0597</ele>
        <time>2025-02-27T15:00:09Z</time>
      </trkpt>
      <trkpt lat="48.49968" lon="7.19478">
        <ele>581.0597</ele>
        <time>2025-02-27T15:00:14Z</time>
      </trkpt>
      <trkpt lat="48.49962" lon="7.19478">
        <ele>581.0597</ele>
        <time>2025-02-27T15:00:18Z</time>
      </trkpt>
      <trkpt lat="48.49957" lon="7.19477">
        <ele>581.0597</ele>
        <time>2025-02-27T15:00:21Z</time>
      </trkpt>
      <trkpt lat="48.49951" lon="7.19477">
        <ele>581.0597</ele>
        <time>2025-02-27T15:00:25Z</time>
      </trkpt>
      <trkpt lat="48.49946" lon="7.19477">
        <ele>581.0597</ele>
        <time>2025-02-27T15:00:30Z</time>
      </trkpt>
      <trkpt lat="48.4994" lon="7.19477">
        <ele>581.0597</ele>
        <time>2025-02-27T15:00:37Z</time>
      </trkpt>
      <trkpt lat="48.49935" lon="7.19476">
        <ele>581.0597</ele>
        <time>2025-02-27T15:00:41Z</time>
      </trkpt>
      <trkpt lat="48.49931" lon="7.19476">
        <ele>581.0597</ele>
        <time>2025-02-27T15:00:44Z</time>
      </trkpt>
      <trkpt lat="48.49926" lon="7.19475">
        <ele>581.0597</ele>
        <time>2025-02-27T15:00:47Z</time>
      </trkpt>
      <trkpt lat="48.4992" lon="7.19474">
        <ele>581.0597</ele>
        <time>2025-02-27T15:00:52Z</time>
      </trkpt>
      <trkpt lat="48.49915" lon="7.19473">
        <ele>581.0597</ele>
        <time>2025-02-27T15:00:58Z</time>
      </trkpt>
      <trkpt lat="48.4991" lon="7.19474">
        <ele>581.0597</ele>
        <time>2025-02-27T15:01:03Z</time>
      </trkpt>
      <trkpt lat="48.49905" lon="7.1947">
        <ele>578.77094</ele>
        <time>2025-02-27T15:01:08Z</time>
      </trkpt>
      <trkpt lat="48.49901" lon="7.19466">
        <ele>576.4821</ele>
        <time>2025-02-27T15:01:13Z</time>
      </trkpt>
      <trkpt lat="48.49897" lon="7.19461">
        <ele>574.19336</ele>
        <time>2025-02-27T15:01:19Z</time>
      </trkpt>
      <trkpt lat="48.49893" lon="7.19456">
        <ele>571.90454</ele>
        <time>2025-02-27T15:01:24Z</time>
      </trkpt>
      <trkpt lat="48.49889" lon="7.19451">
        <ele>569.6158</ele>
        <time>2025-02-27T15:01:29Z</time>
      </trkpt>
      <trkpt lat="48.49885" lon="7.19444">
        <ele>569.6158</ele>
        <time>2025-02-27T15:01:35Z</time>
      </trkpt>
      <trkpt lat="48.49883" lon="7.19438">
        <ele>569.6158</ele>
        <time>2025-02-27T15:01:40Z</time>
      </trkpt>
      <trkpt lat="48.4988" lon="7.19431">
        <ele>569.6158</ele>
        <time>2025-02-27T15:01:45Z</time>
      </trkpt>
      <trkpt lat="48.49877" lon="7.19425">
        <ele>569.6158</ele>
        <time>2025-02-27T15:01:48Z</time>
      </trkpt>
      <trkpt lat="48.49875" lon="7.19419">
        <ele>569.6158</ele>
        <time>2025-02-27T15:01:52Z</time>
      </trkpt>
      <trkpt lat="48.49872" lon="7.19413">
        <ele>569.6158</ele>
        <time>2025-02-27T15:01:57Z</time>
      </trkpt>
      <trkpt lat="48.4987" lon="7.19407">
        <ele>569.6158</ele>
        <time>2025-02-27T15:02:02Z</time>
      </trkpt>
      <trkpt lat="48.49867" lon="7.19402">
        <ele>569.6158</ele>
        <time>2025-02-27T15:02:06Z</time>
      </trkpt>
      <trkpt lat="48.49865" lon="7.19395">
        <ele>569.6158</ele>
        <time>2025-02-27T15:02:10Z</time>
      </trkpt>
      <trkpt lat="48.49863" lon="7.19389">
        <ele>569.6158</ele>
        <time>2025-02-27T15:02:14Z</time>
      </trkpt>
      <trkpt lat="48.49861" lon="7.19381">
        <ele>569.6158</ele>
        <time>2025-02-27T15:02:20Z</time>
      </trkpt>
      <trkpt lat="48.49857" lon="7.19374">
        <ele>569.6158</ele>
        <time>2025-02-27T15:02:26Z</time>
      </trkpt>
      <trkpt lat="48.49855" lon="7.19366">
        <ele>569.6158</ele>
        <time>2025-02-27T15:02:32Z</time>
      </trkpt>
      <trkpt lat="48.49852" lon="7.1936">
        <ele>569.6158</ele>
        <time>2025-02-27T15:02:35Z</time>
      </trkpt>
      <trkpt lat="48.4985" lon="7.19353">
        <ele>569.6158</ele>
        <time>2025-02-27T15:02:39Z</time>
      </trkpt>
      <trkpt lat="48.49847" lon="7.19346">
        <ele>569.6158</ele>
        <time>2025-02-27T15:02:44Z</time>
      </trkpt>
      <trkpt lat="48.49843" lon="7.19341">
        <ele>569.6158</ele>
        <time>2025-02-27T15:02:49Z</time>
      </trkpt>
      <trkpt lat="48.4984" lon="7.19335">
        <ele>569.6158</ele>
        <time>2025-02-27T15:02:54Z</time>
      </trkpt>
      <trkpt lat="48.49837" lon="7.1933">
        <ele>569.6158</ele>
        <time>2025-02-27T15:03:01Z</time>
      </trkpt>
      <trkpt lat="48.49835" lon="7.19323">
        <ele>569.6158</ele>
        <time>2025-02-27T15:03:05Z</time>
      </trkpt>
      <trkpt lat="48.49833" lon="7.19316">
        <ele>569.6158</ele>
        <time>2025-02-27T15:03:09Z</time>
      </trkpt>
      <trkpt lat="48.49832" lon="7.19309">
        <ele>569.6158</ele>
        <time>2025-02-27T15:03:13Z</time>
      </trkpt>
      <trkpt lat="48.4983" lon="7.19302">
        <ele>569.6158</ele>
        <time>2025-02-27T15:03:18Z</time>
      </trkpt>
      <trkpt lat="48.49828" lon="7.19294">
        <ele>569.6158</ele>
        <time>2025-02-27T15:03:23Z</time>
      </trkpt>
      <trkpt lat="48.49827" lon="7.19287">
        <ele>569.6158</ele>
        <time>2025-02-27T15:03:28Z</time>
      </trkpt>
      <trkpt lat="48.49825" lon="7.19279">
        <ele>569.6158</ele>
        <time>2025-02-27T15:03:33Z</time>
      </trkpt>
      <trkpt lat="48.49823" lon="7.19271">
        <ele>569.6158</ele>
        <time>2025-02-27T15:03:37Z</time>
      </trkpt>
      <trkpt lat="48.49824" lon="7.19264">
        <ele>569.6158</ele>
        <time>2025-02-27T15:03:42Z</time>
      </trkpt>
      <trkpt lat="48.49824" lon="7.19255">
        <ele>569.6158</ele>
        <time>2025-02-27T15:03:49Z</time>
      </trkpt>
      <trkpt lat="48.49824" lon="7.19248">
        <ele>569.6158</ele>
        <time>2025-02-27T15:03:52Z</time>
      </trkpt>
      <trkpt lat="48.49826" lon="7.19241">
        <ele>569.6158</ele>
        <time>2025-02-27T15:03:55Z</time>
      </trkpt>
      <trkpt lat="48.49824" lon="7.19231">
        <ele>569.6158</ele>
        <time>2025-02-27T15:04:06Z</time>
      </trkpt>
      <trkpt lat="48.49822" lon="7.19223">
        <ele>569.6158</ele>
        <time>2025-02-27T15:04:11Z</time>
      </trkpt>
      <trkpt lat="48.49821" lon="7.19216">
        <ele>569.6158</ele>
        <time>2025-02-27T15:04:17Z</time>
      </trkpt>
      <trkpt lat="48.4982" lon="7.19207">
        <ele>569.6158</ele>
        <time>2025-02-27T15:04:21Z</time>
      </trkpt>
      <trkpt lat="48.49821" lon="7.192">
        <ele>569.6158</ele>
        <time>2025-02-27T15:04:25Z</time>
      </trkpt>
      <trkpt lat="48.49818" lon="7.19193">
        <ele>569.6158</ele>
        <time>2025-02-27T15:04:29Z</time>
      </trkpt>
      <trkpt lat="48.49815" lon="7.19186">
        <ele>569.6158</ele>
        <time>2025-02-27T15:04:34Z</time>
      </trkpt>
      <trkpt lat="48.49812" lon="7.19179">
        <ele>569.6158</ele>
        <time>2025-02-27T15:04:41Z</time>
      </trkpt>
      <trkpt lat="48.4981" lon="7.19172">
        <ele>569.6158</ele>
        <time>2025-02-27T15:04:46Z</time>
      </trkpt>
      <trkpt lat="48.49808" lon="7.19165">
        <ele>569.6158</ele>
        <time>2025-02-27T15:04:51Z</time>
      </trkpt>
      <trkpt lat="48.49806" lon="7.19158">
        <ele>569.6158</ele>
        <time>2025-02-27T15:04:56Z</time>
      </trkpt>
      <trkpt lat="48.49803" lon="7.1915">
        <ele>569.6158</ele>
        <time>2025-02-27T15:05:01Z</time>
      </trkpt>
      <trkpt lat="48.49801" lon="7.19143">
        <ele>569.6158</ele>
        <time>2025-02-27T15:05:06Z</time>
      </trkpt>
      <trkpt lat="48.49798" lon="7.19136">
        <ele>569.6158</ele>
        <time>2025-02-27T15:05:10Z</time>
      </trkpt>
      <trkpt lat="48.49796" lon="7.1913">
        <ele>569.6158</ele>
        <time>2025-02-27T15:05:15Z</time>
      </trkpt>
      <trkpt lat="48.49793" lon="7.19124">
        <ele>569.6158</ele>
        <time>2025-02-27T15:05:20Z</time>
      </trkpt>
      <trkpt lat="48.4979" lon="7.19119">
        <ele>569.6158</ele>
        <time>2025-02-27T15:05:26Z</time>
      </trkpt>
      <trkpt lat="48.49788" lon="7.1911">
        <ele>569.6158</ele>
        <time>2025-02-27T15:05:49Z</time>
      </trkpt>
      <trkpt lat="48.49786" lon="7.19104">
        <ele>569.6158</ele>
        <time>2025-02-27T15:05:52Z</time>
      </trkpt>
      <trkpt lat="48.49783" lon="7.19098">
        <ele>569.6158</ele>
        <time>2025-02-27T15:05:54Z</time>
      </trkpt>
      <trkpt lat="48.4978" lon="7.19091">
        <ele>569.6158</ele>
        <time>2025-02-27T15:06:00Z</time>
      </trkpt>
      <trkpt lat="48.49777" lon="7.19084">
        <ele>569.6158</ele>
        <time>2025-02-27T15:06:05Z</time>
      </trkpt>
      <trkpt lat="48.49775" lon="7.19077">
        <ele>569.6158</ele>
        <time>2025-02-27T15:06:10Z</time>
      </trkpt>
      <trkpt lat="48.49772" lon="7.1907">
        <ele>569.6158</ele>
        <time>2025-02-27T15:06:15Z</time>
      </trkpt>
      <trkpt lat="48.49769" lon="7.19063">
        <ele>569.6158</ele>
        <time>2025-02-27T15:06:19Z</time>
      </trkpt>
      <trkpt lat="48.49765" lon="7.19057">
        <ele>569.6158</ele>
        <time>2025-02-27T15:06:24Z</time>
      </trkpt>
      <trkpt lat="48.49764" lon="7.1905">
        <ele>569.6158</ele>
        <time>2025-02-27T15:06:28Z</time>
      </trkpt>
      <trkpt lat="48.4976" lon="7.19044">
        <ele>569.6158</ele>
        <time>2025-02-27T15:06:33Z</time>
      </trkpt>
      <trkpt lat="48.49756" lon="7.19038">
        <ele>569.6158</ele>
        <time>2025-02-27T15:06:37Z</time>
      </trkpt>
      <trkpt lat="48.49752" lon="7.19031">
        <ele>569.6158</ele>
        <time>2025-02-27T15:06:42Z</time>
      </trkpt>
      <trkpt lat="48.49751" lon="7.19023">
        <ele>569.6158</ele>
        <time>2025-02-27T15:06:48Z</time>
      </trkpt>
      <trkpt lat="48.49747" lon="7.19017">
        <ele>569.6158</ele>
        <time>2025-02-27T15:06:52Z</time>
      </trkpt>
      <trkpt lat="48.49747" lon="7.1901">
        <ele>569.6158</ele>
        <time>2025-02-27T15:06:59Z</time>
      </trkpt>
      <trkpt lat="48.49743" lon="7.19002">
        <ele>569.6158</ele>
        <time>2025-02-27T15:07:03Z</time>
      </trkpt>
      <trkpt lat="48.4974" lon="7.18995">
        <ele>569.6158</ele>
        <time>2025-02-27T15:07:08Z</time>
      </trkpt>
      <trkpt lat="48.49737" lon="7.18988">
        <ele>569.6158</ele>
        <time>2025-02-27T15:07:13Z</time>
      </trkpt>
      <trkpt lat="48.49736" lon="7.18981">
        <ele>569.6158</ele>
        <time>2025-02-27T15:07:17Z</time>
      </trkpt>
      <trkpt lat="48.49733" lon="7.18974">
        <ele>569.6158</ele>
        <time>2025-02-27T15:07:22Z</time>
      </trkpt>
      <trkpt lat="48.4973" lon="7.18968">
        <ele>569.6158</ele>
        <time>2025-02-27T15:07:30Z</time>
      </trkpt>
      <trkpt lat="48.49728" lon="7.18962">
        <ele>569.6158</ele>
        <time>2025-02-27T15:07:37Z</time>
      </trkpt>
      <trkpt lat="48.49727" lon="7.18956">
        <ele>569.6158</ele>
        <time>2025-02-27T15:07:40Z</time>
      </trkpt>
      <trkpt lat="48.49727" lon="7.18949">
        <ele>569.6158</ele>
        <time>2025-02-27T15:07:44Z</time>
      </trkpt>
      <trkpt lat="48.49724" lon="7.1894">
        <ele>569.6158</ele>
        <time>2025-02-27T15:07:52Z</time>
      </trkpt>
      <trkpt lat="48.49722" lon="7.18933">
        <ele>569.6158</ele>
        <time>2025-02-27T15:07:57Z</time>
      </trkpt>
      <trkpt lat="48.4972" lon="7.18925">
        <ele>569.6158</ele>
        <time>2025-02-27T15:08:02Z</time>
      </trkpt>
      <trkpt lat="48.49718" lon="7.18918">
        <ele>569.6158</ele>
        <time>2025-02-27T15:08:09Z</time>
      </trkpt>
      <trkpt lat="48.49716" lon="7.18912">
        <ele>569.6158</ele>
        <time>2025-02-27T15:08:13Z</time>
      </trkpt>
      <trkpt lat="48.49714" lon="7.18905">
        <ele>569.6158</ele>
        <time>2025-02-27T15:08:17Z</time>
      </trkpt>
      <trkpt lat="48.49712" lon="7.18897">
        <ele>569.6158</ele>
        <time>2025-02-27T15:08:22Z</time>
      </trkpt>
      <trkpt lat="48.49711" lon="7.1889">
        <ele>569.6158</ele>
        <time>2025-02-27T15:08:27Z</time>
      </trkpt>
      <trkpt lat="48.49709" lon="7.18882">
        <ele>569.6158</ele>
        <time>2025-02-27T15:08:32Z</time>
      </trkpt>
      <trkpt lat="48.49707" lon="7.18876">
        <ele>569.6158</ele>
        <time>2025-02-27T15:08:36Z</time>
      </trkpt>
      <trkpt lat="48.49704" lon="7.1887">
        <ele>569.6158</ele>
        <time>2025-02-27T15:08:39Z</time>
      </trkpt>
      <trkpt lat="48.49701" lon="7.18862">
        <ele>569.6158</ele>
        <time>2025-02-27T15:08:44Z</time>
      </trkpt>
      <trkpt lat="48.497" lon="7.18855">
        <ele>569.6158</ele>
        <time>2025-02-27T15:08:49Z</time>
      </trkpt>
      <trkpt lat="48.49699" lon="7.18848">
        <ele>569.6158</ele>
        <time>2025-02-27T15:08:53Z</time>
      </trkpt>
      <trkpt lat="48.49697" lon="7.18841">
        <ele>569.6158</ele>
        <time>2025-02-27T15:08:57Z</time>
      </trkpt>
      <trkpt lat="48.49696" lon="7.18834">
        <ele>569.6158</ele>
        <time>2025-02-27T15:09:01Z</time>
      </trkpt>
      <trkpt lat="48.49694" lon="7.18827">
        <ele>569.6158</ele>
        <time>2025-02-27T15:09:05Z</time>
      </trkpt>
      <trkpt lat="48.49693" lon="7.1882">
        <ele>569.6158</ele>
        <time>2025-02-27T15:09:09Z</time>
      </trkpt>
      <trkpt lat="48.4969" lon="7.18813">
        <ele>569.6158</ele>
        <time>2025-02-27T15:09:13Z</time>
      </trkpt>
      <trkpt lat="48.4969" lon="7.18805">
        <ele>569.6158</ele>
        <time>2025-02-27T15:09:19Z</time>
      </trkpt>
      <trkpt lat="48.49689" lon="7.18797">
        <ele>569.6158</ele>
        <time>2025-02-27T15:09:23Z</time>
      </trkpt>
      <trkpt lat="48.4969" lon="7.1879">
        <ele>569.6158</ele>
        <time>2025-02-27T15:09:28Z</time>
      </trkpt>
      <trkpt lat="48.49688" lon="7.18782">
        <ele>569.6158</ele>
        <time>2025-02-27T15:09:33Z</time>
      </trkpt>
      <trkpt lat="48.4969" lon="7.18775">
        <ele>569.6158</ele>
        <time>2025-02-27T15:09:38Z</time>
      </trkpt>
      <trkpt lat="48.49689" lon="7.18767">
        <ele>569.6158</ele>
        <time>2025-02-27T15:09:42Z</time>
      </trkpt>
      <trkpt lat="48.49689" lon="7.1876">
        <ele>569.6158</ele>
        <time>2025-02-27T15:09:45Z</time>
      </trkpt>
      <trkpt lat="48.4969" lon="7.18752">
        <ele>569.6158</ele>
        <time>2025-02-27T15:09:48Z</time>
      </trkpt>
      <trkpt lat="48.49691" lon="7.18745">
        <ele>569.6158</ele>
        <time>2025-02-27T15:09:53Z</time>
      </trkpt>
      <trkpt lat="48.49692" lon="7.18738">
        <ele>569.6158</ele>
        <time>2025-02-27T15:09:57Z</time>
      </trkpt>
      <trkpt lat="48.49693" lon="7.18731">
        <ele>569.6158</ele>
        <time>2025-02-27T15:10:01Z</time>
      </trkpt>
      <trkpt lat="48.49695" lon="7.18723">
        <ele>569.6158</ele>
        <time>2025-02-27T15:10:06Z</time>
      </trkpt>
      <trkpt lat="48.49695" lon="7.18716">
        <ele>569.6158</ele>
        <time>2025-02-27T15:10:10Z</time>
      </trkpt>
      <trkpt lat="48.49694" lon="7.18709">
        <ele>569.6158</ele>
        <time>2025-02-27T15:10:14Z</time>
      </trkpt>
      <trkpt lat="48.49696" lon="7.18702">
        <ele>569.6158</ele>
        <time>2025-02-27T15:10:18Z</time>
      </trkpt>
      <trkpt lat="48.49696" lon="7.18695">
        <ele>569.6158</ele>
        <time>2025-02-27T15:10:22Z</time>
      </trkpt>
      <trkpt lat="48.49696" lon="7.18686">
        <ele>569.6158</ele>
        <time>2025-02-27T15:10:27Z</time>
      </trkpt>
      <trkpt lat="48.49698" lon="7.18678">
        <ele>569.6158</ele>
        <time>2025-02-27T15:10:32Z</time>
      </trkpt>
      <trkpt lat="48.49699" lon="7.18671">
        <ele>569.6158</ele>
        <time>2025-02-27T15:10:36Z</time>
      </trkpt>
      <trkpt lat="48.49701" lon="7.18664">
        <ele>569.6158</ele>
        <time>2025-02-27T15:10:41Z</time>
      </trkpt>
      <trkpt lat="48.49702" lon="7.18656">
        <ele>569.6158</ele>
        <time>2025-02-27T15:10:46Z</time>
      </trkpt>
      <trkpt lat="48.49703" lon="7.1865">
        <ele>569.6158</ele>
        <time>2025-02-27T15:10:50Z</time>
      </trkpt>
      <trkpt lat="48.49704" lon="7.18642">
        <ele>569.6158</ele>
        <time>2025-02-27T15:10:55Z</time>
      </trkpt>
      <trkpt lat="48.49705" lon="7.18635">
        <ele>569.6158</ele>
        <time>2025-02-27T15:10:59Z</time>
      </trkpt>
      <trkpt lat="48.49706" lon="7.18629">
        <ele>569.6158</ele>
        <time>2025-02-27T15:11:02Z</time>
      </trkpt>
      <trkpt lat="48.49707" lon="7.18622">
        <ele>569.6158</ele>
        <time>2025-02-27T15:11:07Z</time>
      </trkpt>
      <trkpt lat="48.49709" lon="7.18614">
        <ele>569.6158</ele>
        <time>2025-02-27T15:11:11Z</time>
      </trkpt>
      <trkpt lat="48.49711" lon="7.18606">
        <ele>569.6158</ele>
        <time>2025-02-27T15:11:16Z</time>
      </trkpt>
      <trkpt lat="48.49711" lon="7.18597">
        <ele>569.6158</ele>
        <time>2025-02-27T15:11:21Z</time>
      </trkpt>
      <trkpt lat="48.49712" lon="7.1859">
        <ele>569.6158</ele>
        <time>2025-02-27T15:11:25Z</time>
      </trkpt>
      <trkpt lat="48.49712" lon="7.18583">
        <ele>569.6158</ele>
        <time>2025-02-27T15:11:29Z</time>
      </trkpt>
      <trkpt lat="48.49713" lon="7.18575">
        <ele>569.6158</ele>
        <time>2025-02-27T15:11:33Z</time>
      </trkpt>
      <trkpt lat="48.49715" lon="7.18567">
        <ele>569.6158</ele>
        <time>2025-02-27T15:11:37Z</time>
      </trkpt>
      <trkpt lat="48.49717" lon="7.18559">
        <ele>569.6158</ele>
        <time>2025-02-27T15:11:43Z</time>
      </trkpt>
      <trkpt lat="48.49719" lon="7.18553">
        <ele>567.3679</ele>
        <time>2025-02-27T15:11:48Z</time>
      </trkpt>
      <trkpt lat="48.49721" lon="7.18546">
        <ele>565.12</ele>
        <time>2025-02-27T15:11:53Z</time>
      </trkpt>
      <trkpt lat="48.49723" lon="7.18539">
        <ele>562.87213</ele>
        <time>2025-02-27T15:11:57Z</time>
      </trkpt>
      <trkpt lat="48.49725" lon="7.18531">
        <ele>560.6242</ele>
        <time>2025-02-27T15:12:02Z</time>
      </trkpt>
      <trkpt lat="48.49725" lon="7.18523">
        <ele>558.37634</ele>
        <time>2025-02-27T15:12:06Z</time>
      </trkpt>
      <trkpt lat="48.49725" lon="7.18516">
        <ele>558.37634</ele>
        <time>2025-02-27T15:12:10Z</time>
      </trkpt>
      <trkpt lat="48.49726" lon="7.18509">
        <ele>558.37634</ele>
        <time>2025-02-27T15:12:14Z</time>
      </trkpt>
      <trkpt lat="48.49728" lon="7.18502">
        <ele>558.37634</ele>
        <time>2025-02-27T15:12:18Z</time>
      </trkpt>
      <trkpt lat="48.49731" lon="7.18493">
        <ele>558.37634</ele>
        <time>2025-02-27T15:12:24Z</time>
      </trkpt>
      <trkpt lat="48.49734" lon="7.18487">
        <ele>558.37634</ele>
        <time>2025-02-27T15:12:29Z</time>
      </trkpt>
      <trkpt lat="48.49736" lon="7.18481">
        <ele>558.37634</ele>
        <time>2025-02-27T15:12:33Z</time>
      </trkpt>
      <trkpt lat="48.49739" lon="7.18474">
        <ele>558.37634</ele>
        <time>2025-02-27T15:12:37Z</time>
      </trkpt>
      <trkpt lat="48.49742" lon="7.18468">
        <ele>558.37634</ele>
        <time>2025-02-27T15:12:41Z</time>
      </trkpt>
      <trkpt lat="48.49744" lon="7.18462">
        <ele>558.37634</ele>
        <time>2025-02-27T15:12:45Z</time>
      </trkpt>
      <trkpt lat="48.49748" lon="7.18455">
        <ele>558.37634</ele>
        <time>2025-02-27T15:12:49Z</time>
      </trkpt>
      <trkpt lat="48.49751" lon="7.18449">
        <ele>558.37634</ele>
        <time>2025-02-27T15:12:54Z</time>
      </trkpt>
      <trkpt lat="48.49756" lon="7.18447">
        <ele>558.37634</ele>
        <time>2025-02-27T15:12:58Z</time>
      </trkpt>
      <trkpt lat="48.49761" lon="7.18445">
        <ele>558.37634</ele>
        <time>2025-02-27T15:13:02Z</time>
      </trkpt>
      <trkpt lat="48.49763" lon="7.18438">
        <ele>558.37634</ele>
        <time>2025-02-27T15:13:06Z</time>
      </trkpt>
      <trkpt lat="48.49767" lon="7.18434">
        <ele>558.37634</ele>
        <time>2025-02-27T15:13:10Z</time>
      </trkpt>
      <trkpt lat="48.49771" lon="7.1843">
        <ele>558.37634</ele>
        <time>2025-02-27T15:13:15Z</time>
      </trkpt>
      <trkpt lat="48.49776" lon="7.18428">
        <ele>558.37634</ele>
        <time>2025-02-27T15:13:19Z</time>
      </trkpt>
      <trkpt lat="48.4978" lon="7.18424">
        <ele>558.37634</ele>
        <time>2025-02-27T15:13:23Z</time>
      </trkpt>
      <trkpt lat="48.49784" lon="7.18421">
        <ele>558.37634</ele>
        <time>2025-02-27T15:13:27Z</time>
      </trkpt>
      <trkpt lat="48.49789" lon="7.18418">
        <ele>558.37634</ele>
        <time>2025-02-27T15:13:31Z</time>
      </trkpt>
      <trkpt lat="48.49795" lon="7.18415">
        <ele>558.37634</ele>
        <time>2025-02-27T15:13:35Z</time>
      </trkpt>
      <trkpt lat="48.498" lon="7.18412">
        <ele>558.37634</ele>
        <time>2025-02-27T15:13:41Z</time>
      </trkpt>
      <trkpt lat="48.49806" lon="7.18409">
        <ele>558.37634</ele>
        <time>2025-02-27T15:13:46Z</time>
      </trkpt>
      <trkpt lat="48.49811" lon="7.18407">
        <ele>558.37634</ele>
        <time>2025-02-27T15:13:51Z</time>
      </trkpt>
      <trkpt lat="48.49816" lon="7.18405">
        <ele>558.37634</ele>
        <time>2025-02-27T15:13:55Z</time>
      </trkpt>
      <trkpt lat="48.4982" lon="7.18402">
        <ele>558.37634</ele>
        <time>2025-02-27T15:13:59Z</time>
      </trkpt>
      <trkpt lat="48.49825" lon="7.18399">
        <ele>558.37634</ele>
        <time>2025-02-27T15:14:04Z</time>
      </trkpt>
      <trkpt lat="48.4983" lon="7.18395">
        <ele>558.37634</ele>
        <time>2025-02-27T15:14:10Z</time>
      </trkpt>
      <trkpt lat="48.49835" lon="7.18391">
        <ele>558.37634</ele>
        <time>2025-02-27T15:14:15Z</time>
      </trkpt>
      <trkpt lat="48.49839" lon="7.1839">
        <ele>558.37634</ele>
        <time>2025-02-27T15:14:19Z</time>
      </trkpt>
      <trkpt lat="48.49845" lon="7.18389">
        <ele>558.37634</ele>
        <time>2025-02-27T15:14:23Z</time>
      </trkpt>
      <trkpt lat="48.49849" lon="7.18387">
        <ele>558.37634</ele>
        <time>2025-02-27T15:14:27Z</time>
      </trkpt>
      <trkpt lat="48.49855" lon="7.18387">
        <ele>558.37634</ele>
        <time>2025-02-27T15:14:31Z</time>
      </trkpt>
      <trkpt lat="48.49859" lon="7.18383">
        <ele>558.37634</ele>
        <time>2025-02-27T15:14:35Z</time>
      </trkpt>
      <trkpt lat="48.49864" lon="7.1838">
        <ele>558.37634</ele>
        <time>2025-02-27T15:14:39Z</time>
      </trkpt>
      <trkpt lat="48.49868" lon="7.18379">
        <ele>558.37634</ele>
        <time>2025-02-27T15:14:43Z</time>
      </trkpt>
      <trkpt lat="48.49873" lon="7.18377">
        <ele>558.37634</ele>
        <time>2025-02-27T15:14:47Z</time>
      </trkpt>
      <trkpt lat="48.49878" lon="7.18374">
        <ele>558.37634</ele>
        <time>2025-02-27T15:14:52Z</time>
      </trkpt>
      <trkpt lat="48.49882" lon="7.18372">
        <ele>558.37634</ele>
        <time>2025-02-27T15:14:56Z</time>
      </trkpt>
      <trkpt lat="48.49886" lon="7.1837">
        <ele>558.37634</ele>
        <time>2025-02-27T15:15:00Z</time>
      </trkpt>
      <trkpt lat="48.49891" lon="7.18367">
        <ele>558.37634</ele>
        <time>2025-02-27T15:15:05Z</time>
      </trkpt>
      <trkpt lat="48.49896" lon="7.18365">
        <ele>558.37634</ele>
        <time>2025-02-27T15:15:09Z</time>
      </trkpt>
      <trkpt lat="48.49901" lon="7.18364">
        <ele>558.37634</ele>
        <time>2025-02-27T15:15:14Z</time>
      </trkpt>
      <trkpt lat="48.49907" lon="7.18364">
        <ele>558.37634</ele>
        <time>2025-02-27T15:15:19Z</time>
      </trkpt>
      <trkpt lat="48.49912" lon="7.18362">
        <ele>558.37634</ele>
        <time>2025-02-27T15:15:24Z</time>
      </trkpt>
      <trkpt lat="48.49918" lon="7.18361">
        <ele>558.37634</ele>
        <time>2025-02-27T15:15:29Z</time>
      </trkpt>
      <trkpt lat="48.49923" lon="7.18361">
        <ele>558.37634</ele>
        <time>2025-02-27T15:15:33Z</time>
      </trkpt>
      <trkpt lat="48.49928" lon="7.18363">
        <ele>558.37634</ele>
        <time>2025-02-27T15:15:37Z</time>
      </trkpt>
      <trkpt lat="48.49933" lon="7.18363">
        <ele>558.37634</ele>
        <time>2025-02-27T15:15:42Z</time>
      </trkpt>
      <trkpt lat="48.49937" lon="7.18367">
        <ele>558.37634</ele>
        <time>2025-02-27T15:15:47Z</time>
      </trkpt>
      <trkpt lat="48.49942" lon="7.1837">
        <ele>558.37634</ele>
        <time>2025-02-27T15:15:51Z</time>
      </trkpt>
      <trkpt lat="48.49947" lon="7.18373">
        <ele>558.37634</ele>
        <time>2025-02-27T15:15:55Z</time>
      </trkpt>
      <trkpt lat="48.49952" lon="7.18376">
        <ele>558.37634</ele>
        <time>2025-02-27T15:16:00Z</time>
      </trkpt>
      <trkpt lat="48.49955" lon="7.18381">
        <ele>558.37634</ele>
        <time>2025-02-27T15:16:05Z</time>
      </trkpt>
      <trkpt lat="48.49961" lon="7.18381">
        <ele>558.37634</ele>
        <time>2025-02-27T15:16:09Z</time>
      </trkpt>
      <trkpt lat="48.49965" lon="7.18382">
        <ele>558.37634</ele>
        <time>2025-02-27T15:16:14Z</time>
      </trkpt>
      <trkpt lat="48.49968" lon="7.18376">
        <ele>558.37634</ele>
        <time>2025-02-27T15:16:25Z</time>
      </trkpt>
      <trkpt lat="48.49967" lon="7.18368">
        <ele>558.37634</ele>
        <time>2025-02-27T15:16:28Z</time>
      </trkpt>
      <trkpt lat="48.49968" lon="7.18359">
        <ele>558.37634</ele>
        <time>2025-02-27T15:16:29Z</time>
      </trkpt>
      <trkpt lat="48.49971" lon="7.18352">
        <ele>558.37634</ele>
        <time>2025-02-27T15:17:54Z</time>
      </trkpt>
      <trkpt lat="48.49972" lon="7.18342">
        <ele>558.37634</ele>
        <time>2025-02-27T15:18:00Z</time>
      </trkpt>
      <trkpt lat="48.49973" lon="7.18333">
        <ele>558.37634</ele>
        <time>2025-02-27T15:18:05Z</time>
      </trkpt>
      <trkpt lat="48.49969" lon="7.18326">
        <ele>558.37634</ele>
        <time>2025-02-27T15:18:09Z</time>
      </trkpt>
      <trkpt lat="48.49969" lon="7.18318">
        <ele>558.37634</ele>
        <time>2025-02-27T15:18:12Z</time>
      </trkpt>
      <trkpt lat="48.4997" lon="7.18311">
        <ele>558.37634</ele>
        <time>2025-02-27T15:18:19Z</time>
      </trkpt>
      <trkpt lat="48.4997" lon="7.18304">
        <ele>558.37634</ele>
        <time>2025-02-27T15:18:25Z</time>
      </trkpt>
      <trkpt lat="48.49973" lon="7.18299">
        <ele>556.3149</ele>
        <time>2025-02-27T15:18:29Z</time>
      </trkpt>
      <trkpt lat="48.49974" lon="7.18291">
        <ele>554.2535</ele>
        <time>2025-02-27T15:18:33Z</time>
      </trkpt>
      <trkpt lat="48.49976" lon="7.18285">
        <ele>552.192</ele>
        <time>2025-02-27T15:18:40Z</time>
      </trkpt>
      <trkpt lat="48.49977" lon="7.18278">
        <ele>550.1306</ele>
        <time>2025-02-27T15:18:44Z</time>
      </trkpt>
      <trkpt lat="48.49978" lon="7.18271">
        <ele>548.06915</ele>
        <time>2025-02-27T15:18:47Z</time>
      </trkpt>
      <trkpt lat="48.49979" lon="7.18264">
        <ele>548.06915</ele>
        <time>2025-02-27T15:18:53Z</time>
      </trkpt>
      <trkpt lat="48.49979" lon="7.18257">
        <ele>548.06915</ele>
        <time>2025-02-27T15:19:40Z</time>
      </trkpt>
      <trkpt lat="48.49974" lon="7.18258">
        <ele>548.06915</ele>
        <time>2025-02-27T15:19:54Z</time>
      </trkpt>
      <trkpt lat="48.49979" lon="7.18256">
        <ele>548.06915</ele>
        <time>2025-02-27T15:20:03Z</time>
      </trkpt>
      <trkpt lat="48.49981" lon="7.1825">
        <ele>548.06915</ele>
        <time>2025-02-27T15:20:19Z</time>
      </trkpt>
      <trkpt lat="48.49976" lon="7.1825">
        <ele>548.06915</ele>
        <time>2025-02-27T15:20:37Z</time>
      </trkpt>
      <trkpt lat="48.49972" lon="7.18252">
        <ele>548.06915</ele>
        <time>2025-02-27T15:20:58Z</time>
      </trkpt>
      <trkpt lat="48.49967" lon="7.1825">
        <ele>548.06915</ele>
        <time>2025-02-27T15:21:02Z</time>
      </trkpt>
      <trkpt lat="48.49962" lon="7.18251">
        <ele>548.06915</ele>
        <time>2025-02-27T15:21:40Z</time>
      </trkpt>
      <trkpt lat="48.49958" lon="7.18248">
        <ele>548.06915</ele>
        <time>2025-02-27T15:21:51Z</time>
      </trkpt>
      <trkpt lat="48.49954" lon="7.18244">
        <ele>548.06915</ele>
        <time>2025-02-27T15:21:58Z</time>
      </trkpt>
      <trkpt lat="48.49949" lon="7.18247">
        <ele>548.06915</ele>
        <time>2025-02-27T15:22:03Z</time>
      </trkpt>
      <trkpt lat="48.49945" lon="7.18248">
        <ele>548.06915</ele>
        <time>2025-02-27T15:22:09Z</time>
      </trkpt>
      <trkpt lat="48.4994" lon="7.18246">
        <ele>548.06915</ele>
        <time>2025-02-27T15:22:16Z</time>
      </trkpt>
      <trkpt lat="48.49935" lon="7.18248">
        <ele>548.06915</ele>
        <time>2025-02-27T15:22:21Z</time>
      </trkpt>
      <trkpt lat="48.4993" lon="7.18249">
        <ele>548.06915</ele>
        <time>2025-02-27T15:22:36Z</time>
      </trkpt>
      <trkpt lat="48.49925" lon="7.1825">
        <ele>548.06915</ele>
        <time>2025-02-27T15:22:42Z</time>
      </trkpt>
      <trkpt lat="48.4992" lon="7.1825">
        <ele>548.06915</ele>
        <time>2025-02-27T15:22:46Z</time>
      </trkpt>
      <trkpt lat="48.49915" lon="7.1825">
        <ele>548.06915</ele>
        <time>2025-02-27T15:22:51Z</time>
      </trkpt>
      <trkpt lat="48.4991" lon="7.18251">
        <ele>545.77246</ele>
        <time>2025-02-27T15:22:56Z</time>
      </trkpt>
      <trkpt lat="48.49905" lon="7.18251">
        <ele>543.4757</ele>
        <time>2025-02-27T15:23:02Z</time>
      </trkpt>
      <trkpt lat="48.499" lon="7.18252">
        <ele>541.179</ele>
        <time>2025-02-27T15:23:07Z</time>
      </trkpt>
      <trkpt lat="48.49894" lon="7.18252">
        <ele>538.88226</ele>
        <time>2025-02-27T15:23:12Z</time>
      </trkpt>
      <trkpt lat="48.49889" lon="7.18253">
        <ele>536.5856</ele>
        <time>2025-02-27T15:23:18Z</time>
      </trkpt>
      <trkpt lat="48.49885" lon="7.18254">
        <ele>536.5856</ele>
        <time>2025-02-27T15:23:23Z</time>
      </trkpt>
      <trkpt lat="48.4988" lon="7.18256">
        <ele>536.5856</ele>
        <time>2025-02-27T15:23:28Z</time>
      </trkpt>
      <trkpt lat="48.49875" lon="7.18258">
        <ele>536.5856</ele>
        <time>2025-02-27T15:23:33Z</time>
      </trkpt>
      <trkpt lat="48.4987" lon="7.1826">
        <ele>536.5856</ele>
        <time>2025-02-27T15:23:38Z</time>
      </trkpt>
      <trkpt lat="48.49866" lon="7.18262">
        <ele>536.5856</ele>
        <time>2025-02-27T15:23:43Z</time>
      </trkpt>
      <trkpt lat="48.49861" lon="7.18263">
        <ele>536.5856</ele>
        <time>2025-02-27T15:23:48Z</time>
      </trkpt>
      <trkpt lat="48.49855" lon="7.18265">
        <ele>536.5856</ele>
        <time>2025-02-27T15:23:53Z</time>
      </trkpt>
      <trkpt lat="48.49851" lon="7.18267">
        <ele>536.5856</ele>
        <time>2025-02-27T15:23:59Z</time>
      </trkpt>
      <trkpt lat="48.49846" lon="7.18268">
        <ele>536.5856</ele>
        <time>2025-02-27T15:24:05Z</time>
      </trkpt>
      <trkpt lat="48.49841" lon="7.18272">
        <ele>536.5856</ele>
        <time>2025-02-27T15:24:17Z</time>
      </trkpt>
      <trkpt lat="48.49836" lon="7.18272">
        <ele>536.5856</ele>
        <time>2025-02-27T15:24:22Z</time>
      </trkpt>
      <trkpt lat="48.49831" lon="7.18272">
        <ele>536.5856</ele>
        <time>2025-02-27T15:24:27Z</time>
      </trkpt>
      <trkpt lat="48.49826" lon="7.18273">
        <ele>536.5856</ele>
        <time>2025-02-27T15:24:32Z</time>
      </trkpt>
      <trkpt lat="48.49822" lon="7.1827">
        <ele>536.5856</ele>
        <time>2025-02-27T15:24:36Z</time>
      </trkpt>
      <trkpt lat="48.49817" lon="7.18271">
        <ele>536.5856</ele>
        <time>2025-02-27T15:24:45Z</time>
      </trkpt>
      <trkpt lat="48.49812" lon="7.18272">
        <ele>536.5856</ele>
        <time>2025-02-27T15:24:55Z</time>
      </trkpt>
      <trkpt lat="48.49806" lon="7.18272">
        <ele>536.5856</ele>
        <time>2025-02-27T15:24:59Z</time>
      </trkpt>
      <trkpt lat="48.49801" lon="7.18273">
        <ele>536.5856</ele>
        <time>2025-02-27T15:25:04Z</time>
      </trkpt>
      <trkpt lat="48.49796" lon="7.18274">
        <ele>536.5856</ele>
        <time>2025-02-27T15:25:10Z</time>
      </trkpt>
      <trkpt lat="48.49791" lon="7.18275">
        <ele>536.5856</ele>
        <time>2025-02-27T15:25:16Z</time>
      </trkpt>
      <trkpt lat="48.49786" lon="7.18276">
        <ele>536.5856</ele>
        <time>2025-02-27T15:25:26Z</time>
      </trkpt>
      <trkpt lat="48.49782" lon="7.18278">
        <ele>534.55554</ele>
        <time>2025-02-27T15:25:30Z</time>
      </trkpt>
      <trkpt lat="48.49778" lon="7.18281">
        <ele>532.5255</ele>
        <time>2025-02-27T15:25:38Z</time>
      </trkpt>
      <trkpt lat="48.49773" lon="7.18276">
        <ele>530.4954</ele>
        <time>2025-02-27T15:25:44Z</time>
      </trkpt>
      <trkpt lat="48.49766" lon="7.18265">
        <ele>528.4654</ele>
        <time>2025-02-27T15:25:47Z</time>
      </trkpt>
      <trkpt lat="48.49762" lon="7.18262">
        <ele>526.43536</ele>
        <time>2025-02-27T15:25:51Z</time>
      </trkpt>
      <trkpt lat="48.49757" lon="7.18262">
        <ele>526.43536</ele>
        <time>2025-02-27T15:25:57Z</time>
      </trkpt>
      <trkpt lat="48.49751" lon="7.1826">
        <ele>526.43536</ele>
        <time>2025-02-27T15:26:02Z</time>
      </trkpt>
      <trkpt lat="48.49747" lon="7.18258">
        <ele>526.43536</ele>
        <time>2025-02-27T15:26:06Z</time>
      </trkpt>
      <trkpt lat="48.49742" lon="7.18256">
        <ele>526.43536</ele>
        <time>2025-02-27T15:26:10Z</time>
      </trkpt>
      <trkpt lat="48.49738" lon="7.18253">
        <ele>526.43536</ele>
        <time>2025-02-27T15:26:16Z</time>
      </trkpt>
      <trkpt lat="48.49733" lon="7.18251">
        <ele>526.43536</ele>
        <time>2025-02-27T15:26:20Z</time>
      </trkpt>
      <trkpt lat="48.49729" lon="7.18248">
        <ele>526.43536</ele>
        <time>2025-02-27T15:26:24Z</time>
      </trkpt>
      <trkpt lat="48.49724" lon="7.18246">
        <ele>526.43536</ele>
        <time>2025-02-27T15:26:27Z</time>
      </trkpt>
      <trkpt lat="48.49719" lon="7.18243">
        <ele>526.43536</ele>
        <time>2025-02-27T15:26:33Z</time>
      </trkpt>
      <trkpt lat="48.49715" lon="7.18237">
        <ele>526.43536</ele>
        <time>2025-02-27T15:26:37Z</time>
      </trkpt>
      <trkpt lat="48.49711" lon="7.18234">
        <ele>526.43536</ele>
        <time>2025-02-27T15:26:42Z</time>
      </trkpt>
      <trkpt lat="48.49707" lon="7.18228">
        <ele>526.43536</ele>
        <time>2025-02-27T15:26:46Z</time>
      </trkpt>
      <trkpt lat="48.49702" lon="7.18226">
        <ele>526.43536</ele>
        <time>2025-02-27T15:26:51Z</time>
      </trkpt>
      <trkpt lat="48.49698" lon="7.18224">
        <ele>526.43536</ele>
        <time>2025-02-27T15:26:56Z</time>
      </trkpt>
      <trkpt lat="48.49693" lon="7.18224">
        <ele>526.43536</ele>
        <time>2025-02-27T15:27:02Z</time>
      </trkpt>
      <trkpt lat="48.49688" lon="7.18219">
        <ele>526.43536</ele>
        <time>2025-02-27T15:27:07Z</time>
      </trkpt>
      <trkpt lat="48.49684" lon="7.18216">
        <ele>526.43536</ele>
        <time>2025-02-27T15:27:12Z</time>
      </trkpt>
      <trkpt lat="48.49679" lon="7.18214">
        <ele>526.43536</ele>
        <time>2025-02-27T15:27:17Z</time>
      </trkpt>
      <trkpt lat="48.49673" lon="7.1821">
        <ele>526.43536</ele>
        <time>2025-02-27T15:27:22Z</time>
      </trkpt>
      <trkpt lat="48.49667" lon="7.18209">
        <ele>526.43536</ele>
        <time>2025-02-27T15:27:27Z</time>
      </trkpt>
      <trkpt lat="48.49662" lon="7.18206">
        <ele>526.43536</ele>
        <time>2025-02-27T15:27:33Z</time>
      </trkpt>
      <trkpt lat="48.49658" lon="7.18203">
        <ele>526.43536</ele>
        <time>2025-02-27T15:27:37Z</time>
      </trkpt>
      <trkpt lat="48.49653" lon="7.18199">
        <ele>526.43536</ele>
        <time>2025-02-27T15:27:44Z</time>
      </trkpt>
      <trkpt lat="48.4965" lon="7.1819">
        <ele>526.43536</ele>
        <time>2025-02-27T15:27:48Z</time>
      </trkpt>
      <trkpt lat="48.49645" lon="7.18194">
        <ele>526.43536</ele>
        <time>2025-02-27T15:27:52Z</time>
      </trkpt>
      <trkpt lat="48.4964" lon="7.18191">
        <ele>526.43536</ele>
        <time>2025-02-27T15:27:57Z</time>
      </trkpt>
      <trkpt lat="48.49637" lon="7.18188">
        <ele>528.5705</ele>
        <time>2025-02-27T15:28:01Z</time>
      </trkpt>
      <trkpt lat="48.49632" lon="7.18184">
        <ele>530.7056</ele>
        <time>2025-02-27T15:28:04Z</time>
      </trkpt>
      <trkpt lat="48.49628" lon="7.1818">
        <ele>532.84076</ele>
        <time>2025-02-27T15:28:08Z</time>
      </trkpt>
      <trkpt lat="48.49623" lon="7.18178">
        <ele>534.9759</ele>
        <time>2025-02-27T15:28:16Z</time>
      </trkpt>
      <trkpt lat="48.49619" lon="7.18176">
        <ele>537.111</ele>
        <time>2025-02-27T15:28:20Z</time>
      </trkpt>
      <trkpt lat="48.49614" lon="7.18176">
        <ele>537.111</ele>
        <time>2025-02-27T15:28:24Z</time>
      </trkpt>
      <trkpt lat="48.4961" lon="7.18173">
        <ele>537.111</ele>
        <time>2025-02-27T15:28:30Z</time>
      </trkpt>
      <trkpt lat="48.49604" lon="7.18173">
        <ele>537.111</ele>
        <time>2025-02-27T15:28:34Z</time>
      </trkpt>
      <trkpt lat="48.49599" lon="7.18173">
        <ele>537.111</ele>
        <time>2025-02-27T15:28:39Z</time>
      </trkpt>
      <trkpt lat="48.49594" lon="7.18173">
        <ele>537.111</ele>
        <time>2025-02-27T15:28:44Z</time>
      </trkpt>
      <trkpt lat="48.49589" lon="7.18175">
        <ele>537.111</ele>
        <time>2025-02-27T15:28:48Z</time>
      </trkpt>
      <trkpt lat="48.49585" lon="7.18175">
        <ele>537.111</ele>
        <time>2025-02-27T15:28:52Z</time>
      </trkpt>
      <trkpt lat="48.4958" lon="7.18178">
        <ele>537.111</ele>
        <time>2025-02-27T15:29:01Z</time>
      </trkpt>
      <trkpt lat="48.49575" lon="7.18181">
        <ele>537.111</ele>
        <time>2025-02-27T15:29:05Z</time>
      </trkpt>
      <trkpt lat="48.49569" lon="7.18183">
        <ele>537.111</ele>
        <time>2025-02-27T15:29:10Z</time>
      </trkpt>
      <trkpt lat="48.49564" lon="7.18186">
        <ele>537.111</ele>
        <time>2025-02-27T15:29:16Z</time>
      </trkpt>
      <trkpt lat="48.49559" lon="7.18185">
        <ele>537.111</ele>
        <time>2025-02-27T15:29:21Z</time>
      </trkpt>
      <trkpt lat="48.49555" lon="7.18187">
        <ele>537.111</ele>
        <time>2025-02-27T15:29:27Z</time>
      </trkpt>
      <trkpt lat="48.4955" lon="7.18189">
        <ele>537.111</ele>
        <time>2025-02-27T15:29:32Z</time>
      </trkpt>
      <trkpt lat="48.49545" lon="7.18192">
        <ele>537.111</ele>
        <time>2025-02-27T15:29:37Z</time>
      </trkpt>
      <trkpt lat="48.49541" lon="7.18194">
        <ele>537.111</ele>
        <time>2025-02-27T15:29:41Z</time>
      </trkpt>
      <trkpt lat="48.49536" lon="7.18196">
        <ele>537.111</ele>
        <time>2025-02-27T15:29:46Z</time>
      </trkpt>
      <trkpt lat="48.49532" lon="7.18199">
        <ele>537.111</ele>
        <time>2025-02-27T15:29:50Z</time>
      </trkpt>
      <trkpt lat="48.49527" lon="7.18201">
        <ele>537.111</ele>
        <time>2025-02-27T15:29:56Z</time>
      </trkpt>
      <trkpt lat="48.49521" lon="7.18202">
        <ele>537.111</ele>
        <time>2025-02-27T15:30:03Z</time>
      </trkpt>
      <trkpt lat="48.49517" lon="7.18206">
        <ele>537.111</ele>
        <time>2025-02-27T15:30:07Z</time>
      </trkpt>
      <trkpt lat="48.49512" lon="7.18207">
        <ele>537.111</ele>
        <time>2025-02-27T15:30:12Z</time>
      </trkpt>
      <trkpt lat="48.49506" lon="7.1821">
        <ele>537.111</ele>
        <time>2025-02-27T15:30:16Z</time>
      </trkpt>
      <trkpt lat="48.49502" lon="7.18214">
        <ele>537.111</ele>
        <time>2025-02-27T15:30:20Z</time>
      </trkpt>
      <trkpt lat="48.49497" lon="7.18216">
        <ele>537.111</ele>
        <time>2025-02-27T15:30:26Z</time>
      </trkpt>
      <trkpt lat="48.49492" lon="7.18214">
        <ele>537.111</ele>
        <time>2025-02-27T15:30:33Z</time>
      </trkpt>
      <trkpt lat="48.49486" lon="7.18214">
        <ele>537.111</ele>
        <time>2025-02-27T15:30:39Z</time>
      </trkpt>
      <trkpt lat="48.49482" lon="7.18212">
        <ele>537.111</ele>
        <time>2025-02-27T15:30:49Z</time>
      </trkpt>
      <trkpt lat="48.49482" lon="7.18205">
        <ele>537.111</ele>
        <time>2025-02-27T15:31:01Z</time>
      </trkpt>
      <trkpt lat="48.49477" lon="7.18199">
        <ele>540.2338</ele>
        <time>2025-02-27T15:32:50Z</time>
      </trkpt>
      <trkpt lat="48.49475" lon="7.18193">
        <ele>543.3566</ele>
        <time>2025-02-27T15:32:56Z</time>
      </trkpt>
      <trkpt lat="48.49472" lon="7.18186">
        <ele>546.4794</ele>
        <time>2025-02-27T15:33:01Z</time>
      </trkpt>
      <trkpt lat="48.49469" lon="7.1818">
        <ele>549.6022</ele>
        <time>2025-02-27T15:33:07Z</time>
      </trkpt>
      <trkpt lat="48.49465" lon="7.18176">
        <ele>552.725</ele>
        <time>2025-02-27T15:33:11Z</time>
      </trkpt>
      <trkpt lat="48.49461" lon="7.18171">
        <ele>552.725</ele>
        <time>2025-02-27T15:33:16Z</time>
      </trkpt>
      <trkpt lat="48.49458" lon="7.18164">
        <ele>552.725</ele>
        <time>2025-02-27T15:33:21Z</time>
      </trkpt>
      <trkpt lat="48.49456" lon="7.18158">
        <ele>552.725</ele>
        <time>2025-02-27T15:33:24Z</time>
      </trkpt>
      <trkpt lat="48.49453" lon="7.18152">
        <ele>552.725</ele>
        <time>2025-02-27T15:33:28Z</time>
      </trkpt>
      <trkpt lat="48.4945" lon="7.18145">
        <ele>552.725</ele>
        <time>2025-02-27T15:33:32Z</time>
      </trkpt>
      <trkpt lat="48.49447" lon="7.18139">
        <ele>552.725</ele>
        <time>2025-02-27T15:33:37Z</time>
      </trkpt>
      <trkpt lat="48.49444" lon="7.18132">
        <ele>552.725</ele>
        <time>2025-02-27T15:33:42Z</time>
      </trkpt>
      <trkpt lat="48.49441" lon="7.18126">
        <ele>552.725</ele>
        <time>2025-02-27T15:33:47Z</time>
      </trkpt>
      <trkpt lat="48.49439" lon="7.18121">
        <ele>552.725</ele>
        <time>2025-02-27T15:33:51Z</time>
      </trkpt>
      <trkpt lat="48.49436" lon="7.18114">
        <ele>552.725</ele>
        <time>2025-02-27T15:33:55Z</time>
      </trkpt>
      <trkpt lat="48.49433" lon="7.18106">
        <ele>552.725</ele>
        <time>2025-02-27T15:33:59Z</time>
      </trkpt>
      <trkpt lat="48.49431" lon="7.181">
        <ele>552.725</ele>
        <time>2025-02-27T15:34:04Z</time>
      </trkpt>
      <trkpt lat="48.49428" lon="7.18094">
        <ele>552.725</ele>
        <time>2025-02-27T15:34:08Z</time>
      </trkpt>
      <trkpt lat="48.49425" lon="7.18086">
        <ele>552.725</ele>
        <time>2025-02-27T15:34:13Z</time>
      </trkpt>
      <trkpt lat="48.49422" lon="7.18079">
        <ele>552.725</ele>
        <time>2025-02-27T15:34:18Z</time>
      </trkpt>
      <trkpt lat="48.49419" lon="7.18072">
        <ele>552.725</ele>
        <time>2025-02-27T15:34:22Z</time>
      </trkpt>
      <trkpt lat="48.49417" lon="7.18066">
        <ele>552.725</ele>
        <time>2025-02-27T15:34:26Z</time>
      </trkpt>
      <trkpt lat="48.49414" lon="7.18059">
        <ele>552.725</ele>
        <time>2025-02-27T15:34:30Z</time>
      </trkpt>
      <trkpt lat="48.49412" lon="7.18052">
        <ele>552.725</ele>
        <time>2025-02-27T15:34:35Z</time>
      </trkpt>
      <trkpt lat="48.4941" lon="7.18045">
        <ele>552.725</ele>
        <time>2025-02-27T15:34:39Z</time>
      </trkpt>
      <trkpt lat="48.49407" lon="7.1804">
        <ele>552.725</ele>
        <time>2025-02-27T15:34:43Z</time>
      </trkpt>
      <trkpt lat="48.49405" lon="7.18032">
        <ele>552.725</ele>
        <time>2025-02-27T15:34:48Z</time>
      </trkpt>
      <trkpt lat="48.49403" lon="7.18025">
        <ele>552.725</ele>
        <time>2025-02-27T15:34:53Z</time>
      </trkpt>
      <trkpt lat="48.49402" lon="7.18018">
        <ele>552.725</ele>
        <time>2025-02-27T15:34:58Z</time>
      </trkpt>
      <trkpt lat="48.494" lon="7.18012">
        <ele>552.725</ele>
        <time>2025-02-27T15:35:03Z</time>
      </trkpt>
      <trkpt lat="48.49398" lon="7.18004">
        <ele>552.725</ele>
        <time>2025-02-27T15:35:09Z</time>
      </trkpt>
      <trkpt lat="48.49396" lon="7.17997">
        <ele>552.725</ele>
        <time>2025-02-27T15:35:14Z</time>
      </trkpt>
      <trkpt lat="48.49395" lon="7.17989">
        <ele>552.725</ele>
        <time>2025-02-27T15:35:19Z</time>
      </trkpt>
      <trkpt lat="48.49393" lon="7.17982">
        <ele>552.725</ele>
        <time>2025-02-27T15:35:24Z</time>
      </trkpt>
      <trkpt lat="48.49392" lon="7.17975">
        <ele>552.725</ele>
        <time>2025-02-27T15:35:31Z</time>
      </trkpt>
      <trkpt lat="48.49391" lon="7.17968">
        <ele>552.725</ele>
        <time>2025-02-27T15:35:36Z</time>
      </trkpt>
      <trkpt lat="48.49391" lon="7.1796">
        <ele>552.725</ele>
        <time>2025-02-27T15:35:41Z</time>
      </trkpt>
      <trkpt lat="48.4939" lon="7.17953">
        <ele>552.725</ele>
        <time>2025-02-27T15:35:47Z</time>
      </trkpt>
      <trkpt lat="48.4939" lon="7.17945">
        <ele>552.725</ele>
        <time>2025-02-27T15:35:51Z</time>
      </trkpt>
      <trkpt lat="48.4939" lon="7.17938">
        <ele>552.725</ele>
        <time>2025-02-27T15:35:56Z</time>
      </trkpt>
      <trkpt lat="48.4939" lon="7.17931">
        <ele>552.725</ele>
        <time>2025-02-27T15:36:01Z</time>
      </trkpt>
      <trkpt lat="48.4939" lon="7.17924">
        <ele>552.725</ele>
        <time>2025-02-27T15:36:06Z</time>
      </trkpt>
      <trkpt lat="48.4939" lon="7.17916">
        <ele>552.725</ele>
        <time>2025-02-27T15:36:11Z</time>
      </trkpt>
      <trkpt lat="48.4939" lon="7.17909">
        <ele>554.78156</ele>
        <time>2025-02-27T15:36:21Z</time>
      </trkpt>
      <trkpt lat="48.49391" lon="7.17902">
        <ele>556.8382</ele>
        <time>2025-02-27T15:36:26Z</time>
      </trkpt>
      <trkpt lat="48.49392" lon="7.17894">
        <ele>558.8948</ele>
        <time>2025-02-27T15:36:32Z</time>
      </trkpt>
      <trkpt lat="48.49393" lon="7.17886">
        <ele>560.9514</ele>
        <time>2025-02-27T15:36:37Z</time>
      </trkpt>
      <trkpt lat="48.49394" lon="7.17879">
        <ele>563.008</ele>
        <time>2025-02-27T15:36:42Z</time>
      </trkpt>
      <trkpt lat="48.49394" lon="7.17872">
        <ele>563.008</ele>
        <time>2025-02-27T15:36:47Z</time>
      </trkpt>
      <trkpt lat="48.49395" lon="7.17865">
        <ele>563.008</ele>
        <time>2025-02-27T15:36:52Z</time>
      </trkpt>
      <trkpt lat="48.49396" lon="7.17857">
        <ele>563.008</ele>
        <time>2025-02-27T15:36:57Z</time>
      </trkpt>
      <trkpt lat="48.49397" lon="7.1785">
        <ele>563.008</ele>
        <time>2025-02-27T15:37:02Z</time>
      </trkpt>
      <trkpt lat="48.49398" lon="7.17842">
        <ele>563.008</ele>
        <time>2025-02-27T15:37:09Z</time>
      </trkpt>
      <trkpt lat="48.49399" lon="7.17835">
        <ele>563.008</ele>
        <time>2025-02-27T15:37:15Z</time>
      </trkpt>
      <trkpt lat="48.494" lon="7.17828">
        <ele>563.008</ele>
        <time>2025-02-27T15:37:20Z</time>
      </trkpt>
      <trkpt lat="48.49402" lon="7.1782">
        <ele>563.008</ele>
        <time>2025-02-27T15:37:26Z</time>
      </trkpt>
      <trkpt lat="48.49403" lon="7.17813">
        <ele>563.008</ele>
        <time>2025-02-27T15:37:36Z</time>
      </trkpt>
      <trkpt lat="48.49404" lon="7.17805">
        <ele>563.008</ele>
        <time>2025-02-27T15:37:54Z</time>
      </trkpt>
      <trkpt lat="48.49406" lon="7.17797">
        <ele>563.008</ele>
        <time>2025-02-27T15:37:59Z</time>
      </trkpt>
      <trkpt lat="48.49406" lon="7.1779">
        <ele>563.008</ele>
        <time>2025-02-27T15:38:02Z</time>
      </trkpt>
      <trkpt lat="48.49408" lon="7.17783">
        <ele>563.008</ele>
        <time>2025-02-27T15:38:06Z</time>
      </trkpt>
      <trkpt lat="48.49409" lon="7.17776">
        <ele>563.008</ele>
        <time>2025-02-27T15:38:11Z</time>
      </trkpt>
      <trkpt lat="48.4941" lon="7.17768">
        <ele>563.008</ele>
        <time>2025-02-27T15:38:17Z</time>
      </trkpt>
      <trkpt lat="48.49411" lon="7.17761">
        <ele>563.008</ele>
        <time>2025-02-27T15:38:26Z</time>
      </trkpt>
      <trkpt lat="48.49413" lon="7.17752">
        <ele>563.008</ele>
        <time>2025-02-27T15:38:33Z</time>
      </trkpt>
      <trkpt lat="48.49414" lon="7.17744">
        <ele>563.008</ele>
        <time>2025-02-27T15:38:36Z</time>
      </trkpt>
      <trkpt lat="48.49416" lon="7.17737">
        <ele>563.008</ele>
        <time>2025-02-27T15:38:41Z</time>
      </trkpt>
      <trkpt lat="48.49418" lon="7.1773">
        <ele>563.008</ele>
        <time>2025-02-27T15:38:50Z</time>
      </trkpt>
      <trkpt lat="48.4942" lon="7.17723">
        <ele>565.14685</ele>
        <time>2025-02-27T15:38:54Z</time>
      </trkpt>
      <trkpt lat="48.49419" lon="7.17712">
        <ele>567.2857</ele>
        <time>2025-02-27T15:39:01Z</time>
      </trkpt>
      <trkpt lat="48.49416" lon="7.17706">
        <ele>569.4245</ele>
        <time>2025-02-27T15:39:06Z</time>
      </trkpt>
      <trkpt lat="48.49417" lon="7.17722">
        <ele>571.56335</ele>
        <time>2025-02-27T15:39:28Z</time>
      </trkpt>
      <trkpt lat="48.49421" lon="7.17697">
        <ele>573.7022</ele>
        <time>2025-02-27T15:40:11Z</time>
      </trkpt>
      <trkpt lat="48.49418" lon="7.17703">
        <ele>573.7022</ele>
        <time>2025-02-27T15:40:14Z</time>
      </trkpt>
      <trkpt lat="48.49416" lon="7.17716">
        <ele>573.7022</ele>
        <time>2025-02-27T15:40:37Z</time>
      </trkpt>
      <trkpt lat="48.49417" lon="7.17725">
        <ele>573.7022</ele>
        <time>2025-02-27T15:41:00Z</time>
      </trkpt>
      <trkpt lat="48.49413" lon="7.17722">
        <ele>573.7022</ele>
        <time>2025-02-27T15:41:37Z</time>
      </trkpt>
      <trkpt lat="48.49415" lon="7.17713">
        <ele>573.7022</ele>
        <time>2025-02-27T15:41:43Z</time>
      </trkpt>
      <trkpt lat="48.49411" lon="7.17715">
        <ele>573.7022</ele>
        <time>2025-02-27T15:41:54Z</time>
      </trkpt>
      <trkpt lat="48.49416" lon="7.17707">
        <ele>573.7022</ele>
        <time>2025-02-27T15:42:09Z</time>
      </trkpt>
      <trkpt lat="48.4942" lon="7.17699">
        <ele>573.7022</ele>
        <time>2025-02-27T15:42:14Z</time>
      </trkpt>
      <trkpt lat="48.49421" lon="7.17688">
        <ele>573.7022</ele>
        <time>2025-02-27T15:42:17Z</time>
      </trkpt>
      <trkpt lat="48.49422" lon="7.1768">
        <ele>573.7022</ele>
        <time>2025-02-27T15:42:21Z</time>
      </trkpt>
      <trkpt lat="48.49423" lon="7.17672">
        <ele>573.7022</ele>
        <time>2025-02-27T15:42:26Z</time>
      </trkpt>
      <trkpt lat="48.49423" lon="7.17664">
        <ele>573.7022</ele>
        <time>2025-02-27T15:42:30Z</time>
      </trkpt>
      <trkpt lat="48.4942" lon="7.17658">
        <ele>573.7022</ele>
        <time>2025-02-27T15:42:35Z</time>
      </trkpt>
      <trkpt lat="48.49417" lon="7.17653">
        <ele>573.7022</ele>
        <time>2025-02-27T15:42:40Z</time>
      </trkpt>
      <trkpt lat="48.49416" lon="7.17646">
        <ele>573.7022</ele>
        <time>2025-02-27T15:42:44Z</time>
      </trkpt>
      <trkpt lat="48.49418" lon="7.17637">
        <ele>573.7022</ele>
        <time>2025-02-27T15:42:48Z</time>
      </trkpt>
      <trkpt lat="48.49411" lon="7.17634">
        <ele>573.7022</ele>
        <time>2025-02-27T15:42:53Z</time>
      </trkpt>
      <trkpt lat="48.49406" lon="7.17631">
        <ele>573.7022</ele>
        <time>2025-02-27T15:42:56Z</time>
      </trkpt>
      <trkpt lat="48.49408" lon="7.17623">
        <ele>573.7022</ele>
        <time>2025-02-27T15:43:00Z</time>
      </trkpt>
      <trkpt lat="48.49403" lon="7.17618">
        <ele>573.7022</ele>
        <time>2025-02-27T15:43:05Z</time>
      </trkpt>
      <trkpt lat="48.49397" lon="7.17617">
        <ele>573.7022</ele>
        <time>2025-02-27T15:43:08Z</time>
      </trkpt>
      <trkpt lat="48.49393" lon="7.17612">
        <ele>573.7022</ele>
        <time>2025-02-27T15:43:13Z</time>
      </trkpt>
      <trkpt lat="48.49389" lon="7.17607">
        <ele>573.7022</ele>
        <time>2025-02-27T15:43:19Z</time>
      </trkpt>
      <trkpt lat="48.49386" lon="7.17601">
        <ele>573.7022</ele>
        <time>2025-02-27T15:43:24Z</time>
      </trkpt>
      <trkpt lat="48.49382" lon="7.17596">
        <ele>573.7022</ele>
        <time>2025-02-27T15:43:29Z</time>
      </trkpt>
      <trkpt lat="48.49378" lon="7.17591">
        <ele>573.7022</ele>
        <time>2025-02-27T15:43:32Z</time>
      </trkpt>
      <trkpt lat="48.49374" lon="7.17584">
        <ele>573.7022</ele>
        <time>2025-02-27T15:43:38Z</time>
      </trkpt>
      <trkpt lat="48.4937" lon="7.1758">
        <ele>573.7022</ele>
        <time>2025-02-27T15:43:46Z</time>
      </trkpt>
      <trkpt lat="48.49367" lon="7.17573">
        <ele>573.7022</ele>
        <time>2025-02-27T15:43:50Z</time>
      </trkpt>
      <trkpt lat="48.49364" lon="7.17566">
        <ele>573.7022</ele>
        <time>2025-02-27T15:43:55Z</time>
      </trkpt>
      <trkpt lat="48.4936" lon="7.17562">
        <ele>573.7022</ele>
        <time>2025-02-27T15:43:58Z</time>
      </trkpt>
      <trkpt lat="48.49355" lon="7.17562">
        <ele>573.7022</ele>
        <time>2025-02-27T15:44:03Z</time>
      </trkpt>
      <trkpt lat="48.4935" lon="7.17559">
        <ele>573.7022</ele>
        <time>2025-02-27T15:44:06Z</time>
      </trkpt>
      <trkpt lat="48.49346" lon="7.17555">
        <ele>573.7022</ele>
        <time>2025-02-27T15:44:17Z</time>
      </trkpt>
      <trkpt lat="48.49342" lon="7.1755">
        <ele>573.7022</ele>
        <time>2025-02-27T15:44:25Z</time>
      </trkpt>
      <trkpt lat="48.49337" lon="7.17549">
        <ele>573.7022</ele>
        <time>2025-02-27T15:44:29Z</time>
      </trkpt>
      <trkpt lat="48.49332" lon="7.17547">
        <ele>573.7022</ele>
        <time>2025-02-27T15:44:33Z</time>
      </trkpt>
      <trkpt lat="48.49328" lon="7.17543">
        <ele>575.7412</ele>
        <time>2025-02-27T15:44:38Z</time>
      </trkpt>
      <trkpt lat="48.49323" lon="7.17537">
        <ele>577.7802</ele>
        <time>2025-02-27T15:44:42Z</time>
      </trkpt>
      <trkpt lat="48.49319" lon="7.17535">
        <ele>579.8192</ele>
        <time>2025-02-27T15:44:47Z</time>
      </trkpt>
      <trkpt lat="48.49316" lon="7.17529">
        <ele>581.8582</ele>
        <time>2025-02-27T15:45:25Z</time>
      </trkpt>
      <trkpt lat="48.49311" lon="7.17525">
        <ele>583.8972</ele>
        <time>2025-02-27T15:45:29Z</time>
      </trkpt>
      <trkpt lat="48.49307" lon="7.17522">
        <ele>583.8972</ele>
        <time>2025-02-27T15:45:33Z</time>
      </trkpt>
      <trkpt lat="48.49303" lon="7.17518">
        <ele>583.8972</ele>
        <time>2025-02-27T15:45:38Z</time>
      </trkpt>
      <trkpt lat="48.49299" lon="7.17513">
        <ele>583.8972</ele>
        <time>2025-02-27T15:45:43Z</time>
      </trkpt>
      <trkpt lat="48.49295" lon="7.17509">
        <ele>583.8972</ele>
        <time>2025-02-27T15:45:49Z</time>
      </trkpt>
      <trkpt lat="48.49291" lon="7.17505">
        <ele>583.8972</ele>
        <time>2025-02-27T15:45:53Z</time>
      </trkpt>
      <trkpt lat="48.49287" lon="7.175">
        <ele>583.8972</ele>
        <time>2025-02-27T15:45:59Z</time>
      </trkpt>
      <trkpt lat="48.49283" lon="7.17495">
        <ele>583.8972</ele>
        <time>2025-02-27T15:46:04Z</time>
      </trkpt>
      <trkpt lat="48.49278" lon="7.1749">
        <ele>583.8972</ele>
        <time>2025-02-27T15:46:09Z</time>
      </trkpt>
      <trkpt lat="48.49274" lon="7.17486">
        <ele>583.8972</ele>
        <time>2025-02-27T15:46:13Z</time>
      </trkpt>
      <trkpt lat="48.49271" lon="7.17481">
        <ele>583.8972</ele>
        <time>2025-02-27T15:46:17Z</time>
      </trkpt>
      <trkpt lat="48.49266" lon="7.17477">
        <ele>583.8972</ele>
        <time>2025-02-27T15:46:21Z</time>
      </trkpt>
      <trkpt lat="48.49262" lon="7.17472">
        <ele>583.8972</ele>
        <time>2025-02-27T15:46:27Z</time>
      </trkpt>
      <trkpt lat="48.49258" lon="7.17467">
        <ele>583.8972</ele>
        <time>2025-02-27T15:46:32Z</time>
      </trkpt>
      <trkpt lat="48.49254" lon="7.17462">
        <ele>583.8972</ele>
        <time>2025-02-27T15:46:38Z</time>
      </trkpt>
      <trkpt lat="48.4925" lon="7.17456">
        <ele>583.8972</ele>
        <time>2025-02-27T15:46:43Z</time>
      </trkpt>
      <trkpt lat="48.49247" lon="7.17451">
        <ele>583.8972</ele>
        <time>2025-02-27T15:46:48Z</time>
      </trkpt>
      <trkpt lat="48.49243" lon="7.17447">
        <ele>583.8972</ele>
        <time>2025-02-27T15:46:52Z</time>
      </trkpt>
      <trkpt lat="48.49238" lon="7.17442">
        <ele>583.8972</ele>
        <time>2025-02-27T15:46:58Z</time>
      </trkpt>
      <trkpt lat="48.49234" lon="7.17437">
        <ele>583.8972</ele>
        <time>2025-02-27T15:47:03Z</time>
      </trkpt>
      <trkpt lat="48.49231" lon="7.17432">
        <ele>583.8972</ele>
        <time>2025-02-27T15:47:09Z</time>
      </trkpt>
      <trkpt lat="48.49227" lon="7.17427">
        <ele>583.8972</ele>
        <time>2025-02-27T15:47:13Z</time>
      </trkpt>
      <trkpt lat="48.49223" lon="7.17422">
        <ele>583.8972</ele>
        <time>2025-02-27T15:47:17Z</time>
      </trkpt>
      <trkpt lat="48.4922" lon="7.17417">
        <ele>583.8972</ele>
        <time>2025-02-27T15:47:21Z</time>
      </trkpt>
      <trkpt lat="48.49216" lon="7.17412">
        <ele>583.8972</ele>
        <time>2025-02-27T15:47:28Z</time>
      </trkpt>
      <trkpt lat="48.49212" lon="7.17407">
        <ele>583.8972</ele>
        <time>2025-02-27T15:47:32Z</time>
      </trkpt>
      <trkpt lat="48.49208" lon="7.17402">
        <ele>583.8972</ele>
        <time>2025-02-27T15:47:38Z</time>
      </trkpt>
      <trkpt lat="48.49204" lon="7.17397">
        <ele>583.8972</ele>
        <time>2025-02-27T15:47:44Z</time>
      </trkpt>
      <trkpt lat="48.49201" lon="7.17392">
        <ele>583.8972</ele>
        <time>2025-02-27T15:47:48Z</time>
      </trkpt>
      <trkpt lat="48.49198" lon="7.17386">
        <ele>583.8972</ele>
        <time>2025-02-27T15:47:53Z</time>
      </trkpt>
      <trkpt lat="48.49194" lon="7.17381">
        <ele>583.8972</ele>
        <time>2025-02-27T15:47:59Z</time>
      </trkpt>
      <trkpt lat="48.49189" lon="7.17376">
        <ele>583.8972</ele>
        <time>2025-02-27T15:48:05Z</time>
      </trkpt>
      <trkpt lat="48.49186" lon="7.17371">
        <ele>583.8972</ele>
        <time>2025-02-27T15:48:08Z</time>
      </trkpt>
      <trkpt lat="48.49182" lon="7.17366">
        <ele>583.8972</ele>
        <time>2025-02-27T15:48:13Z</time>
      </trkpt>
      <trkpt lat="48.49178" lon="7.17362">
        <ele>583.8972</ele>
        <time>2025-02-27T15:48:19Z</time>
      </trkpt>
      <trkpt lat="48.49174" lon="7.17357">
        <ele>583.8972</ele>
        <time>2025-02-27T15:48:25Z</time>
      </trkpt>
      <trkpt lat="48.49169" lon="7.17352">
        <ele>583.8972</ele>
        <time>2025-02-27T15:48:30Z</time>
      </trkpt>
      <trkpt lat="48.49165" lon="7.17347">
        <ele>583.8972</ele>
        <time>2025-02-27T15:48:35Z</time>
      </trkpt>
      <trkpt lat="48.49161" lon="7.17343">
        <ele>583.8972</ele>
        <time>2025-02-27T15:48:40Z</time>
      </trkpt>
      <trkpt lat="48.49157" lon="7.17339">
        <ele>583.8972</ele>
        <time>2025-02-27T15:48:44Z</time>
      </trkpt>
      <trkpt lat="48.49152" lon="7.17336">
        <ele>583.8972</ele>
        <time>2025-02-27T15:48:50Z</time>
      </trkpt>
      <trkpt lat="48.49148" lon="7.17331">
        <ele>583.8972</ele>
        <time>2025-02-27T15:48:56Z</time>
      </trkpt>
      <trkpt lat="48.49144" lon="7.17327">
        <ele>583.8972</ele>
        <time>2025-02-27T15:49:00Z</time>
      </trkpt>
      <trkpt lat="48.4914" lon="7.17323">
        <ele>583.8972</ele>
        <time>2025-02-27T15:49:06Z</time>
      </trkpt>
      <trkpt lat="48.49136" lon="7.1732">
        <ele>583.8972</ele>
        <time>2025-02-27T15:49:10Z</time>
      </trkpt>
      <trkpt lat="48.49131" lon="7.17316">
        <ele>583.8972</ele>
        <time>2025-02-27T15:49:15Z</time>
      </trkpt>
      <trkpt lat="48.49127" lon="7.17312">
        <ele>583.8972</ele>
        <time>2025-02-27T15:49:20Z</time>
      </trkpt>
      <trkpt lat="48.49123" lon="7.17308">
        <ele>583.8972</ele>
        <time>2025-02-27T15:49:24Z</time>
      </trkpt>
      <trkpt lat="48.49118" lon="7.17304">
        <ele>583.8972</ele>
        <time>2025-02-27T15:49:28Z</time>
      </trkpt>
      <trkpt lat="48.49114" lon="7.173">
        <ele>583.8972</ele>
        <time>2025-02-27T15:49:32Z</time>
      </trkpt>
      <trkpt lat="48.4911" lon="7.17298">
        <ele>583.8972</ele>
        <time>2025-02-27T15:49:36Z</time>
      </trkpt>
      <trkpt lat="48.49106" lon="7.17294">
        <ele>583.8972</ele>
        <time>2025-02-27T15:49:40Z</time>
      </trkpt>
      <trkpt lat="48.49102" lon="7.1729">
        <ele>583.8972</ele>
        <time>2025-02-27T15:49:45Z</time>
      </trkpt>
      <trkpt lat="48.49097" lon="7.17286">
        <ele>583.8972</ele>
        <time>2025-02-27T15:49:50Z</time>
      </trkpt>
      <trkpt lat="48.49092" lon="7.17283">
        <ele>583.8972</ele>
        <time>2025-02-27T15:49:55Z</time>
      </trkpt>
      <trkpt lat="48.49087" lon="7.17279">
        <ele>583.8972</ele>
        <time>2025-02-27T15:50:01Z</time>
      </trkpt>
      <trkpt lat="48.49083" lon="7.17275">
        <ele>583.8972</ele>
        <time>2025-02-27T15:50:06Z</time>
      </trkpt>
      <trkpt lat="48.49078" lon="7.17272">
        <ele>583.8972</ele>
        <time>2025-02-27T15:50:11Z</time>
      </trkpt>
      <trkpt lat="48.49073" lon="7.1727">
        <ele>583.8972</ele>
        <time>2025-02-27T15:50:15Z</time>
      </trkpt>
      <trkpt lat="48.49069" lon="7.17268">
        <ele>583.8972</ele>
        <time>2025-02-27T15:50:20Z</time>
      </trkpt>
      <trkpt lat="48.49064" lon="7.17265">
        <ele>583.8972</ele>
        <time>2025-02-27T15:50:25Z</time>
      </trkpt>
      <trkpt lat="48.4906" lon="7.17262">
        <ele>583.8972</ele>
        <time>2025-02-27T15:50:29Z</time>
      </trkpt>
      <trkpt lat="48.49055" lon="7.17259">
        <ele>583.8972</ele>
        <time>2025-02-27T15:50:34Z</time>
      </trkpt>
      <trkpt lat="48.49051" lon="7.17257">
        <ele>583.8972</ele>
        <time>2025-02-27T15:50:38Z</time>
      </trkpt>
      <trkpt lat="48.49046" lon="7.17254">
        <ele>583.8972</ele>
        <time>2025-02-27T15:50:42Z</time>
      </trkpt>
      <trkpt lat="48.49041" lon="7.17251">
        <ele>583.8972</ele>
        <time>2025-02-27T15:50:46Z</time>
      </trkpt>
      <trkpt lat="48.49036" lon="7.17248">
        <ele>583.8972</ele>
        <time>2025-02-27T15:50:51Z</time>
      </trkpt>
      <trkpt lat="48.49032" lon="7.17246">
        <ele>583.8972</ele>
        <time>2025-02-27T15:50:56Z</time>
      </trkpt>
      <trkpt lat="48.49028" lon="7.17242">
        <ele>583.8972</ele>
        <time>2025-02-27T15:51:01Z</time>
      </trkpt>
      <trkpt lat="48.49026" lon="7.17235">
        <ele>583.8972</ele>
        <time>2025-02-27T15:51:06Z</time>
      </trkpt>
      <trkpt lat="48.49025" lon="7.17227">
        <ele>583.8972</ele>
        <time>2025-02-27T15:51:11Z</time>
      </trkpt>
      <trkpt lat="48.49027" lon="7.1722">
        <ele>583.8972</ele>
        <time>2025-02-27T15:51:15Z</time>
      </trkpt>
      <trkpt lat="48.49027" lon="7.17213">
        <ele>583.8972</ele>
        <time>2025-02-27T15:51:19Z</time>
      </trkpt>
      <trkpt lat="48.49027" lon="7.17205">
        <ele>583.8972</ele>
        <time>2025-02-27T15:51:24Z</time>
      </trkpt>
      <trkpt lat="48.49028" lon="7.17198">
        <ele>583.8972</ele>
        <time>2025-02-27T15:51:28Z</time>
      </trkpt>
      <trkpt lat="48.49028" lon="7.17191">
        <ele>583.8972</ele>
        <time>2025-02-27T15:51:32Z</time>
      </trkpt>
      <trkpt lat="48.49028" lon="7.17183">
        <ele>583.8972</ele>
        <time>2025-02-27T15:51:37Z</time>
      </trkpt>
      <trkpt lat="48.49028" lon="7.17176">
        <ele>583.8972</ele>
        <time>2025-02-27T15:51:42Z</time>
      </trkpt>
      <trkpt lat="48.49028" lon="7.17168">
        <ele>583.8972</ele>
        <time>2025-02-27T15:51:47Z</time>
      </trkpt>
      <trkpt lat="48.49028" lon="7.17162">
        <ele>583.8972</ele>
        <time>2025-02-27T15:51:50Z</time>
      </trkpt>
      <trkpt lat="48.49028" lon="7.17153">
        <ele>583.8972</ele>
        <time>2025-02-27T15:51:54Z</time>
      </trkpt>
      <trkpt lat="48.49028" lon="7.17144">
        <ele>583.8972</ele>
        <time>2025-02-27T15:51:58Z</time>
      </trkpt>
      <trkpt lat="48.49028" lon="7.17136">
        <ele>583.8972</ele>
        <time>2025-02-27T15:52:03Z</time>
      </trkpt>
      <trkpt lat="48.49028" lon="7.17127">
        <ele>583.8972</ele>
        <time>2025-02-27T15:52:07Z</time>
      </trkpt>
      <trkpt lat="48.49027" lon="7.17119">
        <ele>583.8972</ele>
        <time>2025-02-27T15:52:11Z</time>
      </trkpt>
      <trkpt lat="48.49027" lon="7.17112">
        <ele>583.8972</ele>
        <time>2025-02-27T15:52:15Z</time>
      </trkpt>
      <trkpt lat="48.49027" lon="7.17105">
        <ele>583.8972</ele>
        <time>2025-02-27T15:52:22Z</time>
      </trkpt>
      <trkpt lat="48.49027" lon="7.17097">
        <ele>583.8972</ele>
        <time>2025-02-27T15:52:27Z</time>
      </trkpt>
      <trkpt lat="48.49027" lon="7.1709">
        <ele>583.8972</ele>
        <time>2025-02-27T15:52:31Z</time>
      </trkpt>
      <trkpt lat="48.49027" lon="7.17083">
        <ele>583.8972</ele>
        <time>2025-02-27T15:52:36Z</time>
      </trkpt>
      <trkpt lat="48.49027" lon="7.17076">
        <ele>583.8972</ele>
        <time>2025-02-27T15:52:40Z</time>
      </trkpt>
      <trkpt lat="48.49027" lon="7.17068">
        <ele>583.8972</ele>
        <time>2025-02-27T15:52:44Z</time>
      </trkpt>
      <trkpt lat="48.49027" lon="7.1706">
        <ele>583.8972</ele>
        <time>2025-02-27T15:52:48Z</time>
      </trkpt>
      <trkpt lat="48.49027" lon="7.17053">
        <ele>583.8972</ele>
        <time>2025-02-27T15:52:52Z</time>
      </trkpt>
      <trkpt lat="48.49027" lon="7.17046">
        <ele>583.8972</ele>
        <time>2025-02-27T15:52:56Z</time>
      </trkpt>
      <trkpt lat="48.49027" lon="7.17037">
        <ele>583.8972</ele>
        <time>2025-02-27T15:53:01Z</time>
      </trkpt>
      <trkpt lat="48.49028" lon="7.17029">
        <ele>583.8972</ele>
        <time>2025-02-27T15:53:05Z</time>
      </trkpt>
      <trkpt lat="48.49028" lon="7.17021">
        <ele>583.8972</ele>
        <time>2025-02-27T15:53:11Z</time>
      </trkpt>
      <trkpt lat="48.4903" lon="7.17013">
        <ele>583.8972</ele>
        <time>2025-02-27T15:53:16Z</time>
      </trkpt>
      <trkpt lat="48.4903" lon="7.17006">
        <ele>583.8972</ele>
        <time>2025-02-27T15:53:20Z</time>
      </trkpt>
      <trkpt lat="48.49031" lon="7.16998">
        <ele>583.8972</ele>
        <time>2025-02-27T15:53:25Z</time>
      </trkpt>
      <trkpt lat="48.49032" lon="7.16991">
        <ele>583.8972</ele>
        <time>2025-02-27T15:53:29Z</time>
      </trkpt>
      <trkpt lat="48.49032" lon="7.16983">
        <ele>583.8972</ele>
        <time>2025-02-27T15:53:34Z</time>
      </trkpt>
      <trkpt lat="48.49033" lon="7.16975">
        <ele>583.8972</ele>
        <time>2025-02-27T15:53:39Z</time>
      </trkpt>
      <trkpt lat="48.49033" lon="7.16967">
        <ele>583.8972</ele>
        <time>2025-02-27T15:53:43Z</time>
      </trkpt>
      <trkpt lat="48.49032" lon="7.16959">
        <ele>583.8972</ele>
        <time>2025-02-27T15:53:47Z</time>
      </trkpt>
      <trkpt lat="48.49032" lon="7.16951">
        <ele>583.8972</ele>
        <time>2025-02-27T15:53:54Z</time>
      </trkpt>
      <trkpt lat="48.49031" lon="7.16944">
        <ele>583.8972</ele>
        <time>2025-02-27T15:53:57Z</time>
      </trkpt>
      <trkpt lat="48.4903" lon="7.16936">
        <ele>583.8972</ele>
        <time>2025-02-27T15:54:02Z</time>
      </trkpt>
      <trkpt lat="48.49028" lon="7.16929">
        <ele>583.8972</ele>
        <time>2025-02-27T15:54:07Z</time>
      </trkpt>
      <trkpt lat="48.49026" lon="7.16922">
        <ele>583.8972</ele>
        <time>2025-02-27T15:54:11Z</time>
      </trkpt>
      <trkpt lat="48.49023" lon="7.16915">
        <ele>583.8972</ele>
        <time>2025-02-27T15:54:15Z</time>
      </trkpt>
      <trkpt lat="48.4902" lon="7.16908">
        <ele>583.8972</ele>
        <time>2025-02-27T15:54:20Z</time>
      </trkpt>
      <trkpt lat="48.49017" lon="7.16903">
        <ele>583.8972</ele>
        <time>2025-02-27T15:54:24Z</time>
      </trkpt>
      <trkpt lat="48.49014" lon="7.16898">
        <ele>583.8972</ele>
        <time>2025-02-27T15:54:28Z</time>
      </trkpt>
      <trkpt lat="48.49011" lon="7.16894">
        <ele>583.8972</ele>
        <time>2025-02-27T15:54:33Z</time>
      </trkpt>
      <trkpt lat="48.49007" lon="7.16889">
        <ele>583.8972</ele>
        <time>2025-02-27T15:54:37Z</time>
      </trkpt>
      <trkpt lat="48.49003" lon="7.16883">
        <ele>583.8972</ele>
        <time>2025-02-27T15:54:42Z</time>
      </trkpt>
      <trkpt lat="48.48999" lon="7.16877">
        <ele>583.8972</ele>
        <time>2025-02-27T15:54:47Z</time>
      </trkpt>
      <trkpt lat="48.48996" lon="7.1687">
        <ele>583.8972</ele>
        <time>2025-02-27T15:54:51Z</time>
      </trkpt>
      <trkpt lat="48.48993" lon="7.16863">
        <ele>583.8972</ele>
        <time>2025-02-27T15:54:55Z</time>
      </trkpt>
      <trkpt lat="48.48991" lon="7.16857">
        <ele>583.8972</ele>
        <time>2025-02-27T15:54:59Z</time>
      </trkpt>
      <trkpt lat="48.4899" lon="7.1685">
        <ele>583.8972</ele>
        <time>2025-02-27T15:55:03Z</time>
      </trkpt>
      <trkpt lat="48.48988" lon="7.16842">
        <ele>583.8972</ele>
        <time>2025-02-27T15:55:09Z</time>
      </trkpt>
      <trkpt lat="48.48987" lon="7.16834">
        <ele>583.8972</ele>
        <time>2025-02-27T15:55:13Z</time>
      </trkpt>
      <trkpt lat="48.48987" lon="7.16827">
        <ele>583.8972</ele>
        <time>2025-02-27T15:55:16Z</time>
      </trkpt>
      <trkpt lat="48.48988" lon="7.16819">
        <ele>583.8972</ele>
        <time>2025-02-27T15:55:20Z</time>
      </trkpt>
      <trkpt lat="48.4899" lon="7.16812">
        <ele>583.8972</ele>
        <time>2025-02-27T15:55:25Z</time>
      </trkpt>
      <trkpt lat="48.48993" lon="7.16804">
        <ele>583.8972</ele>
        <time>2025-02-27T15:55:29Z</time>
      </trkpt>
      <trkpt lat="48.48996" lon="7.16797">
        <ele>583.8972</ele>
        <time>2025-02-27T15:55:34Z</time>
      </trkpt>
      <trkpt lat="48.49" lon="7.16792">
        <ele>583.8972</ele>
        <time>2025-02-27T15:55:41Z</time>
      </trkpt>
      <trkpt lat="48.49004" lon="7.16787">
        <ele>583.8972</ele>
        <time>2025-02-27T15:55:46Z</time>
      </trkpt>
      <trkpt lat="48.49008" lon="7.16782">
        <ele>583.8972</ele>
        <time>2025-02-27T15:55:50Z</time>
      </trkpt>
      <trkpt lat="48.49012" lon="7.16778">
        <ele>583.8972</ele>
        <time>2025-02-27T15:55:54Z</time>
      </trkpt>
      <trkpt lat="48.49016" lon="7.16772">
        <ele>583.8972</ele>
        <time>2025-02-27T15:57:31Z</time>
      </trkpt>
      <trkpt lat="48.49019" lon="7.16767">
        <ele>583.8972</ele>
        <time>2025-02-27T15:57:38Z</time>
      </trkpt>
      <trkpt lat="48.49022" lon="7.1676">
        <ele>583.8972</ele>
        <time>2025-02-27T15:57:44Z</time>
      </trkpt>
      <trkpt lat="48.49026" lon="7.16757">
        <ele>583.8972</ele>
        <time>2025-02-27T15:57:48Z</time>
      </trkpt>
      <trkpt lat="48.4903" lon="7.16754">
        <ele>583.8972</ele>
        <time>2025-02-27T15:57:51Z</time>
      </trkpt>
      <trkpt lat="48.49035" lon="7.16756">
        <ele>583.8972</ele>
        <time>2025-02-27T15:57:54Z</time>
      </trkpt>
      <trkpt lat="48.4904" lon="7.16751">
        <ele>581.87506</ele>
        <time>2025-02-27T15:58:01Z</time>
      </trkpt>
      <trkpt lat="48.49044" lon="7.16748">
        <ele>579.8529</ele>
        <time>2025-02-27T15:58:06Z</time>
      </trkpt>
      <trkpt lat="48.49048" lon="7.16744">
        <ele>577.8307</ele>
        <time>2025-02-27T15:58:15Z</time>
      </trkpt>
      <trkpt lat="48.49052" lon="7.16741">
        <ele>575.80853</ele>
        <time>2025-02-27T15:58:19Z</time>
      </trkpt>
      <trkpt lat="48.49056" lon="7.16738">
        <ele>573.7864</ele>
        <time>2025-02-27T15:58:22Z</time>
      </trkpt>
      <trkpt lat="48.49061" lon="7.16734">
        <ele>573.7864</ele>
        <time>2025-02-27T15:58:29Z</time>
      </trkpt>
      <trkpt lat="48.49065" lon="7.16731">
        <ele>573.7864</ele>
        <time>2025-02-27T15:58:32Z</time>
      </trkpt>
      <trkpt lat="48.4907" lon="7.16728">
        <ele>573.7864</ele>
        <time>2025-02-27T15:58:36Z</time>
      </trkpt>
      <trkpt lat="48.49074" lon="7.16725">
        <ele>573.7864</ele>
        <time>2025-02-27T15:58:41Z</time>
      </trkpt>
      <trkpt lat="48.49079" lon="7.16722">
        <ele>573.7864</ele>
        <time>2025-02-27T15:58:46Z</time>
      </trkpt>
      <trkpt lat="48.49083" lon="7.1672">
        <ele>573.7864</ele>
        <time>2025-02-27T15:58:50Z</time>
      </trkpt>
      <trkpt lat="48.49088" lon="7.16717">
        <ele>573.7864</ele>
        <time>2025-02-27T15:58:55Z</time>
      </trkpt>
      <trkpt lat="48.49092" lon="7.16715">
        <ele>573.7864</ele>
        <time>2025-02-27T15:59:00Z</time>
      </trkpt>
      <trkpt lat="48.49097" lon="7.16713">
        <ele>573.7864</ele>
        <time>2025-02-27T15:59:04Z</time>
      </trkpt>
      <trkpt lat="48.49102" lon="7.16711">
        <ele>573.7864</ele>
        <time>2025-02-27T15:59:10Z</time>
      </trkpt>
      <trkpt lat="48.49107" lon="7.16709">
        <ele>573.7864</ele>
        <time>2025-02-27T15:59:12Z</time>
      </trkpt>
      <trkpt lat="48.49112" lon="7.16707">
        <ele>573.7864</ele>
        <time>2025-02-27T15:59:19Z</time>
      </trkpt>
      <trkpt lat="48.49117" lon="7.16706">
        <ele>573.7864</ele>
        <time>2025-02-27T15:59:23Z</time>
      </trkpt>
      <trkpt lat="48.49122" lon="7.16705">
        <ele>573.7864</ele>
        <time>2025-02-27T15:59:28Z</time>
      </trkpt>
      <trkpt lat="48.49127" lon="7.16705">
        <ele>573.7864</ele>
        <time>2025-02-27T15:59:33Z</time>
      </trkpt>
      <trkpt lat="48.49131" lon="7.16704">
        <ele>573.7864</ele>
        <time>2025-02-27T15:59:39Z</time>
      </trkpt>
      <trkpt lat="48.49136" lon="7.16704">
        <ele>573.7864</ele>
        <time>2025-02-27T15:59:43Z</time>
      </trkpt>
      <trkpt lat="48.49142" lon="7.16704">
        <ele>573.7864</ele>
        <time>2025-02-27T15:59:47Z</time>
      </trkpt>
      <trkpt lat="48.49148" lon="7.16704">
        <ele>573.7864</ele>
        <time>2025-02-27T15:59:55Z</time>
      </trkpt>
      <trkpt lat="48.49154" lon="7.16705">
        <ele>573.7864</ele>
        <time>2025-02-27T16:00:01Z</time>
      </trkpt>
      <trkpt lat="48.49159" lon="7.16705">
        <ele>573.7864</ele>
        <time>2025-02-27T16:00:06Z</time>
      </trkpt>
      <trkpt lat="48.49164" lon="7.16705">
        <ele>573.7864</ele>
        <time>2025-02-27T16:00:11Z</time>
      </trkpt>
      <trkpt lat="48.49169" lon="7.16706">
        <ele>573.7864</ele>
        <time>2025-02-27T16:00:16Z</time>
      </trkpt>
      <trkpt lat="48.49174" lon="7.16708">
        <ele>573.7864</ele>
        <time>2025-02-27T16:00:20Z</time>
      </trkpt>
      <trkpt lat="48.49179" lon="7.16709">
        <ele>573.7864</ele>
        <time>2025-02-27T16:00:28Z</time>
      </trkpt>
      <trkpt lat="48.49184" lon="7.16711">
        <ele>573.7864</ele>
        <time>2025-02-27T16:00:34Z</time>
      </trkpt>
      <trkpt lat="48.49188" lon="7.16713">
        <ele>573.7864</ele>
        <time>2025-02-27T16:00:39Z</time>
      </trkpt>
      <trkpt lat="48.49193" lon="7.16716">
        <ele>573.7864</ele>
        <time>2025-02-27T16:00:43Z</time>
      </trkpt>
      <trkpt lat="48.49198" lon="7.16719">
        <ele>573.7864</ele>
        <time>2025-02-27T16:00:48Z</time>
      </trkpt>
      <trkpt lat="48.49203" lon="7.16722">
        <ele>573.7864</ele>
        <time>2025-02-27T16:00:54Z</time>
      </trkpt>
      <trkpt lat="48.49207" lon="7.16726">
        <ele>573.7864</ele>
        <time>2025-02-27T16:00:59Z</time>
      </trkpt>
      <trkpt lat="48.49212" lon="7.1673">
        <ele>571.76294</ele>
        <time>2025-02-27T16:01:04Z</time>
      </trkpt>
      <trkpt lat="48.49217" lon="7.16735">
        <ele>569.7395</ele>
        <time>2025-02-27T16:01:10Z</time>
      </trkpt>
      <trkpt lat="48.4922" lon="7.16739">
        <ele>567.71606</ele>
        <time>2025-02-27T16:01:15Z</time>
      </trkpt>
      <trkpt lat="48.49224" lon="7.16744">
        <ele>565.6926</ele>
        <time>2025-02-27T16:01:19Z</time>
      </trkpt>
      <trkpt lat="48.49228" lon="7.16749">
        <ele>563.6692</ele>
        <time>2025-02-27T16:01:25Z</time>
      </trkpt>
      <trkpt lat="48.49232" lon="7.16754">
        <ele>563.6692</ele>
        <time>2025-02-27T16:01:31Z</time>
      </trkpt>
      <trkpt lat="48.49236" lon="7.16759">
        <ele>563.6692</ele>
        <time>2025-02-27T16:01:36Z</time>
      </trkpt>
      <trkpt lat="48.49239" lon="7.16765">
        <ele>563.6692</ele>
        <time>2025-02-27T16:01:41Z</time>
      </trkpt>
      <trkpt lat="48.49244" lon="7.1677">
        <ele>563.6692</ele>
        <time>2025-02-27T16:01:45Z</time>
      </trkpt>
      <trkpt lat="48.49247" lon="7.16776">
        <ele>563.6692</ele>
        <time>2025-02-27T16:01:50Z</time>
      </trkpt>
      <trkpt lat="48.49251" lon="7.16781">
        <ele>563.6692</ele>
        <time>2025-02-27T16:01:55Z</time>
      </trkpt>
      <trkpt lat="48.49255" lon="7.16787">
        <ele>563.6692</ele>
        <time>2025-02-27T16:02:01Z</time>
      </trkpt>
      <trkpt lat="48.49258" lon="7.16793">
        <ele>563.6692</ele>
        <time>2025-02-27T16:02:06Z</time>
      </trkpt>
      <trkpt lat="48.49262" lon="7.16799">
        <ele>563.6692</ele>
        <time>2025-02-27T16:02:11Z</time>
      </trkpt>
      <trkpt lat="48.49265" lon="7.16805">
        <ele>563.6692</ele>
        <time>2025-02-27T16:02:16Z</time>
      </trkpt>
      <trkpt lat="48.49268" lon="7.1681">
        <ele>563.6692</ele>
        <time>2025-02-27T16:02:22Z</time>
      </trkpt>
      <trkpt lat="48.49271" lon="7.16816">
        <ele>563.6692</ele>
        <time>2025-02-27T16:02:26Z</time>
      </trkpt>
      <trkpt lat="48.49274" lon="7.16821">
        <ele>563.6692</ele>
        <time>2025-02-27T16:02:30Z</time>
      </trkpt>
      <trkpt lat="48.49278" lon="7.16827">
        <ele>563.6692</ele>
        <time>2025-02-27T16:02:35Z</time>
      </trkpt>
      <trkpt lat="48.4928" lon="7.16833">
        <ele>563.6692</ele>
        <time>2025-02-27T16:02:40Z</time>
      </trkpt>
      <trkpt lat="48.49284" lon="7.16838">
        <ele>563.6692</ele>
        <time>2025-02-27T16:02:44Z</time>
      </trkpt>
      <trkpt lat="48.49287" lon="7.16844">
        <ele>563.6692</ele>
        <time>2025-02-27T16:02:48Z</time>
      </trkpt>
      <trkpt lat="48.4929" lon="7.16849">
        <ele>563.6692</ele>
        <time>2025-02-27T16:02:53Z</time>
      </trkpt>
      <trkpt lat="48.49294" lon="7.16855">
        <ele>563.6692</ele>
        <time>2025-02-27T16:02:58Z</time>
      </trkpt>
      <trkpt lat="48.49298" lon="7.1686">
        <ele>563.6692</ele>
        <time>2025-02-27T16:03:02Z</time>
      </trkpt>
      <trkpt lat="48.49301" lon="7.16865">
        <ele>563.6692</ele>
        <time>2025-02-27T16:03:05Z</time>
      </trkpt>
      <trkpt lat="48.49305" lon="7.1687">
        <ele>563.6692</ele>
        <time>2025-02-27T16:03:09Z</time>
      </trkpt>
      <trkpt lat="48.49309" lon="7.16874">
        <ele>563.6692</ele>
        <time>2025-02-27T16:03:14Z</time>
      </trkpt>
      <trkpt lat="48.49313" lon="7.16878">
        <ele>563.6692</ele>
        <time>2025-02-27T16:03:19Z</time>
      </trkpt>
      <trkpt lat="48.49318" lon="7.16882">
        <ele>563.6692</ele>
        <time>2025-02-27T16:03:23Z</time>
      </trkpt>
      <trkpt lat="48.49321" lon="7.16886">
        <ele>563.6692</ele>
        <time>2025-02-27T16:03:27Z</time>
      </trkpt>
      <trkpt lat="48.49326" lon="7.16889">
        <ele>563.6692</ele>
        <time>2025-02-27T16:03:32Z</time>
      </trkpt>
      <trkpt lat="48.4933" lon="7.16893">
        <ele>563.6692</ele>
        <time>2025-02-27T16:03:36Z</time>
      </trkpt>
      <trkpt lat="48.49334" lon="7.16896">
        <ele>563.6692</ele>
        <time>2025-02-27T16:03:42Z</time>
      </trkpt>
      <trkpt lat="48.49339" lon="7.169">
        <ele>563.6692</ele>
        <time>2025-02-27T16:03:47Z</time>
      </trkpt>
      <trkpt lat="48.49344" lon="7.16904">
        <ele>563.6692</ele>
        <time>2025-02-27T16:03:52Z</time>
      </trkpt>
      <trkpt lat="48.49347" lon="7.16909">
        <ele>563.6692</ele>
        <time>2025-02-27T16:03:59Z</time>
      </trkpt>
      <trkpt lat="48.4935" lon="7.16914">
        <ele>563.6692</ele>
        <time>2025-02-27T16:04:02Z</time>
      </trkpt>
      <trkpt lat="48.49354" lon="7.16919">
        <ele>563.6692</ele>
        <time>2025-02-27T16:04:07Z</time>
      </trkpt>
      <trkpt lat="48.49357" lon="7.16924">
        <ele>563.6692</ele>
        <time>2025-02-27T16:04:11Z</time>
      </trkpt>
      <trkpt lat="48.49361" lon="7.16929">
        <ele>563.6692</ele>
        <time>2025-02-27T16:04:16Z</time>
      </trkpt>
      <trkpt lat="48.49365" lon="7.16934">
        <ele>563.6692</ele>
        <time>2025-02-27T16:04:20Z</time>
      </trkpt>
      <trkpt lat="48.49368" lon="7.16938">
        <ele>563.6692</ele>
        <time>2025-02-27T16:04:23Z</time>
      </trkpt>
      <trkpt lat="48.49371" lon="7.16943">
        <ele>563.6692</ele>
        <time>2025-02-27T16:04:28Z</time>
      </trkpt>
      <trkpt lat="48.49375" lon="7.16949">
        <ele>563.6692</ele>
        <time>2025-02-27T16:04:34Z</time>
      </trkpt>
      <trkpt lat="48.49379" lon="7.16954">
        <ele>563.6692</ele>
        <time>2025-02-27T16:04:39Z</time>
      </trkpt>
      <trkpt lat="48.49383" lon="7.16959">
        <ele>563.6692</ele>
        <time>2025-02-27T16:04:42Z</time>
      </trkpt>
      <trkpt lat="48.49387" lon="7.16965">
        <ele>563.6692</ele>
        <time>2025-02-27T16:04:47Z</time>
      </trkpt>
      <trkpt lat="48.4939" lon="7.16969">
        <ele>563.6692</ele>
        <time>2025-02-27T16:04:51Z</time>
      </trkpt>
      <trkpt lat="48.49394" lon="7.16975">
        <ele>563.6692</ele>
        <time>2025-02-27T16:04:55Z</time>
      </trkpt>
      <trkpt lat="48.49398" lon="7.16979">
        <ele>563.6692</ele>
        <time>2025-02-27T16:05:00Z</time>
      </trkpt>
      <trkpt lat="48.49402" lon="7.16984">
        <ele>563.6692</ele>
        <time>2025-02-27T16:05:05Z</time>
      </trkpt>
      <trkpt lat="48.49405" lon="7.16989">
        <ele>563.6692</ele>
        <time>2025-02-27T16:05:09Z</time>
      </trkpt>
      <trkpt lat="48.49409" lon="7.16994">
        <ele>563.6692</ele>
        <time>2025-02-27T16:05:15Z</time>
      </trkpt>
      <trkpt lat="48.49413" lon="7.16999">
        <ele>563.6692</ele>
        <time>2025-02-27T16:05:20Z</time>
      </trkpt>
      <trkpt lat="48.49417" lon="7.17003">
        <ele>563.6692</ele>
        <time>2025-02-27T16:05:25Z</time>
      </trkpt>
      <trkpt lat="48.49421" lon="7.17008">
        <ele>563.6692</ele>
        <time>2025-02-27T16:05:30Z</time>
      </trkpt>
      <trkpt lat="48.49426" lon="7.17013">
        <ele>563.6692</ele>
        <time>2025-02-27T16:05:35Z</time>
      </trkpt>
      <trkpt lat="48.49431" lon="7.17018">
        <ele>563.6692</ele>
        <time>2025-02-27T16:05:40Z</time>
      </trkpt>
      <trkpt lat="48.49435" lon="7.17022">
        <ele>563.6692</ele>
        <time>2025-02-27T16:05:45Z</time>
      </trkpt>
      <trkpt lat="48.4944" lon="7.17025">
        <ele>563.6692</ele>
        <time>2025-02-27T16:05:49Z</time>
      </trkpt>
      <trkpt lat="48.49444" lon="7.17029">
        <ele>563.6692</ele>
        <time>2025-02-27T16:05:55Z</time>
      </trkpt>
      <trkpt lat="48.49448" lon="7.17032">
        <ele>561.4368</ele>
        <time>2025-02-27T16:06:01Z</time>
      </trkpt>
      <trkpt lat="48.49452" lon="7.17035">
        <ele>559.2045</ele>
        <time>2025-02-27T16:06:05Z</time>
      </trkpt>
      <trkpt lat="48.49457" lon="7.17038">
        <ele>556.97217</ele>
        <time>2025-02-27T16:06:09Z</time>
      </trkpt>
      <trkpt lat="48.49462" lon="7.1704">
        <ele>554.73987</ele>
        <time>2025-02-27T16:06:14Z</time>
      </trkpt>
      <trkpt lat="48.49467" lon="7.17043">
        <ele>552.5075</ele>
        <time>2025-02-27T16:06:19Z</time>
      </trkpt>
      <trkpt lat="48.49472" lon="7.17046">
        <ele>552.5075</ele>
        <time>2025-02-27T16:06:23Z</time>
      </trkpt>
      <trkpt lat="48.49476" lon="7.17049">
        <ele>552.5075</ele>
        <time>2025-02-27T16:06:28Z</time>
      </trkpt>
      <trkpt lat="48.49482" lon="7.17052">
        <ele>552.5075</ele>
        <time>2025-02-27T16:06:33Z</time>
      </trkpt>
      <trkpt lat="48.49487" lon="7.17055">
        <ele>552.5075</ele>
        <time>2025-02-27T16:06:38Z</time>
      </trkpt>
      <trkpt lat="48.49491" lon="7.17058">
        <ele>552.5075</ele>
        <time>2025-02-27T16:06:43Z</time>
      </trkpt>
      <trkpt lat="48.49496" lon="7.17061">
        <ele>552.5075</ele>
        <time>2025-02-27T16:06:48Z</time>
      </trkpt>
      <trkpt lat="48.495" lon="7.17064">
        <ele>552.5075</ele>
        <time>2025-02-27T16:06:53Z</time>
      </trkpt>
      <trkpt lat="48.49505" lon="7.17066">
        <ele>552.5075</ele>
        <time>2025-02-27T16:06:58Z</time>
      </trkpt>
      <trkpt lat="48.49509" lon="7.17069">
        <ele>552.5075</ele>
        <time>2025-02-27T16:07:02Z</time>
      </trkpt>
      <trkpt lat="48.49513" lon="7.17072">
        <ele>552.5075</ele>
        <time>2025-02-27T16:07:06Z</time>
      </trkpt>
      <trkpt lat="48.49518" lon="7.17074">
        <ele>552.5075</ele>
        <time>2025-02-27T16:07:10Z</time>
      </trkpt>
      <trkpt lat="48.49522" lon="7.17077">
        <ele>552.5075</ele>
        <time>2025-02-27T16:07:15Z</time>
      </trkpt>
      <trkpt lat="48.49528" lon="7.1708">
        <ele>552.5075</ele>
        <time>2025-02-27T16:07:21Z</time>
      </trkpt>
      <trkpt lat="48.49534" lon="7.17084">
        <ele>552.5075</ele>
        <time>2025-02-27T16:07:26Z</time>
      </trkpt>
      <trkpt lat="48.49538" lon="7.17086">
        <ele>552.5075</ele>
        <time>2025-02-27T16:07:31Z</time>
      </trkpt>
      <trkpt lat="48.49543" lon="7.17089">
        <ele>552.5075</ele>
        <time>2025-02-27T16:07:37Z</time>
      </trkpt>
      <trkpt lat="48.49548" lon="7.17091">
        <ele>552.5075</ele>
        <time>2025-02-27T16:07:42Z</time>
      </trkpt>
      <trkpt lat="48.49553" lon="7.17094">
        <ele>552.5075</ele>
        <time>2025-02-27T16:07:47Z</time>
      </trkpt>
      <trkpt lat="48.49557" lon="7.17097">
        <ele>552.5075</ele>
        <time>2025-02-27T16:07:51Z</time>
      </trkpt>
      <trkpt lat="48.49562" lon="7.17099">
        <ele>552.5075</ele>
        <time>2025-02-27T16:07:56Z</time>
      </trkpt>
      <trkpt lat="48.49567" lon="7.17102">
        <ele>552.5075</ele>
        <time>2025-02-27T16:08:01Z</time>
      </trkpt>
      <trkpt lat="48.49571" lon="7.17104">
        <ele>552.5075</ele>
        <time>2025-02-27T16:08:06Z</time>
      </trkpt>
      <trkpt lat="48.49576" lon="7.17107">
        <ele>552.5075</ele>
        <time>2025-02-27T16:08:11Z</time>
      </trkpt>
      <trkpt lat="48.49581" lon="7.1711">
        <ele>552.5075</ele>
        <time>2025-02-27T16:08:16Z</time>
      </trkpt>
      <trkpt lat="48.49585" lon="7.17112">
        <ele>550.4559</ele>
        <time>2025-02-27T16:08:21Z</time>
      </trkpt>
      <trkpt lat="48.49591" lon="7.17115">
        <ele>548.40424</ele>
        <time>2025-02-27T16:08:27Z</time>
      </trkpt>
      <trkpt lat="48.49595" lon="7.17118">
        <ele>546.3526</ele>
        <time>2025-02-27T16:08:33Z</time>
      </trkpt>
      <trkpt lat="48.496" lon="7.1712">
        <ele>544.30096</ele>
        <time>2025-02-27T16:08:38Z</time>
      </trkpt>
      <trkpt lat="48.49605" lon="7.17123">
        <ele>542.2493</ele>
        <time>2025-02-27T16:08:43Z</time>
      </trkpt>
      <trkpt lat="48.4961" lon="7.17125">
        <ele>542.2493</ele>
        <time>2025-02-27T16:08:48Z</time>
      </trkpt>
      <trkpt lat="48.49614" lon="7.17128">
        <ele>542.2493</ele>
        <time>2025-02-27T16:08:52Z</time>
      </trkpt>
      <trkpt lat="48.49619" lon="7.1713">
        <ele>542.2493</ele>
        <time>2025-02-27T16:08:57Z</time>
      </trkpt>
      <trkpt lat="48.49624" lon="7.17133">
        <ele>542.2493</ele>
        <time>2025-02-27T16:09:02Z</time>
      </trkpt>
      <trkpt lat="48.49628" lon="7.17135">
        <ele>542.2493</ele>
        <time>2025-02-27T16:09:07Z</time>
      </trkpt>
      <trkpt lat="48.49633" lon="7.17138">
        <ele>542.2493</ele>
        <time>2025-02-27T16:09:12Z</time>
      </trkpt>
      <trkpt lat="48.49638" lon="7.1714">
        <ele>542.2493</ele>
        <time>2025-02-27T16:09:16Z</time>
      </trkpt>
      <trkpt lat="48.49643" lon="7.17143">
        <ele>542.2493</ele>
        <time>2025-02-27T16:09:21Z</time>
      </trkpt>
      <trkpt lat="48.49648" lon="7.17145">
        <ele>542.2493</ele>
        <time>2025-02-27T16:09:25Z</time>
      </trkpt>
      <trkpt lat="48.49653" lon="7.17148">
        <ele>542.2493</ele>
        <time>2025-02-27T16:09:31Z</time>
      </trkpt>
      <trkpt lat="48.49658" lon="7.17151">
        <ele>542.2493</ele>
        <time>2025-02-27T16:09:36Z</time>
      </trkpt>
      <trkpt lat="48.49662" lon="7.17153">
        <ele>542.2493</ele>
        <time>2025-02-27T16:09:41Z</time>
      </trkpt>
      <trkpt lat="48.49667" lon="7.17156">
        <ele>542.2493</ele>
        <time>2025-02-27T16:09:45Z</time>
      </trkpt>
      <trkpt lat="48.49672" lon="7.17158">
        <ele>542.2493</ele>
        <time>2025-02-27T16:09:51Z</time>
      </trkpt>
      <trkpt lat="48.49676" lon="7.17161">
        <ele>542.2493</ele>
        <time>2025-02-27T16:09:56Z</time>
      </trkpt>
      <trkpt lat="48.49681" lon="7.17163">
        <ele>542.2493</ele>
        <time>2025-02-27T16:10:01Z</time>
      </trkpt>
      <trkpt lat="48.49687" lon="7.17167">
        <ele>542.2493</ele>
        <time>2025-02-27T16:10:07Z</time>
      </trkpt>
      <trkpt lat="48.49692" lon="7.17169">
        <ele>542.2493</ele>
        <time>2025-02-27T16:10:11Z</time>
      </trkpt>
      <trkpt lat="48.49696" lon="7.17171">
        <ele>542.2493</ele>
        <time>2025-02-27T16:10:15Z</time>
      </trkpt>
      <trkpt lat="48.49701" lon="7.17174">
        <ele>542.2493</ele>
        <time>2025-02-27T16:10:19Z</time>
      </trkpt>
      <trkpt lat="48.49706" lon="7.17177">
        <ele>542.2493</ele>
        <time>2025-02-27T16:10:24Z</time>
      </trkpt>
      <trkpt lat="48.49711" lon="7.1718">
        <ele>542.2493</ele>
        <time>2025-02-27T16:10:29Z</time>
      </trkpt>
      <trkpt lat="48.49717" lon="7.17183">
        <ele>542.2493</ele>
        <time>2025-02-27T16:10:33Z</time>
      </trkpt>
      <trkpt lat="48.49721" lon="7.17185">
        <ele>542.2493</ele>
        <time>2025-02-27T16:10:38Z</time>
      </trkpt>
      <trkpt lat="48.49726" lon="7.17188">
        <ele>542.2493</ele>
        <time>2025-02-27T16:10:42Z</time>
      </trkpt>
      <trkpt lat="48.4973" lon="7.1719">
        <ele>542.2493</ele>
        <time>2025-02-27T16:10:47Z</time>
      </trkpt>
      <trkpt lat="48.49735" lon="7.17193">
        <ele>542.2493</ele>
        <time>2025-02-27T16:10:52Z</time>
      </trkpt>
      <trkpt lat="48.4974" lon="7.17195">
        <ele>542.2493</ele>
        <time>2025-02-27T16:10:59Z</time>
      </trkpt>
      <trkpt lat="48.49744" lon="7.17198">
        <ele>542.2493</ele>
        <time>2025-02-27T16:11:04Z</time>
      </trkpt>
      <trkpt lat="48.49749" lon="7.17201">
        <ele>542.2493</ele>
        <time>2025-02-27T16:11:09Z</time>
      </trkpt>
      <trkpt lat="48.49753" lon="7.17203">
        <ele>542.2493</ele>
        <time>2025-02-27T16:11:14Z</time>
      </trkpt>
      <trkpt lat="48.49758" lon="7.17206">
        <ele>542.2493</ele>
        <time>2025-02-27T16:11:19Z</time>
      </trkpt>
      <trkpt lat="48.49763" lon="7.17208">
        <ele>542.2493</ele>
        <time>2025-02-27T16:11:24Z</time>
      </trkpt>
      <trkpt lat="48.49767" lon="7.17211">
        <ele>542.2493</ele>
        <time>2025-02-27T16:11:30Z</time>
      </trkpt>
      <trkpt lat="48.49772" lon="7.17214">
        <ele>542.2493</ele>
        <time>2025-02-27T16:11:33Z</time>
      </trkpt>
      <trkpt lat="48.49778" lon="7.17217">
        <ele>542.2493</ele>
        <time>2025-02-27T16:11:37Z</time>
      </trkpt>
      <trkpt lat="48.49783" lon="7.17219">
        <ele>542.2493</ele>
        <time>2025-02-27T16:11:43Z</time>
      </trkpt>
      <trkpt lat="48.49788" lon="7.17222">
        <ele>542.2493</ele>
        <time>2025-02-27T16:11:48Z</time>
      </trkpt>
      <trkpt lat="48.49792" lon="7.17224">
        <ele>542.2493</ele>
        <time>2025-02-27T16:11:53Z</time>
      </trkpt>
      <trkpt lat="48.49797" lon="7.17227">
        <ele>542.2493</ele>
        <time>2025-02-27T16:11:58Z</time>
      </trkpt>
      <trkpt lat="48.49802" lon="7.17229">
        <ele>542.2493</ele>
        <time>2025-02-27T16:12:03Z</time>
      </trkpt>
      <trkpt lat="48.49807" lon="7.17232">
        <ele>542.2493</ele>
        <time>2025-02-27T16:12:09Z</time>
      </trkpt>
      <trkpt lat="48.49812" lon="7.17235">
        <ele>542.2493</ele>
        <time>2025-02-27T16:12:14Z</time>
      </trkpt>
      <trkpt lat="48.49816" lon="7.17237">
        <ele>542.2493</ele>
        <time>2025-02-27T16:12:21Z</time>
      </trkpt>
      <trkpt lat="48.49821" lon="7.1724">
        <ele>542.2493</ele>
        <time>2025-02-27T16:12:26Z</time>
      </trkpt>
      <trkpt lat="48.49825" lon="7.17243">
        <ele>542.2493</ele>
        <time>2025-02-27T16:12:31Z</time>
      </trkpt>
      <trkpt lat="48.4983" lon="7.17247">
        <ele>542.2493</ele>
        <time>2025-02-27T16:12:36Z</time>
      </trkpt>
      <trkpt lat="48.49835" lon="7.1725">
        <ele>542.2493</ele>
        <time>2025-02-27T16:12:41Z</time>
      </trkpt>
      <trkpt lat="48.4984" lon="7.17254">
        <ele>542.2493</ele>
        <time>2025-02-27T16:12:46Z</time>
      </trkpt>
      <trkpt lat="48.49845" lon="7.17256">
        <ele>542.2493</ele>
        <time>2025-02-27T16:12:51Z</time>
      </trkpt>
      <trkpt lat="48.4985" lon="7.17258">
        <ele>542.2493</ele>
        <time>2025-02-27T16:12:55Z</time>
      </trkpt>
      <trkpt lat="48.49855" lon="7.1726">
        <ele>542.2493</ele>
        <time>2025-02-27T16:12:59Z</time>
      </trkpt>
      <trkpt lat="48.4986" lon="7.1726">
        <ele>542.2493</ele>
        <time>2025-02-27T16:13:03Z</time>
      </trkpt>
      <trkpt lat="48.49865" lon="7.1726">
        <ele>542.2493</ele>
        <time>2025-02-27T16:13:08Z</time>
      </trkpt>
      <trkpt lat="48.4987" lon="7.17259">
        <ele>542.2493</ele>
        <time>2025-02-27T16:13:14Z</time>
      </trkpt>
      <trkpt lat="48.49875" lon="7.17258">
        <ele>542.2493</ele>
        <time>2025-02-27T16:13:18Z</time>
      </trkpt>
      <trkpt lat="48.49879" lon="7.17257">
        <ele>542.2493</ele>
        <time>2025-02-27T16:13:23Z</time>
      </trkpt>
      <trkpt lat="48.4988" lon="7.1725">
        <ele>542.2493</ele>
        <time>2025-02-27T16:13:35Z</time>
      </trkpt>
    </trkseg>
  </trk>
</gpx>